[[{"header":{"parameterUnit":"m.s-1","parameterCategory":1,"la1":30.6,"la2":29.2853,"lo1":-89.7004,"lo2":-87.6739,"dy":0.0162,"dx":0.0183,"nx":112,"ny":82,"refTime":"2025-12-17T12:00:00:Z","depth":0,"parameterNumber":2,"parameterNumberName":"U-component_of_WINDS"},"data":[0.0,0.0,0.0,0.0,0.0,0.0,0.0,0.0,0.0,0.0,0.0,0.0,0.0,0.0,0.0,0.0,0.0,0.0,0.0,0.0,0.0,0.0,0.0,0.0,0.0,0.0,0.0,0.0,0.0,0.0,0.0,0.0,0.0,0.0,0.0,0.0,0.0,0.0,0.0,0.0,0.0,0.0,0.0,0.0,0.0,0.0,0.0,0.0,0.0,0.0,0.0,0.0,0.0,0.0,0.0,0.0,0.0,0.0,0.0,0.0,0.0,0.0,0.0,0.0,0.0,0.0,0.0,0.0,0.0,0.0,0.0,0.0,0.0,0.0,0.0,0.0,0.0,0.0,0.0,0.0,0.0,0.0,0.0,0.0,0.0,0.0,0.0,0.0,0.0,0.0,1.5828,1.5951,1.5361,1.4308,1.2709,1.2353,1.1565,1.0022,0.0,0.0,0.0,0.0,0.0,0.0,0.0,0.0,0.0,0.0,0.0,0.0,0.0,0.0,0.0,0.0,0.0,0.0,0.0,0.0,0.0,0.0,0.0,0.0,0.0,0.0,0.0,0.0,0.0,0.0,0.0,0.0,0.0,0.0,0.0,0.0,0.0,0.0,0.0,0.0,0.0,0.0,0.0,0.0,0.0,0.0,0.0,0.0,0.0,0.0,0.0,0.0,0.0,0.0,0.0,0.0,0.0,0.0,0.0,0.0,0.0,0.0,0.0,0.0,0.0,0.0,0.0,0.0,0.0,0.0,0.0,0.0,0.0,0.0,0.0,0.0,0.0,0.0,0.0,0.0,0.0,0.0,0.0,0.0,0.0,0.0,0.0,0.0,0.0,0.0,0.0,0.0,0.0,0.0,0.0,0.0,0.0,0.0,0.0,0.0,0.0,0.0,0.0,0.0,1.5582,1.5981,1.5326,1.4308,1.2709,1.2125,1.1362,1.0193,0.0,0.0,0.0,0.0,0.0,0.0,0.0,0.0,0.0,0.0,0.0,0.0,0.0,0.0,0.0,0.0,0.0,0.0,0.0,0.0,0.0,0.0,0.0,0.0,0.0,0.0,0.0,0.0,0.0,0.0,0.0,0.0,0.0,0.0,0.0,0.0,0.0,0.0,0.0,0.0,0.0,0.0,0.0,0.0,0.0,0.0,0.0,0.0,0.0,0.0,0.0,0.0,0.0,0.0,0.0,0.0,0.0,0.0,0.0,0.0,0.0,0.0,0.0,0.0,0.0,0.0,0.0,0.0,0.0,0.0,0.0,0.0,0.0,0.0,0.0,0.0,0.0,0.0,0.0,0.0,0.0,0.0,0.0,0.0,0.0,0.0,0.0,0.0,0.0,0.0,0.0,0.0,0.0,0.0,0.0,0.0,0.0,0.0,0.0,0.0,0.0,0.0,0.0,1.4445,1.4711,1.5142,1.4346,1.3404,1.2709,1.2085,1.1273,1.0087,0.9161,0.0,0.0,0.0,0.0,0.0,0.0,0.0,0.0,0.0,0.0,0.0,0.0,0.0,0.0,0.0,0.0,0.0,0.0,0.0,0.0,0.0,0.0,0.0,0.0,0.0,0.0,0.0,0.0,0.0,0.0,0.0,0.0,0.0,0.0,0.0,0.0,0.0,0.0,0.0,0.0,0.0,0.0,0.0,0.0,0.0,0.0,0.0,0.0,0.0,0.0,0.0,0.0,0.0,0.0,0.0,0.0,0.0,0.0,0.0,0.0,0.0,0.0,0.0,0.0,0.0,0.0,0.0,0.0,0.0,0.0,0.0,0.0,0.0,0.0,0.0,0.0,0.0,0.0,0.0,0.0,0.0,0.0,0.0,0.0,0.0,0.0,0.0,0.0,0.0,0.0,0.0,0.0,0.0,0.0,0.0,0.0,0.0,0.0,0.0,0.0,0.0,0.0,1.4922,1.4377,1.4553,1.3492,1.2702,1.2515,1.1857,1.0988,0.9892,0.8658,0.0,0.0,0.0,0.0,0.0,0.0,0.0,0.0,0.0,0.0,0.0,0.0,0.0,0.0,0.0,0.0,0.0,0.0,0.0,0.0,0.0,0.0,0.0,0.0,0.0,0.0,0.0,0.0,0.0,0.0,0.0,0.0,0.0,0.0,0.0,0.0,0.0,0.0,0.0,0.0,0.0,0.0,0.0,0.0,0.0,0.0,0.0,0.0,0.0,0.0,0.0,0.0,0.0,0.0,0.0,0.0,0.0,0.0,0.0,0.0,0.0,0.0,0.0,0.0,0.0,0.0,0.0,0.0,0.0,0.0,0.0,0.0,0.0,0.0,0.0,0.0,0.0,0.0,0.0,0.0,0.0,0.0,0.0,0.0,0.0,0.0,0.0,0.0,0.0,0.0,0.0,0.0,0.0,0.0,0.0,0.0,0.0,0.0,0.0,0.0,0.0,0.0,1.5197,1.5381,1.4947,1.3578,1.2515,1.2337,1.1224,1.0274,0.9681,0.8008,0.0,0.0,0.0,0.0,0.0,0.0,0.0,0.0,0.0,0.0,0.0,0.0,0.0,0.0,0.0,0.0,0.0,0.0,0.0,0.0,0.0,0.0,0.0,0.0,0.0,0.0,0.0,0.0,0.0,0.0,0.0,0.0,0.0,0.0,0.0,0.0,0.0,0.0,0.0,0.0,0.0,0.0,0.0,0.0,0.0,0.0,0.0,0.0,0.0,0.0,0.0,0.0,0.0,0.0,0.0,0.0,0.0,0.0,0.0,0.0,0.0,0.0,0.0,0.0,0.0,0.0,0.0,0.0,0.0,0.0,0.0,0.0,0.0,0.0,0.0,0.0,0.0,0.0,0.0,0.0,0.0,0.0,0.0,0.0,0.0,0.0,0.0,0.0,0.0,0.0,0.0,0.0,0.0,0.0,0.0,0.0,0.0,0.0,0.0,0.0,0.0,0.0,1.4187,1.4441,1.3602,1.2992,1.2491,1.232,1.1565,1.0631,0.9527,0.0,0.0,0.0,0.0,0.0,0.0,0.0,0.0,0.0,0.0,0.0,0.0,0.0,0.0,0.0,0.0,0.0,0.0,0.0,0.0,0.0,0.0,0.0,0.0,0.0,0.0,0.0,0.0,0.0,0.0,0.0,0.0,0.0,0.0,0.0,0.0,0.0,0.0,0.0,0.0,0.0,0.0,0.0,0.0,0.0,0.0,0.0,0.0,0.0,0.0,0.0,0.0,0.0,0.0,0.0,0.0,0.0,0.0,0.0,0.0,0.0,0.0,0.0,0.0,0.0,0.0,0.0,0.0,0.0,0.0,0.0,0.0,0.0,0.0,0.0,0.0,0.0,0.0,0.0,0.0,0.0,0.0,0.0,0.0,0.0,0.0,0.0,0.0,0.0,0.0,0.0,0.0,0.0,0.0,0.0,0.0,0.0,0.0,0.0,0.0,0.0,0.0,1.2366,1.3837,1.4331,1.2747,1.2564,1.2491,1.232,1.1606,1.0647,0.9429,0.0,0.0,0.0,0.0,0.0,0.0,0.0,0.0,0.0,0.0,0.0,0.0,0.0,0.0,0.0,0.0,0.0,0.0,0.0,0.0,0.0,0.0,0.0,0.0,0.0,0.0,0.0,0.0,0.0,0.0,0.0,0.0,0.0,0.0,0.0,0.0,0.0,0.0,0.0,0.0,0.0,0.0,0.0,0.0,0.0,0.0,0.0,0.0,0.0,0.0,0.0,0.0,0.0,0.0,0.0,0.0,0.0,0.0,0.0,0.0,0.0,0.0,0.0,0.0,0.0,0.0,0.0,0.0,0.0,0.0,0.0,0.0,0.0,0.0,0.0,0.0,0.0,0.0,0.0,0.0,0.0,0.0,0.0,0.0,0.0,0.0,0.0,0.0,0.0,0.0,0.0,0.0,0.0,0.0,0.0,0.0,0.0,0.0,0.0,0.0,0.0,0.0,1.2449,1.45,1.5242,1.2797,1.2564,1.2491,1.232,1.1159,1.0136,0.0,0.0,0.0,0.0,0.0,0.0,0.0,0.0,0.0,0.0,0.0,0.0,0.0,0.0,0.0,0.0,0.0,0.0,0.0,0.0,0.0,0.0,0.0,0.0,0.0,0.0,0.0,0.0,0.0,0.0,0.0,0.0,0.0,0.0,0.0,0.0,0.0,0.0,0.0,0.0,0.0,0.0,0.0,0.0,0.0,0.0,0.0,0.0,0.0,0.0,0.0,0.0,0.0,0.0,0.0,0.0,0.0,0.0,0.0,0.0,0.0,0.0,0.0,0.0,0.0,0.0,0.0,0.0,0.0,0.0,0.0,0.0,0.0,0.0,0.0,0.0,0.0,0.0,0.0,0.0,0.0,0.0,0.0,0.0,0.0,0.0,0.0,0.0,0.0,0.0,0.0,0.0,0.0,0.0,0.0,0.0,0.0,0.0,0.0,0.0,0.0,0.0,0.0,1.247,1.4635,1.5413,1.2814,1.2564,1.2491,1.232,1.15,1.0469,0.925,0.0,0.0,0.0,0.0,0.0,0.0,0.0,0.0,0.0,0.0,0.0,0.0,0.0,0.0,0.0,0.0,0.0,0.0,0.0,0.0,0.0,0.0,0.0,0.0,0.0,0.0,0.0,0.0,0.0,0.0,0.0,0.0,0.0,0.0,0.0,0.0,0.0,0.0,0.0,0.0,0.0,0.0,0.0,0.0,0.0,0.0,0.0,0.0,0.0,0.0,0.0,0.0,0.0,0.0,0.0,0.0,0.0,0.0,0.0,0.0,0.0,0.0,0.0,0.0,0.0,0.0,0.0,0.0,0.0,0.0,0.0,0.0,0.0,0.0,0.0,0.0,0.0,0.0,0.0,0.0,0.0,0.0,0.0,0.0,0.0,0.0,0.0,0.0,0.0,0.0,0.0,0.0,0.0,0.0,0.0,0.0,0.0,0.0,0.0,0.0,0.0,0.0,1.248,1.4814,1.5483,1.2814,1.2629,1.2572,1.2328,1.1776,1.0834,0.9397,0.0,0.0,0.0,0.0,0.0,0.0,0.0,0.0,0.0,0.0,0.0,0.0,0.0,0.0,0.0,0.0,0.0,0.0,0.0,0.0,0.0,0.0,0.0,0.0,0.0,0.0,0.0,0.0,0.0,0.0,0.0,0.0,0.0,0.0,0.0,0.0,0.0,0.0,0.0,0.0,0.0,0.0,0.0,0.0,0.0,0.0,0.0,0.0,0.0,0.0,0.0,0.0,0.0,0.0,0.0,0.0,0.0,0.0,0.0,0.0,0.0,0.0,0.0,0.0,0.0,0.0,0.0,0.0,0.0,0.0,0.0,0.0,0.0,0.0,0.0,0.0,0.0,0.0,0.0,0.0,0.0,0.0,0.0,0.0,0.0,0.0,0.0,0.0,0.0,0.0,0.0,0.0,0.0,0.0,0.0,0.0,0.0,0.0,0.0,0.0,0.0,0.0,1.2542,1.4856,1.5513,1.2847,1.2735,1.2702,1.2361,1.1987,1.1183,0.9795,0.0,0.0,0.0,0.0,0.0,0.0,0.0,0.0,0.0,0.0,0.0,0.0,0.0,0.0,0.0,0.0,0.0,0.0,0.0,0.0,0.0,0.0,0.0,0.0,0.0,0.0,0.0,0.0,0.0,0.0,0.0,0.0,0.0,0.0,0.0,0.0,0.0,0.0,0.0,0.0,0.0,0.0,0.0,0.0,0.0,0.0,0.0,0.0,0.0,0.0,0.0,0.0,0.0,0.0,0.0,0.0,0.0,0.0,0.0,0.0,2.291,2.125,0.0,0.0,0.0,0.0,0.0,0.0,0.0,0.0,0.0,0.0,0.0,0.0,0.0,0.0,0.0,0.0,0.0,0.0,0.0,0.0,0.0,0.0,0.0,0.0,0.0,0.0,0.0,0.0,0.0,0.0,0.0,0.0,0.0,0.0,0.0,0.0,0.0,0.0,0.0,0.0,1.2977,1.5192,1.5873,1.3037,1.2816,1.2751,1.2523,1.206,1.1346,1.0331,0.912,0.0,0.0,0.0,0.0,0.0,0.0,0.0,0.0,0.0,0.0,0.0,0.0,0.0,0.0,0.0,0.0,0.0,0.0,0.0,0.0,0.0,0.0,0.0,0.0,0.0,0.0,0.0,0.0,0.0,0.0,0.0,0.0,0.0,0.0,0.0,0.0,0.0,0.0,0.0,0.0,0.0,0.0,0.0,0.0,0.0,0.0,0.0,0.0,0.0,0.0,0.0,0.0,0.0,0.0,0.0,0.0,0.0,0.0,0.0,2.5898,2.4297,0.0,0.0,0.0,0.0,0.0,0.0,0.0,0.0,0.0,0.0,0.0,0.0,0.0,0.0,0.0,0.0,0.0,0.0,0.0,0.0,0.0,0.0,0.0,0.0,0.0,0.0,0.0,0.0,0.0,0.0,0.0,0.0,0.0,0.0,0.0,0.0,0.0,0.0,0.0,0.0,1.3132,1.47,1.5163,1.2964,1.284,1.2767,1.258,1.2239,1.1679,1.0867,0.9803,0.0,0.0,0.0,0.0,0.0,0.0,0.0,0.0,0.0,0.0,0.0,0.0,0.0,0.0,0.0,0.0,0.0,0.0,0.0,0.0,0.0,0.0,0.0,0.0,0.0,0.0,0.0,0.0,0.0,0.0,0.0,0.0,0.0,0.0,0.0,0.0,0.0,0.0,0.0,0.0,0.0,0.0,0.0,0.0,0.0,0.0,0.0,0.0,0.0,0.0,0.0,0.0,0.0,2.9767,2.9961,3.0176,3.0996,3.1348,3.123,2.9453,2.8223,2.7324,2.5449,0.0,0.0,0.0,0.0,0.0,0.0,0.0,0.0,0.0,0.0,0.0,0.0,0.0,0.0,0.0,0.0,0.0,0.0,0.0,0.0,0.0,0.0,1.7117,1.7806,1.844,1.8103,1.5324,0.0,0.0,0.0,0.0,0.0,0.0,0.0,0.0,0.0,0.0,0.0,1.2991,1.4058,1.439,1.2964,1.284,1.2775,1.2621,1.245,1.2085,1.1451,1.0574,0.9795,0.0,0.0,0.0,0.0,0.0,0.0,0.0,0.0,0.0,0.0,0.0,0.0,0.0,0.0,0.0,0.0,0.0,0.0,0.0,0.0,0.0,0.0,0.0,0.0,0.0,0.0,0.0,0.0,0.0,0.0,0.0,0.0,2.8362,2.884,0.0,0.0,0.0,0.0,0.0,0.0,0.0,0.0,0.0,0.0,0.0,0.0,0.0,2.884,3.0253,3.1681,3.2427,3.227,3.4824,3.5742,3.5098,3.5586,3.582,3.5801,3.5527,0.0,2.918,2.8516,0.0,0.0,0.0,0.0,0.0,0.0,0.0,0.0,0.0,0.0,0.0,0.0,0.0,0.0,0.0,0.0,0.0,0.0,0.0,0.0,0.0,0.0,2.0374,2.0241,2.0294,2.0134,1.9199,1.678,1.4496,1.3494,1.2692,1.1957,0.0,0.0,0.0,0.0,0.0,0.0,1.2758,1.3957,1.439,1.2964,1.284,1.2824,1.28,1.2637,1.2426,1.2182,1.1321,1.0712,1.0452,0.9145,0.0,0.0,0.0,0.0,0.0,0.0,0.0,0.0,0.0,0.0,0.0,0.0,0.0,0.0,0.0,0.0,0.0,0.0,0.0,0.0,0.0,0.0,0.0,0.0,0.0,0.0,0.0,0.0,0.0,2.7922,3.026,2.873,2.9512,2.8785,0.0,0.0,0.0,0.0,0.0,0.0,0.0,0.0,0.0,3.1808,3.1778,3.2311,3.3664,3.4681,3.5273,3.5351,3.6914,3.7461,3.7109,3.7539,3.7171,3.6067,3.6067,3.4232,3.1244,3.0882,2.9004,2.6092,0.0,0.0,0.0,0.0,2.1226,2.0883,2.1759,2.1444,2.0431,1.9964,0.0,0.0,0.0,0.0,0.0,0.0,0.0,1.7415,1.8632,1.9865,2.1002,2.1523,2.1657,2.1537,2.1122,1.9653,1.7809,1.5765,1.5044,1.4215,1.2465,1.2478,0.0,0.0,0.0,1.3454,1.3067,1.3474,1.3524,1.297,1.2897,1.284,1.284,1.2767,1.2637,1.2467,1.1987,1.1598,1.1313,1.0306,0.9445,0.0,0.0,0.0,0.0,0.0,0.0,0.0,0.0,0.0,0.0,0.0,0.0,0.0,0.0,0.0,0.0,0.0,0.0,0.0,0.0,0.0,0.0,0.0,0.0,0.0,0.0,0.0,0.0,2.9852,3.1807,2.922,3.0841,3.0358,0.0,0.0,0.0,0.0,0.0,0.0,3.0182,3.0722,3.2117,3.4664,3.4759,3.546,3.666,3.6992,3.7324,3.7617,3.7499,3.749,3.7509,3.7378,3.6441,3.5118,3.5118,3.4151,3.2587,3.2074,3.0475,2.8257,2.6026,2.4843,2.4471,2.4099,2.355,2.32,2.4838,2.4585,2.3398,2.2857,2.1686,2.0055,1.8294,0.0,0.0,0.0,0.0,1.8578,2.0253,2.1034,2.159,2.2539,2.2712,2.2565,2.2271,2.175,2.0601,1.809,1.7422,1.6593,1.4456,1.4522,0.0,1.2757,1.3286,1.3754,1.3277,1.3018,1.3019,1.3149,1.3011,1.2905,1.2905,1.2865,1.2775,1.2645,1.2467,1.2255,1.1987,1.133,1.059,0.9786,0.0,0.0,0.0,0.0,0.0,0.0,0.0,0.0,0.0,0.0,0.0,0.0,0.0,0.0,0.0,0.0,0.0,0.0,0.0,0.0,0.0,0.0,0.0,0.0,0.0,0.0,0.0,0.0,0.0,3.2394,3.3637,0.0,0.0,0.0,0.0,2.8943,3.0387,3.1706,3.297,3.3545,3.472,3.6544,3.6995,3.7519,3.8437,3.8476,3.8496,3.8516,3.7032,3.6275,3.6275,3.4636,3.3885,3.3868,3.3868,3.3511,3.2884,3.1299,3.0021,2.904,2.7815,2.7252,2.6985,2.5898,2.5751,2.5835,2.5383,2.4922,2.4583,2.5154,2.3797,2.1947,2.1413,2.0202,0.0,0.0,2.0604,2.1375,2.2044,2.2739,2.3287,2.3621,2.3487,2.3193,2.2886,2.2352,2.1563,2.0294,1.9386,1.8584,1.7876,0.0,1.6342,1.4364,1.4531,1.4309,1.2842,1.3011,1.3344,1.336,1.3189,1.3084,1.3084,1.2929,1.2832,1.2824,1.2653,1.254,1.2523,1.2012,1.1459,1.0899,0.9835,0.0,0.0,0.0,0.0,0.0,0.0,0.0,0.0,0.0,0.0,0.0,0.0,0.0,0.0,0.0,0.0,0.0,0.0,0.0,0.0,0.0,0.0,0.0,0.0,0.0,0.0,0.0,0.0,3.2565,3.4669,0.0,3.0621,3.0684,3.1065,3.1388,3.2694,3.416,3.5376,3.5877,3.6816,3.8262,3.8184,3.8398,3.8965,3.7644,3.707,3.707,3.5402,3.4654,3.4504,3.4035,3.3146,3.2081,3.2081,3.1558,3.0345,2.9698,2.9984,3.0763,2.9192,2.8551,2.8308,2.729,2.6892,2.7042,2.6952,2.6574,2.6032,2.5143,2.4214,2.3178,2.261,2.195,2.1382,2.1964,2.2268,2.2539,2.31,2.3447,2.3594,2.35,2.3407,2.3247,2.2926,2.2699,2.2432,2.2004,2.1069,2.0027,1.9052,1.9185,1.8765,1.6716,1.6254,1.5829,1.4916,1.3994,1.3417,1.3539,1.3384,1.3222,1.3108,1.3035,1.2954,1.284,1.2775,1.2743,1.2743,1.2337,1.1792,1.1248,1.0319,0.9096,0.0,0.0,0.0,0.0,0.0,0.0,0.0,0.0,0.0,0.0,0.0,0.0,0.0,0.0,0.0,0.0,0.0,0.0,0.0,0.0,0.0,0.0,0.0,0.0,0.0,3.1891,3.4307,3.3265,3.5456,3.5834,3.2567,3.2804,3.3476,3.4057,3.5087,3.623,3.7266,3.7578,3.8125,3.8965,3.8271,3.7958,3.8226,3.6292,3.5402,3.5402,3.3751,3.2842,3.2842,3.2386,3.1469,3.0423,3.0423,2.9959,2.8886,2.8886,2.9702,3.0679,2.933,2.8989,2.8949,2.8044,2.7861,2.7964,2.8081,2.7759,2.6983,2.5624,2.4858,2.4465,2.3663,2.3133,2.3093,2.3457,2.3453,2.3434,2.3928,2.4062,2.4008,2.3821,2.3701,2.3541,2.3233,2.3086,2.2993,2.2886,2.2151,2.1309,2.0535,2.0802,2.0307,1.7948,1.7312,1.6665,1.5284,1.4233,1.3595,1.3717,1.3571,1.3392,1.3206,1.3019,1.2865,1.2751,1.258,1.2507,1.2564,1.2223,1.1768,1.1224,1.0311,0.9045,0.7672,0.0,0.0,0.0,0.0,0.0,0.0,0.0,0.0,0.0,0.0,0.0,0.0,0.0,0.0,0.0,0.0,0.0,0.0,0.0,0.0,0.0,0.0,0.0,2.9423,3.2898,3.5242,3.4602,3.6269,3.6697,3.4431,3.4972,3.582,3.6641,3.748,3.8125,3.8555,3.8574,3.8574,3.8574,3.707,3.6164,3.6164,3.4504,3.36,3.36,3.1928,3.1178,3.1178,2.9649,2.8886,2.8886,2.8886,2.8886,2.8886,2.8886,2.8886,2.8856,2.8564,2.8637,2.8856,2.8564,2.8637,2.8842,2.8549,2.8227,2.7711,2.6776,2.6121,2.5556,2.4685,2.4093,2.3861,2.4142,2.4222,2.4289,2.4569,2.4636,2.4636,2.4623,2.4409,2.4128,2.3834,2.3541,2.3247,2.2939,2.2645,2.2445,2.2432,2.2191,2.0976,1.7928,1.7744,0.0,1.3813,1.3685,1.3896,1.3896,1.3742,1.3571,1.3376,1.2873,1.2564,1.2556,1.2069,1.1857,1.202,1.1695,1.1419,1.1117,0.9661,0.8593,0.7994,0.0,0.0,0.0,0.0,0.0,0.0,0.0,0.0,0.0,0.0,0.0,0.0,0.0,0.0,0.0,0.0,0.0,0.0,0.0,0.0,0.0,2.8725,3.0585,3.1257,3.3396,3.518,3.6062,3.7092,3.757,3.6956,3.7073,3.7324,3.7559,3.8086,3.8457,3.8574,3.8574,3.8117,3.6922,3.646,3.5569,3.4354,3.2842,3.1944,3.1944,3.0268,2.9508,2.9493,2.9042,2.8886,2.8886,2.8886,2.8886,2.8886,2.8886,2.8886,2.8886,2.8798,2.8812,2.8886,2.8798,2.8812,2.8842,2.8549,2.822,2.7769,2.69,2.6168,2.5676,2.5066,2.4716,2.4422,2.4489,2.4516,2.4529,2.4609,2.4636,2.4583,2.4369,2.4262,2.4128,2.3834,2.3714,2.3567,2.326,2.3126,2.3006,2.2779,2.1705,2.0661,1.9894,1.793,1.6327,1.5429,1.454,1.3855,1.3725,1.3669,1.3514,1.3197,1.2921,1.2653,1.2393,1.2117,1.1979,1.2028,1.1566,1.1009,1.0369,0.9311,0.8584,0.0,0.0,0.0,0.0,0.0,0.0,0.0,0.0,0.0,0.0,0.0,0.0,0.0,0.0,0.0,0.0,0.0,0.0,0.0,0.0,0.0,0.0,3.1191,3.3132,3.4107,3.5107,3.6133,3.709,3.7793,3.8203,3.8203,3.8203,3.8203,3.8203,3.8437,3.8282,3.7658,3.7511,3.6904,3.5253,3.4504,3.3751,3.269,3.1178,3.0268,3.0268,2.9353,2.8886,2.8886,2.8886,2.8886,2.8886,2.8886,2.8886,2.8886,2.8886,2.8886,0.0,0.0,0.0,0.0,0.0,2.8886,2.8871,2.8695,2.8313,2.796,2.7171,2.6489,2.6047,2.5456,2.5144,2.501,2.501,2.501,2.501,2.501,2.501,2.493,2.4636,2.4569,2.4462,2.4048,2.3955,2.3861,2.3567,2.3514,0.0,2.3273,2.1862,2.0507,1.9947,1.7824,1.596,1.5319,1.4466,1.3863,1.3766,1.375,1.3636,1.3344,1.3027,0.0,0.0,0.0,1.1623,1.1351,1.1193,0.0,0.0,0.0,0.0,0.0,0.0,0.0,0.0,0.8479,0.837,0.0,0.0,0.0,0.0,0.0,0.0,0.0,0.0,0.0,0.0,0.0,0.0,0.0,0.0,0.0,0.0,3.3574,3.5566,3.6925,3.73,3.7578,3.7949,3.834,3.8574,3.8574,3.8574,3.8574,3.8282,3.8282,3.7677,3.6015,3.5867,0.0,0.0,0.0,3.1178,3.1024,2.9649,2.8886,2.8886,2.8886,2.8886,2.8886,2.8886,2.8886,2.8886,2.8886,2.8886,2.8886,2.8886,2.8886,2.8886,2.8886,2.8886,2.8886,2.8886,2.8886,2.8886,2.8886,0.0,0.0,2.7481,2.6904,2.6539,2.5792,2.5545,2.5518,2.5518,2.5518,2.5518,2.5518,2.5518,2.5451,2.5197,2.513,2.4983,2.4422,2.4302,2.4209,2.3888,2.3821,2.3821,2.3821,2.2254,2.0486,1.9337,1.7632,1.5849,1.4407,1.4104,1.3953,1.3937,0.0,0.0,1.366,1.3165,1.2856,1.284,1.2069,1.124,1.0586,1.0732,1.0465,0.9884,1.0172,1.0336,1.0358,1.0514,1.0744,1.0989,0.9469,0.9198,0.0,0.0,0.0,0.0,0.0,0.0,0.0,0.0,0.0,0.0,0.0,0.0,0.0,0.0,0.0,3.2715,3.5156,3.6726,3.6402,3.7575,3.8359,3.8437,3.8516,3.8574,3.8574,3.8574,3.8117,3.6775,3.6608,3.6015,3.4336,3.4203,3.3449,3.1791,3.1485,3.0732,2.9353,2.9042,2.8886,2.8886,2.8886,0.0,2.8886,2.8886,2.8886,2.8886,2.8886,2.8886,2.8886,2.8886,2.8886,2.8886,2.8886,2.8886,2.8886,2.8886,2.8886,2.8886,2.8886,2.8588,2.8275,2.772,2.7084,2.658,2.6047,2.5705,0.0,2.5518,2.5518,2.5518,2.5518,2.5518,2.5504,2.5438,2.5424,2.5331,2.4983,2.4917,2.4756,2.4222,2.4115,2.4115,2.4115,2.2544,2.1341,2.1055,1.8591,1.6689,1.6359,1.5199,1.4278,1.414,1.3993,1.3831,1.366,1.3279,1.2986,1.2848,1.2274,1.1687,1.1373,1.1148,1.0977,1.0589,1.0636,1.0765,1.0819,1.109,1.1314,1.147,1.0792,1.0629,0.0,0.0,0.0,0.0,0.0,0.0,0.0,0.0,0.0,0.0,0.0,2.6953,2.8926,0.0,3.2855,3.3956,3.5489,3.6066,3.5014,3.57,3.646,3.7364,3.8117,3.8282,3.7511,3.7364,3.6756,3.5103,3.4954,3.4203,3.2538,3.2538,3.1775,3.0114,3.0114,2.9649,2.8886,2.8886,2.8886,2.8886,2.8886,2.8886,2.8886,2.8886,2.8886,2.8886,2.8886,2.8886,2.89,2.9061,2.9134,2.9149,2.931,2.9178,2.8886,2.8886,2.8886,2.8886,2.8886,2.8431,2.7961,2.7805,2.7079,2.6486,2.6329,2.6066,2.5945,2.5945,2.5945,2.5945,2.5945,2.5945,2.5919,2.5772,2.5732,2.5651,2.5358,2.5291,2.5211,2.4917,2.4743,2.4636,2.4636,2.3797,2.2714,2.1971,1.979,1.795,1.7073,1.6241,1.5276,1.4457,1.4221,1.4131,1.405,1.379,1.3522,1.3254,1.2744,1.2254,1.1903,1.1653,1.133,1.1056,1.1274,1.1389,1.1389,1.1619,1.1843,1.2054,1.183,1.1728,0.0,0.0,0.0,0.0,0.0,0.0,0.0,2.4638,2.5137,2.7305,2.8769,3.0217,3.2131,3.3502,3.4355,3.4612,3.4884,3.4765,3.35,3.3483,3.4053,3.5103,3.6608,3.7217,3.5867,3.57,3.4954,3.3297,3.3281,3.2538,3.087,3.087,3.0268,2.8886,2.8886,2.8886,2.8886,2.8886,2.8886,2.8886,2.8886,2.8886,2.8886,2.8886,2.8886,2.8886,2.8886,2.893,2.9003,2.9266,2.9412,2.95,2.9764,2.9544,2.9076,2.9076,2.9076,2.9061,2.9003,2.8518,2.7889,2.7661,2.7175,2.6544,2.6386,2.6386,2.6386,2.6386,2.6386,2.6386,2.6386,2.6386,2.6333,2.6092,2.6039,2.5959,2.5665,2.5598,2.5585,2.5518,2.5331,2.5157,2.5157,2.497,2.4311,2.2843,2.114,1.9521,1.833,1.7437,1.6444,1.5125,1.4654,1.4473,1.4432,1.431,1.4107,1.3815,1.3231,1.2887,1.2462,1.2165,1.183,1.1606,1.1843,1.1993,1.2054,1.2176,1.2359,1.2589,1.2589,1.2528,2.8349,2.5787,2.4593,2.5209,2.5133,2.6035,0.0,3.0215,3.0019,3.2187,3.3691,3.439,3.3539,3.4195,3.4648,3.3794,3.3816,3.3517,3.221,3.3042,3.3297,3.1944,3.3297,3.4203,3.4053,3.4053,3.3297,3.1638,3.1638,3.087,2.9197,2.9197,2.9042,2.8886,2.8886,2.8886,2.8886,2.8886,2.8886,2.8886,2.8886,2.8886,2.8886,2.8886,2.8886,2.8886,2.8886,2.9061,2.9325,2.9354,2.9544,2.9807,2.9851,2.9822,2.9749,2.9749,2.9749,2.972,2.9427,2.9008,2.8503,2.7889,2.7333,2.6874,2.6544,2.6386,2.6386,2.6386,2.6386,2.6386,2.6386,2.6386,2.6386,2.6346,2.6346,2.6266,2.5972,2.5905,2.5825,2.5558,2.5491,2.5464,2.5464,2.5438,2.5237,2.442,2.2942,2.1876,2.1727,1.9145,1.7331,1.7028,1.5673,1.4611,1.4448,1.4416,1.4383,1.4343,1.3613,1.3163,1.3148,1.2423,1.2108,1.2372,1.2413,1.2562,1.2834,1.2854,1.2881,1.2908,1.2908,1.2901,3.0569,2.8666,2.7763,2.9116,2.9659,3.0497,3.2647,3.2799,3.293,3.459,3.5065,3.5051,3.4733,3.4394,3.3908,3.2786,3.2381,3.1904,3.0572,3.0469,3.0358,2.9412,3.0159,3.1109,3.2217,3.2233,3.1638,2.9959,2.9959,2.9649,2.8886,2.8886,2.8886,2.8886,2.8886,2.8886,2.8886,2.8886,2.8886,2.8886,2.8886,2.8886,2.8886,2.8886,2.8988,2.9178,2.9369,2.9529,2.9676,2.9866,3.0027,3.0159,3.0349,3.0422,3.0378,2.9998,2.9705,2.9529,2.9384,2.8859,2.82,2.79,2.7538,2.7055,2.6894,2.6774,2.664,2.664,2.664,2.66,2.6426,2.652,2.66,2.6426,2.6386,2.636,2.6239,2.6213,2.6172,2.6052,2.5892,2.5772,2.5772,2.5625,2.5424,2.5184,2.4527,2.3757,2.2834,2.1601,1.986,1.7904,1.6788,1.5885,1.49,1.4741,1.4597,1.4446,1.3938,1.3531,1.3223,1.2845,1.2644,1.2766,1.2766,1.2834,1.2963,1.2963,1.3003,1.3085,1.3085,1.3132,3.0872,3.0391,3.0641,3.1963,3.3215,3.414,3.4457,3.4799,3.5121,3.5758,3.5538,3.5085,3.4475,3.3563,3.2806,3.1964,3.1105,3.0546,3.0115,2.9138,2.8315,2.7993,2.8081,2.8714,3.0143,3.056,3.0114,2.9042,2.8886,2.8886,2.8886,2.8886,2.8886,2.8886,2.8886,2.8886,2.8886,2.8886,2.8886,2.8886,2.8886,2.8886,2.89,2.8988,2.9149,2.9398,2.972,2.991,3.0012,3.0246,3.0407,3.051,3.0729,3.0817,3.0773,3.0305,2.9967,2.9641,2.9392,2.886,2.8194,2.7948,2.7595,2.7268,2.7268,2.7108,2.6947,2.6947,2.6947,2.6894,2.668,2.6787,2.6894,2.668,2.6627,2.6613,2.6533,2.6507,2.6493,2.64,2.6226,2.6079,2.6079,2.5892,2.5758,2.5758,2.5758,2.5229,2.397,2.3328,2.1699,1.8271,1.7662,1.6961,1.5269,1.5114,1.4967,1.4501,1.4147,1.3899,1.3426,1.3221,1.2976,1.3017,1.3017,1.3037,1.3085,1.3085,1.3132,1.3234,1.3234,1.3315,2.8703,2.986,3.1948,3.2734,3.4472,3.5909,3.6504,3.6894,3.6881,3.5702,3.5834,3.5235,3.2065,3.1331,3.1443,3.1808,3.0187,2.9613,3.1512,2.9743,2.8315,2.7993,2.7686,2.751,2.7659,2.8497,2.8886,2.8886,2.8886,2.8886,2.8886,2.8886,2.8886,2.8886,2.8886,2.8886,2.8886,2.8886,2.8886,2.8886,2.8886,2.8886,2.89,2.9222,2.9369,2.9398,2.972,3.0042,3.0334,3.0349,3.0525,3.0817,3.0817,3.0817,3.0817,3.0803,3.0788,3.0578,2.9957,2.9349,2.8963,2.818,2.7595,2.7268,2.7268,2.7255,2.7255,2.7255,2.7255,2.7255,2.7241,2.7241,2.7255,2.7241,2.7241,2.7161,2.6867,2.6814,2.672,2.644,2.6386,2.6373,2.6373,2.6373,2.636,2.636,2.636,2.6159,2.5585,2.4111,2.1757,1.8465,1.815,1.7372,1.5655,1.5496,1.5337,1.4851,1.4381,1.4062,1.3582,1.3276,1.3024,1.3166,1.3166,1.3241,1.339,1.339,1.339,1.3397,1.3397,1.3478,3.1381,3.2641,3.4173,3.6062,3.6856,3.7504,3.8535,3.8476,3.8117,3.7939,3.6361,3.4541,3.3366,3.2125,3.143,3.2044,3.1054,3.0438,3.162,2.9898,2.8154,2.7408,2.7598,2.7539,2.6896,2.751,2.8125,2.8564,2.8593,2.8681,2.8871,2.8886,2.8886,2.8886,2.8886,2.8886,2.8886,2.8886,2.8886,2.89,2.9105,2.9105,2.8915,2.9676,2.991,2.9734,3.0261,3.0568,3.0671,3.0671,3.0729,3.0817,3.0817,3.0817,3.0817,3.0817,3.0665,3.0317,2.9703,2.9341,2.8827,2.8217,2.8023,2.7843,2.7843,2.7709,2.7549,2.7549,2.7549,2.7509,2.7321,2.7415,2.7509,2.7308,2.7268,2.7241,2.7134,2.7121,2.7028,2.6734,2.668,2.6613,2.6426,2.6386,2.6386,2.6386,2.6386,2.6319,2.6119,2.5452,2.4221,2.1851,2.1547,2.0355,1.739,1.7232,1.6599,1.5026,1.4494,1.4231,1.3746,1.3356,1.3275,1.3322,1.3322,1.3349,1.3403,1.3403,1.3451,1.3553,1.3553,1.3634,3.3865,3.5207,3.6688,3.8748,3.9189,3.9195,3.9751,3.9131,3.8379,3.7747,3.5414,3.3291,3.2717,3.1098,3.0445,3.2433,3.1022,3.0442,3.2276,3.0023,2.7993,2.7247,2.7422,2.7364,2.6735,2.7056,2.7613,2.8388,2.8432,2.8564,2.8871,2.8886,2.8886,2.8886,2.8886,2.8886,2.8886,2.8886,2.8886,2.89,2.9105,2.909,2.8915,2.9661,2.9954,2.9895,3.0422,3.0715,3.0817,3.0817,3.0817,3.0817,3.0817,3.0817,3.0817,3.0817,3.0665,3.0332,2.9649,2.9146,2.8655,2.8318,2.8136,2.8136,2.8136,2.8003,2.7856,2.7856,2.7856,2.7816,2.7629,2.7722,2.7816,2.7629,2.7575,2.7549,2.7442,2.7415,2.7335,2.7041,2.6987,2.6921,2.6734,2.6707,2.6707,2.6707,2.6707,2.6627,2.6413,2.5741,2.451,2.2905,2.1964,2.0443,1.76,1.728,1.6647,1.4892,1.4667,1.4237,1.3746,1.3514,1.3403,1.3403,1.3458,1.3485,1.3485,1.3532,1.3607,1.3702,1.3702,1.3756,3.5749,3.7612,3.9316,4.0781,4.1024,4.0711,4.0017,3.9136,3.7754,3.5457,3.356,3.1817,3.0206,2.8669,2.8837,3.2856,3.0623,2.9537,3.3027,3.0307,2.7876,2.7539,2.7247,2.7056,2.7013,2.7027,2.7422,2.8359,2.8417,2.8549,2.8871,2.8886,2.8886,2.8886,2.8886,2.8886,2.8886,2.8886,2.8886,2.8886,2.89,2.89,2.89,2.9251,2.9573,2.9881,3.0203,3.0525,3.0817,3.0817,3.0817,3.0817,3.0817,3.0817,3.0817,3.0817,3.0817,3.0651,2.9816,2.9146,2.8824,2.8305,2.8136,2.8136,2.8136,2.8136,2.8136,2.8136,2.8136,2.8136,2.8136,2.8136,2.8136,2.8136,2.8136,2.807,2.7789,2.7722,2.7629,2.7348,2.7281,2.7268,2.7268,2.7268,2.7268,2.7268,2.7268,2.7054,2.648,2.4958,2.3336,2.1545,1.9917,1.8146,1.6369,1.6048,1.5727,1.4728,1.4735,1.4246,1.3424,1.3424,1.3424,1.3424,1.3566,1.3641,1.3641,1.3777,1.3844,1.3851,1.3851,1.3858,3.7757,3.9466,4.115,4.18,4.105,4.0284,4.0643,3.8951,3.6953,3.6417,3.3642,3.1111,3.0747,3.0513,3.0698,3.1577,3.1444,3.1546,3.1798,2.9961,2.8447,2.7891,2.7964,2.7876,2.7393,2.7569,2.7905,2.8403,2.8212,2.8315,2.8856,2.8886,2.8886,2.8886,2.8886,2.8886,2.8886,2.8886,2.8886,2.89,2.9134,2.912,2.8915,2.9486,2.9793,2.9881,3.0203,3.0525,3.0817,3.0817,3.0817,3.0817,3.0817,3.0817,3.0817,3.0817,3.0317,2.9816,2.9649,2.9481,2.9146,2.8473,2.8136,2.8136,2.8136,2.8136,2.8136,2.8136,2.8136,2.8136,2.8136,2.8136,2.8136,2.8136,2.8136,2.8123,2.8043,2.803,2.7949,2.7642,2.7415,2.7268,2.7268,2.7268,2.7268,2.7268,2.7268,2.7134,2.676,2.6386,2.5333,2.3348,2.2682,2.1222,1.8137,1.7781,1.705,1.5409,1.485,1.4408,1.4238,1.3899,1.3729,1.3729,1.377,1.3783,1.3783,1.3824,1.3899,1.4014,1.4014,1.4075,3.9909,4.1441,4.2611,4.2858,4.1793,4.0372,3.9545,3.753,3.5382,3.3574,3.1094,2.9141,2.8945,2.9414,3.0007,3.0372,3.092,3.1421,3.1309,2.9837,2.8564,2.8212,2.833,2.83,2.7934,2.8066,2.83,2.8608,2.8344,2.8373,2.8871,2.8886,2.8886,2.8886,2.8886,2.8886,2.8886,2.8886,2.8886,2.89,2.9076,2.9061,2.89,2.9266,2.9588,2.9881,3.0056,3.0393,3.0817,3.0817,3.0817,3.0817,3.0817,3.0817,3.0817,3.0817,3.0317,2.983,2.9649,2.9314,2.9146,2.8473,2.8136,2.8136,2.8136,2.8136,2.8136,2.8136,2.8136,2.8136,2.8136,2.8136,2.8136,2.8136,2.8136,2.8136,2.8136,2.8136,2.8096,2.7923,2.7762,2.7655,2.7655,2.7655,2.7655,2.7655,2.7655,2.7535,2.7241,2.6431,2.5476,2.434,2.2841,2.1032,1.9065,1.8014,1.6919,1.5586,1.4998,1.47,1.4187,1.4016,1.3838,1.3838,1.3905,1.3939,1.3939,1.4007,1.4089,1.417,1.417,1.4183,4.2,4.3056,4.3698,4.3483,4.2549,4.0654,3.7718,3.5531,3.3105,2.9545,2.7598,2.6504,2.6269,2.6953,2.8013,2.9166,2.9699,3.0236,3.0893,2.9577,2.8505,2.8505,2.8505,2.8505,2.8505,2.8505,2.8608,2.8871,2.8651,2.8608,2.8871,2.8886,2.8886,2.8886,2.8886,2.8886,2.8886,2.8886,2.8886,2.8886,2.8886,2.8915,2.8959,2.8959,2.931,2.9925,2.9925,3.0261,3.0817,3.0817,3.0817,3.0817,3.0817,3.0817,3.0817,3.0817,3.0499,3.0179,2.9649,2.9146,2.8655,2.8318,2.8136,2.8136,2.8136,2.8136,2.8136,2.8136,2.8136,2.8136,2.8136,2.8136,2.8136,2.8136,2.8136,2.8136,2.8136,2.8136,2.8136,2.8136,2.8136,2.8136,2.8136,2.8136,2.8136,2.8136,2.8136,2.8043,2.7789,2.616,2.498,2.4778,2.1588,1.9586,1.925,1.7604,1.6105,1.525,1.5272,1.4765,1.3899,1.3905,1.3905,1.3905,1.4034,1.4102,1.4102,1.4238,1.4299,1.4299,1.4319,1.4258,4.318,4.378,4.3937,4.3259,4.1631,3.9372,3.6809,3.3757,3.0878,2.8379,2.5996,2.4531,2.5176,2.6309,2.7239,2.7621,2.9243,3.0091,2.9408,2.8997,2.8812,2.8812,2.8812,2.8812,2.8812,2.8812,2.8827,2.8886,2.8842,2.8842,2.8886,2.8886,2.8886,2.8886,2.8886,2.8886,2.8886,2.8886,2.8886,2.8886,2.8886,2.9032,2.9295,2.9295,2.9647,3.0261,3.0261,3.0481,3.0817,3.0817,3.0817,3.0817,3.0817,3.0817,3.0817,3.0817,3.0499,3.0179,2.9649,2.9146,2.8655,2.8318,2.8136,2.8136,2.8136,2.8136,2.8136,2.8136,2.8136,2.8136,2.8136,2.8136,2.8136,2.8136,2.8136,2.8136,2.8136,2.8136,2.8136,2.8136,2.8136,2.8136,2.8136,2.8136,2.8136,2.8136,2.8136,2.8123,2.807,2.7636,2.653,2.4955,2.2766,2.0929,1.9418,1.7383,1.5932,1.5414,1.5191,1.4745,1.4217,1.4217,1.4217,1.4217,1.4245,1.4258,1.4258,1.4285,1.4299,1.4306,1.4421,1.4462,4.4132,4.4319,4.3978,4.2973,4.1015,3.8386,3.4293,3.1406,2.8555,2.5039,2.3516,2.2852,2.3047,2.4863,2.6191,2.5935,2.7395,2.8609,2.8511,2.794,2.7949,2.8798,2.8886,2.8886,2.8886,2.8886,2.8886,2.8886,2.8886,2.8886,2.8886,2.8886,2.8886,2.8886,2.8886,2.8886,2.8886,2.8886,2.8886,2.8886,2.8886,2.9061,2.9383,2.9383,2.9734,3.0349,3.0349,3.0525,3.0817,3.0817,3.0817,3.0817,3.0817,3.0817,3.0817,3.0817,3.0332,2.983,2.9649,2.8978,2.8487,2.8305,2.8136,2.8136,2.8136,2.8136,2.8136,2.8136,2.8136,2.8136,2.8136,2.827,2.839,2.839,2.8497,2.8564,2.8417,2.8511,2.8604,2.8604,2.8604,2.8604,2.8604,2.8604,2.8564,2.8404,2.839,2.8323,2.8163,2.8016,2.7535,2.6556,2.399,2.1948,2.1098,1.8122,1.611,1.5585,1.5132,1.4822,1.4299,1.4299,1.4299,1.4299,1.4373,1.4407,1.4414,1.4489,1.4529,1.4529,1.4597,1.4631,4.4857,4.4733,4.3916,4.2555,4.0387,3.7199,3.1779,2.9194,2.6584,2.2012,2.1367,2.1523,2.1289,2.332,2.4908,2.4715,2.5587,2.6769,2.7927,2.7259,2.7174,2.871,2.8886,2.8886,2.8886,2.8886,2.8915,2.8988,2.8988,2.8959,2.89,2.8886,2.8886,2.8886,2.8886,2.8886,2.8886,2.8886,2.8886,2.8886,2.8886,2.909,2.9486,2.9486,2.9837,3.0451,3.0451,3.0598,3.0817,3.0817,3.0817,3.0817,3.0817,3.0817,3.0832,3.0665,3.0165,2.9663,2.9481,2.8978,2.8305,2.8305,2.8136,2.8136,2.8136,2.8136,2.8136,2.8136,2.8136,2.8136,2.8136,2.8323,2.8511,2.8511,2.8684,2.8791,2.8564,2.8684,2.8845,2.8845,2.8898,2.8951,2.8951,2.9005,2.8965,2.8738,2.8698,2.8617,2.8364,2.8337,2.8154,2.7814,2.4578,2.2622,2.2622,1.8819,1.6225,1.5704,1.5204,1.4871,1.4346,1.438,1.4394,1.4394,1.4502,1.4563,1.4563,1.4679,1.474,1.474,1.4774,1.4787,4.525,4.4646,4.3433,4.21,3.9171,3.5461,3.0777,2.7924,2.5224,2.1448,2.0664,2.0801,2.1172,2.209,2.3305,2.4841,2.4992,2.5666,2.7833,2.7455,2.7437,2.8739,2.8886,2.8886,2.8886,2.8886,2.9017,2.931,2.9325,2.9208,2.89,2.8886,2.8886,2.8886,2.8886,2.8886,2.8886,2.8886,2.8886,2.8886,2.8886,2.9222,2.9822,2.9822,3.0173,3.0773,3.0773,3.0803,3.0817,3.0817,3.0817,3.0817,3.0817,3.0817,3.0832,3.0346,3.0179,3.0012,2.916,2.8824,2.8655,2.8318,2.8136,2.8136,2.8136,2.8136,2.8136,2.8136,2.8136,2.8136,2.8136,2.8163,2.819,2.819,2.8203,2.8217,2.819,2.8203,2.823,2.823,2.8457,2.8644,2.8644,2.8871,2.9032,2.9005,2.9005,2.8991,2.8965,2.8951,2.8243,2.646,2.4107,2.2622,2.2622,1.8819,1.6225,1.5704,1.5312,1.5033,1.4496,1.4624,1.4699,1.4699,1.4713,1.4719,1.4719,1.4733,1.474,1.474,1.4882,1.495,4.5084,4.4844,4.37,4.2058,3.8928,3.4886,3.0194,2.7196,2.452,2.0879,2.0391,2.0547,2.0449,2.1152,2.2109,2.339,2.262,2.2795,2.544,2.4924,2.5125,2.7203,2.7964,2.8549,2.9134,2.9178,2.9237,2.9369,2.9383,2.9237,2.89,2.8886,2.8886,2.8886,2.8886,2.8886,2.8886,2.8886,2.8886,2.8886,2.8886,2.9237,2.9866,2.9866,3.0217,3.0817,3.0817,3.0817,3.0817,3.0817,3.0817,3.0817,3.0817,3.0817,3.0817,3.0346,2.9998,2.9663,2.8992,2.8655,2.8487,2.8305,2.8136,2.8136,2.8136,2.8136,2.8136,2.8136,2.8136,2.8136,2.8136,2.8283,2.8417,2.8417,2.8551,2.8631,2.8457,2.8564,2.8738,2.8911,2.9045,2.9192,2.9366,2.9486,2.9513,2.9339,2.9312,2.9245,2.9058,2.9045,2.8683,2.7972,2.4928,2.2526,2.1293,1.8475,1.6533,1.5995,1.5694,1.5188,1.4652,1.4706,1.474,1.474,1.4835,1.4875,1.4875,1.4964,1.5004,1.5004,1.5072,1.5099,4.4298,4.4349,4.3442,4.1908,3.8397,3.4101,2.9839,2.6725,2.384,2.041,2.0078,2.0234,1.9805,2.0332,2.1211,2.2324,2.1175,2.1185,2.4065,2.3355,2.3486,2.5798,2.6852,2.7759,2.8725,2.9325,2.9588,2.9398,2.9471,2.9339,2.8915,2.8886,2.8886,2.8886,2.8886,2.8886,2.8886,2.8886,2.8886,2.8886,2.8886,2.9237,2.9866,2.9866,3.0217,3.0817,3.0817,3.0817,3.0817,3.0817,3.0817,3.0817,3.0817,3.0665,3.0499,3.0165,2.9663,2.9146,2.8824,2.8487,2.8136,2.8136,2.8203,2.8283,2.8283,2.8217,2.8136,2.8136,2.8136,2.8136,2.8136,2.8377,2.8604,2.8604,2.8831,2.8978,2.8778,2.8898,2.9098,2.9312,2.9419,2.9553,2.9753,2.986,2.9847,2.9646,2.9606,2.9539,2.9325,2.9299,2.8758,2.7687,2.5167,2.2957,2.1393,1.8527,1.656,1.6196,1.5687,1.5167,1.4808,1.4848,1.4869,1.4869,1.4977,1.5031,1.5031,1.5133,1.5181,1.5181,1.5181,1.5181,4.2617,4.3001,4.2147,4.1228,3.7348,3.2974,2.953,2.6466,2.3315,1.9997,1.9629,1.9785,1.9375,1.9648,2.0488,2.2227,2.132,2.1377,2.4323,2.351,2.3237,2.4876,2.5637,2.6427,2.7393,2.9222,3.0071,2.9427,2.9676,2.9573,2.893,2.8886,2.8886,2.8886,2.8886,2.8886,2.8886,2.8886,2.8886,2.8886,2.8886,2.9237,2.9866,2.9866,3.0217,3.0817,3.0817,3.0817,3.0817,3.0817,3.0817,3.0817,3.0817,3.0499,3.0179,2.9663,2.9146,2.8824,2.8318,2.8136,2.8136,2.8136,2.835,2.8604,2.8604,2.839,2.8136,2.8136,2.8136,2.8136,2.8136,2.8377,2.8604,2.8604,2.8831,2.9045,2.9032,2.9032,2.9045,2.9045,2.9285,2.9486,2.9486,2.9726,2.9913,2.9913,2.9913,2.9913,2.9913,2.9913,2.8436,2.4408,2.4043,2.3849,2.3375,1.8879,1.6189,1.6189,1.5434,1.497,1.497,1.5106,1.5174,1.5174,1.5181,1.5181,1.5181,1.5181,1.5181,1.5181,1.5181,1.5181,3.7274,3.7657,3.7135,3.5779,3.3031,2.9759,2.7242,2.4947,2.2663,1.9844,1.9629,1.9785,1.9375,1.9629,2.0762,2.3379,2.2075,2.1593,2.4105,2.3738,2.3559,2.4305,2.672,2.852,2.9061,3.0056,3.0407,2.9764,2.9807,2.9573,2.893,2.8886,2.8886,2.8886,2.8886,2.8886,2.8886,2.8886,2.8886,2.8886,2.8886,2.912,2.9544,2.9764,3.01,3.051,3.0729,3.0817,3.0817,3.0817,3.0817,3.0817,3.0817,3.0499,3.0179,2.9663,2.916,2.8824,2.8305,2.8136,2.8136,2.8136,2.835,2.8604,2.8604,2.8537,2.8457,2.8457,2.8457,2.8511,2.8711,2.8831,2.8898,2.8898,2.8965,2.9045,2.9045,2.9045,2.9098,2.9299,2.9419,2.9539,2.9753,2.986,2.9913,2.9913,2.9913,2.9913,2.9913,2.9913,2.8989,2.6241,2.4785,2.2709,1.9472,1.7813,1.6717,1.5975,1.5839,1.5494,1.5113,1.516,1.5181,1.5181,1.5181,1.5181,1.5181,1.5181,1.5181,1.5181,1.5181,1.5181,3.3299,3.4165,3.4063,3.2921,3.053,2.7941,2.6064,2.3959,2.1836,1.9727,1.9355,1.9355,1.9082,1.9394,2.0391,2.2598,2.1715,2.1341,2.3218,2.3208,2.3457,2.451,2.7013,2.8886,2.9442,3.0188,3.0422,2.991,2.9749,2.9442,2.8915,2.8886,2.8886,2.8886,2.8886,2.8886,2.8886,2.8886,2.8886,2.8886,2.8886,2.9061,2.9383,2.972,3.0042,3.0364,3.0685,3.0817,0.0,3.0817,3.0817,3.0817,3.0665,3.0332,2.983,2.9495,2.8978,2.8487,2.8318,2.8136,2.8136,2.8136,2.843,2.8791,2.8898,2.8858,2.8764,2.8764,2.8764,2.8818,2.8991,2.9125,2.9205,2.9205,2.9285,2.9366,2.9366,2.9366,2.9419,2.9606,2.9646,2.97,2.9887,2.9913,2.9913,2.9913,2.9913,2.9913,2.9913,2.9182,2.8256,2.7148,2.4591,2.1665,1.8719,1.7608,1.6868,1.5938,1.5751,1.5563,1.5181,1.5181,1.5181,1.5181,1.5181,1.5181,1.5181,1.5181,1.5181,1.5181,1.5181,1.5181,0.0,3.1787,3.2187,3.1491,2.9273,2.6903,2.555,2.3189,0.0,1.9551,1.8945,1.8601,1.8679,1.9062,1.9648,2.0762,2.0676,2.0875,2.1996,2.2332,2.3193,2.5461,2.6822,2.7934,2.8871,2.9778,3.0188,2.9881,2.9559,2.9237,2.89,2.8886,2.8886,2.8886,2.8886,2.8886,2.8886,2.8886,2.8886,2.8886,2.8886,2.9047,2.9354,2.9676,3.0012,3.0334,3.0656,3.0803,3.0817,3.0817,3.0817,3.0832,3.0332,2.983,2.9481,2.8992,2.8487,2.8136,2.8136,2.8136,2.815,2.819,2.8577,2.9098,2.9419,2.9312,2.9072,2.9072,2.9072,2.9072,2.9098,2.9312,2.9513,2.9513,2.9726,2.9913,2.9913,2.9913,2.9913,2.9913,2.9913,2.9913,2.9913,2.9913,2.9913,2.9913,2.9913,2.9913,2.9913,2.8256,2.7148,2.6785,2.3494,2.0927,2.0178,1.7965,1.6494,1.5938,1.5368,1.5181,1.5181,1.5181,1.5181,1.5181,1.5181,1.5181,1.5181,1.5181,1.5181,1.5181,1.5181,1.5181,2.3068,0.0,2.5785,2.4726,2.389,2.3083,0.0,2.1487,2.0449,1.9492,1.8945,1.8945,1.9922,1.9668,2.043,2.3945,2.2883,2.2181,2.3793,2.4049,2.4935,2.7452,2.8227,2.8842,2.9559,2.9837,2.9939,2.9866,2.9559,2.9237,2.89,2.8886,2.8886,2.8886,2.8886,2.8886,2.8886,2.8886,2.8886,2.8886,2.8886,2.893,2.9017,2.9339,2.9676,2.9998,3.032,3.0598,3.0817,3.0817,3.0817,3.0832,3.0332,2.983,2.9481,2.8992,2.8487,2.8136,2.8136,2.8136,2.8217,2.8684,2.8925,2.9138,2.9659,2.9606,2.9379,2.9379,2.9379,2.9432,2.9659,2.9766,2.982,2.982,2.986,2.9913,2.9913,2.9913,2.9913,2.9913,2.9913,2.9913,2.9913,2.9913,2.9913,2.9913,2.9913,2.9913,2.9913,2.9541,2.8076,2.4967,2.3871,2.185,1.7973,1.7048,1.6494,1.5938,1.5368,1.5181,1.5181,1.5181,1.5181,1.5181,1.5181,1.5181,1.5181,1.5181,1.5181,1.5181,1.5181,1.5181,2.0147,2.1709,2.3353,2.2537,2.2114,2.1816,2.1582,2.0566,1.9551,1.9082,1.8809,1.8906,1.9805,1.9678,2.0259,2.282,2.2125,2.2086,2.4277,2.4804,2.5871,2.8169,2.871,2.909,2.9588,2.9647,2.9647,2.9647,2.9339,2.9076,2.89,2.8886,2.8886,2.8886,2.8886,2.8886,2.8886,2.8886,2.8886,2.8886,2.8886,2.8886,2.89,2.9222,2.9471,2.9661,3.0144,3.0451,3.0612,3.0759,3.0665,3.0499,2.9998,2.9663,2.916,2.8655,2.8318,2.8136,2.8136,2.8136,2.8243,2.8845,2.9045,2.9152,2.974,2.9806,2.9686,2.9686,2.9686,2.9713,2.9873,2.9913,2.9913,2.9913,2.9913,2.9913,2.9913,2.9913,2.9913,2.9913,2.9913,2.9913,2.9913,2.9913,2.9913,2.9913,2.9913,2.9913,2.9913,2.9182,2.8076,2.6797,2.515,2.3127,2.1287,1.9259,1.7414,1.5744,1.5368,1.5181,1.5181,1.5181,1.5181,1.5181,1.5181,1.5181,1.5181,1.5181,1.5221,1.5289,1.5289,1.5323,1.9561,2.1273,2.2948,2.2271,2.1992,2.1855,2.1719,2.0215,1.8828,1.8828,1.8828,1.9023,1.9668,1.9938,2.0254,2.0938,2.1178,2.203,2.4525,2.533,2.6383,2.8286,2.8739,2.9017,2.9339,2.9325,2.9325,2.9369,2.9076,2.8886,2.8886,2.8886,2.8886,2.8886,2.8886,2.8886,2.8886,2.8886,2.8886,2.8886,2.8886,2.8886,2.89,2.9178,2.9325,2.9412,2.9954,0.0,3.0305,3.0627,3.0426,3.0107,2.9635,2.9146,2.8824,2.8318,2.8136,2.8136,2.8136,2.8136,2.8243,2.8845,2.9045,2.9152,2.974,2.9913,2.9913,2.9913,2.9913,2.9913,2.9913,2.9913,2.9913,2.9913,2.9913,2.9913,2.9913,2.9913,2.9913,2.9913,2.9913,2.9913,2.9913,2.9913,2.9913,2.9913,2.9913,2.9913,2.9913,2.8449,2.7895,2.9362,2.6435,2.4796,2.5719,2.184,1.833,1.5737,1.5368,1.5181,1.5181,1.5181,1.5181,1.5181,1.5181,1.5181,1.5181,1.5181,1.5262,1.5411,1.5411,1.5493,2.0131,2.1568,2.2482,2.0762,2.1113,2.1699,2.0937,2.0215,1.9707,1.9707,1.9707,2.0195,2.1738,2.2,2.2644,2.4325,2.4248,2.45,2.5996,2.6296,2.6969,2.8622,2.8856,2.9017,2.9339,2.912,2.9076,2.9354,2.9076,2.8886,2.8886,2.8886,2.8886,2.8886,2.8886,2.8886,2.8886,2.8886,2.8886,2.8886,2.8886,2.8886,2.8886,2.8944,2.912,2.9383,0.0,2.9676,2.9968,3.029,3.0258,2.9807,2.955,2.9146,2.8824,2.8318,2.8136,2.8136,2.8136,2.8136,2.8243,2.8845,2.9045,2.9152,2.974,2.9913,2.9913,2.9913,2.9913,2.9913,2.9913,2.9913,2.9913,2.9913,2.9913,2.9913,2.9913,2.9913,2.9913,2.9913,2.9913,2.9913,2.9913,2.9913,2.9913,2.9913,2.9913,2.9913,2.9913,2.9734,2.8989,2.7521,2.6616,2.5161,2.3321,2.0557,1.8702,1.7779,1.6112,1.5181,1.5181,1.5181,1.5181,1.5181,1.5181,1.5181,1.5181,1.5181,1.5262,1.5411,1.5411,1.5493,1.9036,2.0546,2.1762,2.1113,2.2129,2.3086,2.2461,2.1621,2.0977,2.0977,2.1152,2.1641,2.2676,2.287,2.3146,2.4284,2.4533,2.5024,2.6252,2.6808,2.7495,2.8739,2.8886,2.8944,2.9105,2.8973,2.8944,2.9105,2.8973,2.8886,2.8886,2.8886,2.8886,2.8886,2.8886,2.8886,2.8886,2.8886,2.8886,2.8886,2.8886,2.8886,2.8886,2.8886,2.8973,2.912,0.0,2.9456,2.9647,2.9981,2.9692,2.9391,2.9202,2.8824,2.8487,2.8318,2.8136,2.8136,2.8136,2.8136,2.8243,2.8845,2.9045,2.9152,2.974,2.9913,2.9913,2.9913,2.9913,2.9913,2.9913,2.9913,2.9913,2.9913,2.9913,2.9913,2.9913,2.9913,2.9913,2.9913,2.9913,2.9913,2.9913,2.9913,2.9913,2.9913,2.9913,2.9913,2.9913,2.9913,2.9541,2.8629,2.8088,2.7353,2.5901,2.3504,2.0548,1.6853,1.5737,1.5181,1.5181,1.5181,1.5181,1.5181,1.5181,1.5181,1.5181,1.5262,1.5384,1.5533,1.5615,1.573,1.8723,2.0059,2.1543,2.2168,2.3301,2.4297,2.4375,2.3477,2.2695,2.2891,2.3203,2.3516,2.3867,2.3931,2.4138,2.4638,2.5011,2.5652,2.6793,2.7393,2.7993,2.8798,2.8886,2.8886,2.8886,2.8886,2.8886,2.8886,2.8886,2.8886,2.8886,2.8886,2.8886,2.8886,2.8886,2.8886,2.8886,2.8886,2.8886,2.8886,2.8886,2.8886,2.8886,2.8886,2.8886,2.89,2.9149,2.9266,2.931,2.941,2.9193,2.8935,2.8758,2.8419,2.8136,2.8136,2.8136,2.8136,2.8136,2.8136,2.8243,2.8845,2.9045,2.9152,2.974,2.9913,2.9913,2.9913,2.9913,2.9913,2.9913,2.9913,2.9913,2.9913,2.9913,2.9913,2.9913,2.9913,2.9913,2.9913,2.9913,2.9913,2.9913,2.9913,2.9913,2.9913,2.9913,2.9913,2.9913,2.9913,2.9913,2.9734,2.9375,2.8642,2.7558,2.5719,2.2208,1.6299,1.5368,1.5181,1.5181,1.5181,1.5181,1.5181,1.5181,1.5181,1.5181,1.5337,1.5493,1.5642,1.5784,1.5934,2.0566,2.1406,2.2129,2.3359,2.375,2.4258,2.584,2.5488,2.5078,2.5898,2.6094,2.6113,2.6152,2.6417,2.6951,2.7694,2.7555,2.751,2.8198,2.833,2.8491,2.8842,2.8886,2.8886,2.8886,2.8886,2.8886,2.8886,2.8886,2.8886,2.8886,2.8886,2.8886,2.8886,2.8886,2.8886,2.8886,2.8886,2.8886,2.8886,2.8886,2.8886,2.8886,2.8886,2.8886,2.8886,2.8915,2.893,2.8959,2.8835,2.8669,2.8451,2.8455,2.8411,2.8136,2.8136,2.8136,2.8136,2.8136,2.8136,2.8243,2.8845,2.9045,2.9152,2.974,2.9913,2.9913,2.9913,2.9913,2.9913,2.9913,2.9913,2.9913,2.9913,2.9913,2.9913,2.9913,2.9913,2.9913,2.9913,2.9913,2.9913,2.9913,2.9913,2.9913,2.9913,2.9913,2.9913,2.9913,2.9913,2.9734,2.9362,2.8835,2.7377,2.4613,2.4247,2.2392,1.8152,1.6112,1.5181,1.5181,1.5181,1.5181,1.5181,1.5181,1.5181,1.5181,1.5337,1.5493,1.5642,1.5784,1.5934,1.9375,2.0527,2.1855,2.3398,2.4805,2.6035,2.6973,2.7324,2.7793,2.8945,2.8965,2.8501,2.7865,2.7357,2.7167,2.7777,2.7885,2.792,2.8373,2.8593,2.8769,2.8871,2.8725,2.8608,2.8608,2.8417,2.83,2.83,2.83,2.83,2.83,2.83,2.83,2.83,2.83,2.83,2.83,2.83,2.8403,2.8608,2.8798,2.8886,2.8886,2.8886,2.8886,2.8886,2.8886,2.8744,2.846,2.846,2.8291,2.8125,2.8288,2.8211,2.8136,2.8136,2.8136,2.8136,2.8136,2.8136,2.8217,2.8631,2.8898,2.9112,2.9526,2.9766,2.9913,2.9913,2.9913,2.9913,2.9913,2.9913,2.9913,2.9913,2.9913,2.9913,2.9913,2.9913,2.9913,2.9913,2.9913,2.9913,2.9913,2.9913,2.9913,2.9913,2.9913,2.9913,2.9913,2.9913,2.9734,2.9182,2.8462,2.7377,2.6095,2.4807,2.3504,2.184,1.8702,1.6486,1.5181,1.5181,1.5181,1.5181,1.5181,1.5181,1.5181,1.5432,1.5533,1.5506,1.5839,1.5974,1.8848,2.0117,2.1758,2.3066,2.5215,2.7266,2.8242,2.9238,3.0273,3.1445,3.1113,3.0276,2.9232,2.8166,2.7437,2.781,2.7815,2.8066,2.8388,2.8695,2.8856,2.8754,2.8564,2.8403,2.83,2.8081,2.7949,2.7949,2.7949,2.7949,2.7949,2.7949,2.7949,2.7949,2.7949,2.7949,2.7949,2.7949,2.8066,2.8286,2.8491,2.8695,2.8886,2.8886,2.8886,2.8886,2.8744,2.8588,2.8304,2.7871,2.7726,2.7812,2.7982,2.8056,2.8136,2.8136,2.8136,2.8136,2.8136,2.8136,2.819,2.8511,2.8804,2.9098,2.9392,2.9686,2.9913,2.9913,2.9913,2.9913,2.9913,2.9913,2.9913,2.9913,2.9913,2.9913,2.9913,2.9913,2.9913,2.9913,2.9913,2.9913,2.9913,2.9913,2.9913,2.9913,2.9913,2.9913,2.9913,2.9734,2.9375,2.8822,2.792,2.7377,2.7027,2.573,2.4796,2.4064,2.1471,1.8888,1.6299,1.5556,1.5181,1.5181,1.5181,1.5181,1.5181,1.5438,1.5513,1.5418,1.5778,1.5913,1.9512,2.0566,2.1992,2.2422,2.4805,2.7598,2.9726,3.125,3.2422,3.3281,3.2422,3.118,3.0075,2.9077,2.8146,2.7889,2.78,2.8066,2.8388,2.8695,2.8769,2.8476,2.8432,2.83,2.7978,2.7949,2.7949,2.7949,2.7949,2.7949,2.7949,2.7949,2.7949,2.7949,2.7949,2.7949,2.7949,2.7949,2.7949,2.7949,2.7949,2.8271,2.8886,2.8886,2.8886,2.8886,2.8431,2.8289,2.8289,2.7347,2.7067,2.7295,2.7589,2.7883,2.8136,2.8136,2.8136,2.8136,2.8136,2.8136,2.819,2.8497,2.8804,2.9098,2.9392,2.9686,2.9913,2.9913,2.9913,2.9913,2.9913,2.9913,2.9913,2.9913,2.9913,2.9913,2.9913,2.9913,2.9913,2.9913,2.9913,2.9913,2.9913,2.9913,2.9913,2.9913,2.9913,2.9913,2.9913,2.9541,2.8822,2.7739,2.7208,2.7027,2.7027,2.7027,2.6106,2.4247,2.4064,2.2218,1.8338,1.6299,1.5181,1.5181,1.5181,1.5181,1.5181,1.5337,1.5411,1.5411,1.5567,1.5716,1.9062,2.0332,2.2285,2.3906,2.6797,2.9668,3.123,3.2578,3.3848,3.5,3.4219,3.2865,3.1138,2.9995,2.8877,2.7968,2.7765,2.773,2.8052,2.8169,2.8198,2.811,2.7905,2.773,2.7627,2.7408,2.7276,2.7276,2.7276,2.7276,2.7276,2.7276,2.7276,2.7276,2.7276,2.7276,2.7276,2.7276,2.7393,2.7613,2.7613,2.7949,2.8578,2.8578,2.8695,2.8886,2.8431,2.8118,2.7819,2.7078,2.7082,2.7295,2.7589,2.7883,2.8136,2.8136,2.8136,2.8136,2.8136,2.8136,2.8163,2.8243,2.8617,2.9058,2.9138,2.9513,2.9913,2.9913,2.9913,2.9913,2.9913,2.9913,2.9913,2.9913,2.9913,2.9913,2.9913,2.9913,2.9913,2.9913,2.9913,2.9913,2.9913,2.9913,2.9913,2.9913,2.9913,2.9734,2.9362,2.9015,2.8474,2.7739,2.7208,2.7027,2.7027,2.7027,2.6664,2.6106,2.4807,2.2218,1.8338,1.7592,1.6666,1.5181,1.5181,1.5181,1.5181,1.5337,1.5357,1.5255,1.552,1.5662,2.0234,2.1758,2.3848,2.5644,2.8164,3.0723,3.2715,3.3769,3.4556,3.5158,3.4394,3.2861,3.0793,2.9665,2.8575,2.7709,2.7435,2.7539,2.7744,2.7876,2.7905,2.7773,2.7598,2.7422,2.7291,2.71,2.6983,2.6983,2.6983,2.6983,2.6983,2.6983,2.6983,2.6983,2.6983,2.6983,2.6983,2.6983,2.7086,2.7276,2.7276,2.7554,2.8066,2.8315,2.838,2.84,2.7919,2.749,2.7018,2.6733,2.6827,2.7121,2.7415,2.7709,2.7976,2.8096,2.8136,2.8136,2.8136,2.8136,2.8136,2.8136,2.847,2.8871,2.8871,2.9285,2.974,2.974,2.982,2.9913,2.9913,2.9913,2.9913,2.9913,2.9913,2.9913,2.9913,2.9913,2.9913,2.9913,2.9913,2.9913,2.9913,2.9913,2.9913,2.9913,2.9913,2.9734,2.9015,2.8655,2.8294,2.7558,2.7208,2.7027,2.7027,2.7027,2.7027,2.7027,2.5913,2.3881,2.0548,1.8888,1.7227,1.5181,1.5181,1.5181,1.5181,1.5276,1.5269,1.5187,1.5371,1.5493,2.2187,2.4023,2.6094,2.7539,2.9238,3.1269,3.3934,3.4537,3.445,3.4297,3.3221,3.1708,2.9454,2.8537,2.7803,2.7141,2.7217,2.7422,2.7393,2.7642,2.77,2.7378,2.7349,2.7232,2.6925,2.6925,2.6939,2.6939,2.6969,2.6983,2.6983,2.6983,2.6983,2.6983,2.6983,2.6983,2.6983,2.6983,2.6983,2.6983,2.6983,2.7144,2.7452,2.8066,2.8067,2.7677,2.7208,2.6716,2.6386,2.6386,2.656,2.6854,2.7121,2.7415,2.7736,2.8003,2.8123,2.8136,2.8136,2.8136,2.8136,2.8136,2.835,2.8604,2.8604,2.9018,2.9486,2.9486,2.9686,2.9913,2.9913,2.9913,2.9913,2.9913,2.9913,2.9913,2.9913,2.9913,2.9913,2.9913,2.9913,2.9913,2.9913,2.9913,2.9913,2.9913,2.9913,2.9554,2.8655,2.8474,2.8113,2.7027,2.7027,2.7027,2.7027,2.7027,2.7027,2.7027,2.7027,2.6106,2.4247,2.0548,1.7592,1.5556,1.5368,1.5368,1.5181,1.5181,1.5181,1.5181,1.5181,1.5262,2.1546,2.3574,2.6367,2.9004,3.1465,3.3243,3.3143,3.2842,3.2747,3.3366,3.2373,3.0772,2.8857,2.8757,2.8411,2.6905,2.6881,2.7013,2.6749,2.6778,2.6691,2.6369,2.6325,2.631,2.6237,2.6457,2.6603,2.6603,2.6852,2.6983,2.6983,2.6983,2.6983,2.6983,2.6983,2.6983,2.6983,2.6983,2.6983,2.6983,2.6692,2.6574,2.6661,2.7049,2.7041,2.6904,2.6895,2.6716,2.6386,2.6386,2.656,2.6827,2.6894,2.7241,2.7709,2.7762,2.7936,2.8136,2.8136,2.8136,2.8136,2.8136,2.835,2.8604,2.8604,2.9018,2.9486,2.9486,2.9686,2.9913,2.9913,2.9913,2.9913,2.9913,2.9913,2.9913,2.9913,2.9913,2.9913,2.9913,2.9913,2.9913,2.9913,2.9913,2.9913,2.9913,2.9913,2.9554,2.8655,2.8474,2.8113,2.7027,2.7027,2.7027,2.7027,2.7027,2.7027,2.7027,2.7027,2.6106,2.4247,2.3321,2.1102,1.7592,1.7406,1.6666,1.5181,1.5181,1.5181,1.5181,1.5181,1.5262,2.2095,2.4512,2.7422,3.0644,3.195,3.2388,3.2003,3.0733,2.9791,3.0187,3.0003,2.9241,2.7555,2.7397,2.7296,2.6437,2.6413,2.6457,2.6296,2.6266,2.6208,2.6032,2.6018,2.6018,2.6018,2.6164,2.6266,2.6266,2.6427,2.653,2.653,2.653,2.653,2.653,2.6676,2.6764,2.6764,2.691,2.6983,2.6983,2.6546,2.6253,2.5828,2.629,2.6599,2.6607,2.6738,2.6544,2.6386,2.6386,2.648,2.6627,2.6774,2.7094,2.7509,2.7642,2.7883,2.8136,2.8136,2.8136,2.8136,2.8136,2.8257,2.839,2.839,2.8698,2.9058,2.9058,2.9272,2.9526,2.9673,2.9713,2.974,2.9887,2.9913,2.9913,2.9913,2.9913,2.9913,2.9913,2.9913,2.9913,2.9913,2.9913,2.9913,2.9913,2.9734,2.9375,2.8655,2.8294,2.7752,2.7027,2.7027,2.7027,2.7027,2.7027,2.7027,2.7027,2.7027,2.647,2.5548,2.5537,2.3698,1.963,1.8524,1.7592,1.6666,1.5744,1.5181,1.5181,1.5181,1.5221,2.2271,2.5332,2.8555,3.1777,3.1664,3.0809,3.0865,2.8867,2.6941,2.6737,2.7254,2.7416,2.6136,2.5944,2.6003,2.5944,2.5974,2.6003,2.5944,2.593,2.5915,2.5857,2.5857,2.5857,2.5857,2.59,2.593,2.593,2.5988,2.6018,2.6018,2.6018,2.6018,2.6018,2.6281,2.6413,2.6413,2.6749,2.691,2.6765,2.6371,2.5814,2.5106,2.565,2.6031,2.6289,2.6329,2.6319,2.6319,2.6373,2.6386,2.6413,2.6653,2.6921,2.7228,2.7522,2.7816,2.807,2.8123,2.8136,2.8136,2.8136,2.8136,2.8136,2.8136,2.8364,2.8604,2.8604,2.8818,2.9098,2.9339,2.9446,2.9539,2.978,2.9887,2.9913,2.9913,2.9913,2.9913,2.9913,2.9913,2.9913,2.9913,2.9913,2.9913,2.9913,2.9541,2.9002,2.8474,2.8101,2.7558,2.7027,2.7027,2.7027,2.7027,2.7027,2.7027,2.7027,2.7027,2.7027,2.7027,2.7027,2.5548,2.2218,1.9816,1.8524,1.8152,1.6112,1.5181,1.5181,1.5181,1.5181,1.9453,2.3965,2.8769,3.1113,3.1228,3.0483,2.9247,2.7847,2.654,2.5517,2.5603,2.5781,2.5227,2.5637,2.593,2.5637,2.5827,2.5915,2.5637,2.5593,2.5491,2.5213,2.5183,2.5183,2.5183,2.5432,2.5593,2.5593,2.5857,2.6018,2.6018,2.6018,2.6018,2.6018,2.6061,2.6076,2.6076,2.6413,2.6415,2.5984,2.5542,2.5079,2.4649,2.4983,2.5308,2.5375,2.5772,2.6012,2.6039,2.6279,2.6386,2.6386,2.6426,2.6627,2.6921,2.7215,2.7509,2.7789,2.8056,2.8136,2.8136,2.8136,2.8136,2.8136,2.8136,2.8364,2.8604,2.8604,2.8818,2.9045,2.9085,2.9285,2.9499,2.9526,2.9726,2.9913,2.9913,2.9913,2.9913,2.9913,2.9913,2.9913,2.9913,2.9913,2.9913,2.9913,2.9541,2.9002,2.8474,2.8101,2.7558,2.7027,2.7027,2.7027,2.7027,2.7027,2.7027,2.7027,2.7027,2.7027,2.7027,2.7027,2.6664,2.6288,2.2596,1.9816,1.8152,1.6112,1.5181,1.5181,1.5181,1.5181,2.0449,2.4102,2.7559,3.0449,2.9665,2.8324,2.8346,2.6713,2.5106,2.4613,2.4627,2.4788,2.5008,2.5286,2.5432,2.5286,2.5388,2.5432,2.5286,2.5271,2.5213,2.5066,2.5052,2.5052,2.5052,2.5183,2.5271,2.5271,2.5403,2.5476,2.5476,2.5476,2.5476,2.5476,2.5652,2.574,2.574,2.5498,2.517,2.4616,2.4898,2.4915,2.4636,2.477,2.4917,2.5104,2.5518,2.5798,2.5972,2.6092,2.6239,2.6386,2.6386,2.656,2.6854,2.7161,2.7455,2.7749,2.8043,2.8136,2.8136,2.8136,2.8136,2.8136,2.8136,2.8243,2.835,2.835,2.8444,2.8577,2.8751,2.9018,2.9272,2.9446,2.97,2.9913,2.9913,2.9913,2.9913,2.9913,2.9913,2.9913,2.9913,2.9913,2.9913,2.9913,2.9195,2.8655,2.8474,2.7752,2.7208,2.7027,2.7027,2.7027,2.7027,2.7027,2.7027,2.7027,2.7027,2.7027,2.7027,2.7027,2.7027,2.7027,2.4247,2.185,1.9816,1.7779,1.6299,1.5181,1.5181,1.5181,2.0508,2.3027,2.5098,2.8555,2.7523,2.5948,2.7293,2.5644,2.3881,2.4042,2.4086,2.4232,2.4715,2.4803,2.4803,2.4803,2.4803,2.4832,2.492,2.4935,2.4964,2.5052,2.5052,2.5052,2.5052,2.5052,2.5052,2.5052,2.5052,2.5052,2.5052,2.5052,2.5052,2.5052,2.5286,2.5418,2.5418,2.475,2.4208,2.3917,2.4431,2.4593,2.4529,2.4609,2.4756,2.4983,2.5277,2.5571,2.5852,2.5932,2.6132,2.6386,2.6386,2.652,2.6747,2.7041,2.7335,2.7629,2.7923,2.8083,2.8136,2.8136,2.8136,2.8136,2.8136,2.8136,2.8136,2.8136,2.8136,2.819,2.843,2.8764,2.9098,2.9312,2.9646,2.9913,2.9913,2.9913,2.9913,2.9913,2.9913,2.9913,2.9913,2.9913,2.9913,2.9913,2.9015,2.8474,2.8474,2.7571,2.7003,2.6942,2.6991,2.7003,2.693,2.6991,2.7027,2.7027,2.7027,2.7027,2.7027,2.7027,2.7027,2.7027,2.5548,2.3881,2.185,1.9259,1.7406,1.5924,1.5368,1.5181,1.7422,1.9238,2.1055,2.4512,2.4699,2.4471,2.5948,2.4621,2.334,2.3954,2.4086,2.4101,2.413,2.413,2.413,2.413,2.413,2.4247,2.4554,2.4598,2.4715,2.5022,2.5052,2.5052,2.5052,2.5052,2.5052,2.5052,2.5052,2.5052,2.5052,2.5052,2.5052,2.5052,2.5066,2.5081,2.5081,2.4701,2.4316,2.4323,2.4206,2.4209,2.4235,2.4516,2.4649,2.4676,2.497,2.5264,2.5558,2.5838,2.6132,2.6386,2.6386,2.64,2.6453,2.6734,2.7028,2.7335,2.7615,2.7909,2.8136,2.8136,2.8136,2.8136,2.8136,2.8136,2.8136,2.8136,2.8136,2.815,2.8163,2.8604,2.9045,2.9058,2.9499,2.9913,2.9913,2.9913,2.9913,2.9913,2.9913,2.9913,2.9913,2.9913,2.9913,2.9913,2.9015,2.8474,2.8474,2.7571,2.693,2.6689,2.6882,2.693,2.6677,2.6882,2.7027,2.7027,2.7027,2.7027,2.7027,2.7027,2.7027,2.7027,2.6845,2.5913,2.3881,1.9992,1.7965,1.7965,1.6112,1.5181,1.6387,1.8105,2.0078,2.2441,2.2695,2.2652,2.4023,2.3441,2.2637,2.3062,2.3149,2.3208,2.3413,2.3793,2.4086,2.4086,2.4086,2.413,2.4247,2.4262,2.4305,2.4423,2.4437,2.4437,2.4437,2.4437,2.451,2.473,2.4744,2.4832,2.5052,2.5052,2.5052,2.5052,2.5052,2.4645,2.3679,2.3927,2.3721,2.2897,2.3439,2.3834,2.4209,2.4315,2.4462,2.4649,2.4743,2.497,2.5264,2.5558,2.5838,2.6132,2.6319,2.6386,2.6426,2.6707,2.7014,2.7308,2.7602,2.7896,2.8136,2.8136,2.8136,2.8136,2.8136,2.8136,2.8136,2.8136,2.8136,2.8136,2.8136,2.8591,2.9138,2.9513,2.9766,2.9913,2.9913,2.9913,2.9913,2.9913,2.9913,2.9913,2.9913,2.9913,2.9614,2.9053,2.8603,2.8347,2.7636,2.7035,2.681,2.6882,2.6822,2.681,2.6882,2.6979,2.7027,2.7027,2.7027,2.7027,2.7027,2.7027,2.7027,2.7027,2.7027,2.6095,2.4064,2.2586,2.0548,1.8152,1.7406,1.6479,1.5117,1.6562,1.8496,2.0684,2.0802,2.0883,2.2927,2.2561,2.1888,2.2184,2.2403,2.2564,2.2886,2.3296,2.3632,2.3735,2.3749,2.3793,2.391,2.3925,2.3954,2.4071,2.4086,2.4086,2.4086,2.4086,2.4174,2.4393,2.4408,2.4554,2.4876,2.4891,2.4949,2.5052,2.5052,2.451,2.327,2.3816,2.3502,2.2458,2.2994,2.3581,2.4062,2.4155,2.4369,2.4636,2.4636,2.481,2.509,2.5291,2.5598,2.5972,2.6172,2.6306,2.6413,2.66,2.6867,2.7161,2.7455,2.7749,2.8003,2.811,2.8136,2.8136,2.8136,2.8136,2.8136,2.8136,2.8136,2.8136,2.8136,2.8591,2.9165,2.9659,2.9847,2.9913,2.9913,2.9913,2.9913,2.9913,2.9913,2.9913,2.9913,2.9913,2.9601,2.885,2.859,2.8168,2.7256,2.701,2.6798,2.6894,2.6822,2.681,2.6894,2.6979,2.7027,2.7027,2.7027,2.7027,2.7027,2.7027,2.7027,2.7027,2.7027,2.6288,2.499,2.443,2.277,1.9992,1.8702,1.704,0.0,0.0,0.0,1.9023,1.8976,1.9035,2.2501,2.2038,2.0972,2.148,2.1876,2.2198,2.255,2.2608,2.271,2.3032,2.3091,2.3223,2.353,2.3574,2.3691,2.4013,2.4057,2.4057,2.4057,2.4057,2.4057,2.4071,2.4071,2.4218,2.454,2.4554,2.4701,2.5037,2.5037,2.4766,2.3952,2.3966,2.3679,2.2859,2.3166,2.3474,2.3768,2.4062,2.4342,2.4623,2.4636,2.4796,2.5064,2.5077,2.5424,2.5945,2.5959,2.6132,2.6386,2.6386,2.6573,2.6867,2.7161,2.7455,2.7749,2.8043,2.8136,2.8136,2.8136,2.8136,2.8136,2.8136,2.8136,2.815,2.815,2.8591,2.9098,2.9406,2.9686,2.99,2.99,2.9913,2.9913,2.9913,2.9913,2.9913,2.9913,2.9913,2.9721,2.9156,2.8809,2.8269,2.7715,2.7172,2.6906,2.6677,2.687,2.6906,2.6665,2.687,2.7015,2.7015,2.7027,2.7027,2.7027,2.7027,2.7027,2.7027,2.7027,2.7027,2.7027,2.5172,2.4247,2.4054,2.0001,1.704,1.3672,0.0,0.0,0.0,0.0,0.0,1.811,1.8362,1.8716,2.0101,2.0179,2.053,2.2023,2.2301,2.233,2.2418,2.2813,2.3135,2.3237,2.3237,2.3281,2.3369,2.3384,2.3384,2.3384,2.3384,2.3471,2.372,2.3735,2.3866,2.4203,2.4218,2.4232,2.4286,2.43,2.4132,2.3543,2.3543,2.3406,2.2859,2.2953,2.3153,2.346,2.3754,2.4048,2.4329,2.4543,2.469,2.4783,2.4997,2.5304,2.5651,2.5879,2.6132,2.6386,2.6386,2.6573,2.6867,2.7161,2.7455,2.7749,2.8043,2.8136,2.8136,2.8136,2.8136,2.8136,2.8136,2.8136,2.819,2.8417,2.8604,2.8804,2.9098,2.9392,2.9606,2.9606,2.9766,2.9913,2.9913,2.9913,2.9913,2.9913,2.9913,2.9409,2.8268,2.804,2.7675,2.679,2.6278,2.6363,2.687,2.6629,2.6496,2.6629,2.6701,2.6749,2.6749,2.693,2.7027,2.7027,2.7027,2.7027,2.7027,2.7027,2.7027,2.7027,2.647,2.5548,2.4054,2.0001,1.7779,1.4531,1.498,1.5801,1.6269,0.0,0.0,1.7269,1.7433,1.7721,1.8918,1.9213,1.9696,2.1115,2.1481,2.1672,2.1935,2.2403,2.2769,2.2886,2.3018,2.3106,2.3106,2.3106,2.3106,2.3106,2.3106,2.3179,2.3384,2.3398,2.353,2.3738,2.3883,2.3782,2.3691,2.3573,2.3448,2.3215,2.3215,2.3147,2.2859,2.2859,2.3033,2.334,2.3514,2.3808,2.4209,2.4382,2.4529,2.4649,2.4823,2.5144,2.5531,2.5705,2.6026,2.6386,2.6386,2.6493,2.6707,2.7121,2.7375,2.7589,2.8003,2.8136,2.8136,2.8136,2.8136,2.8136,2.8136,2.8136,2.819,2.8364,2.8511,2.8684,2.8965,2.9272,2.9513,2.9633,2.9793,2.9913,2.9913,2.9913,2.9913,2.9734,2.9554,2.9257,2.7839,2.7611,2.7446,2.6556,2.6423,2.6508,2.6979,2.6653,2.6508,2.6773,2.6701,2.6689,2.6798,2.6942,2.7027,2.7027,2.7027,2.7027,2.7027,2.7027,2.7027,2.7027,2.7027,2.5913,2.4064,2.1655,2.0187,1.5859,1.5957,1.6602,1.8008,1.709,0.0,1.803,1.7874,1.7349,1.7878,1.8434,1.8979,1.9725,2.0179,2.0618,2.113,2.1672,2.2154,2.252,2.2828,2.3003,2.3003,2.3032,2.3062,2.3062,2.3091,2.3106,2.3106,2.3106,2.3112,2.3021,2.3307,2.3349,2.2986,2.2986,2.3008,2.2914,2.2941,2.2957,2.2819,2.2846,2.3006,2.3273,2.3313,2.3634,2.4155,2.4195,2.4369,2.4636,2.4636,2.497,2.5464,2.5504,2.5852,2.6346,2.6373,2.6386,2.648,2.7068,2.7268,2.7362,2.7949,2.8136,2.8136,2.8136,2.8136,2.8136,2.8136,2.8136,2.8136,2.8136,2.835,2.8617,2.8871,2.9165,2.9459,2.9753,2.9847,2.9873,2.9913,2.9913,2.9734,2.9362,2.9182,2.8822,2.792,2.769,2.7497,2.7015,2.6979,2.6966,2.7027,2.6798,2.6737,2.6966,2.6773,2.6737,2.6966,2.7015,2.7027,2.7027,2.7027,2.7027,2.7027,2.7027,2.7027,2.7027,2.7027,2.6095,2.443,2.4247,2.3137,1.7129,1.7305,1.7461,1.6738,1.7559,0.0,1.5722,1.5841,1.6252,1.6046,1.5718,1.5833,1.7252,1.8203,1.8642,1.8247,1.9769,2.1306,2.2154,2.233,2.2359,2.2359,2.2579,2.271,2.271,2.2959,2.3106,2.3106,2.3106,2.301,2.2706,2.2763,2.2666,2.2277,2.2277,2.2298,2.2203,2.2432,2.2445,2.2512,2.2752,2.2899,2.2966,2.3207,2.3514,2.3875,2.4102,2.4369,2.4636,2.4636,2.485,2.5184,2.5424,2.5732,2.6066,2.6306,2.6386,2.648,2.7068,2.7268,2.7362,2.7949,2.8136,2.8136,2.8136,2.8136,2.8136,2.8136,2.8136,2.8136,2.8136,2.819,2.8243,2.831,2.8551,2.8858,2.9152,2.9406,2.9633,2.9873,2.9913,2.9734,2.9362,2.9182,2.8822,2.792,2.7367,2.7078,2.6979,2.6653,2.6544,2.6979,2.6798,2.6665,2.6713,2.6665,2.6665,2.6713,2.6918,2.7027,2.7027,2.7027,2.7027,2.7027,2.7027,2.7027,2.7027,2.7027,2.6845,2.647,2.4807,2.3881,1.8574,1.8496,1.8535,1.8086,1.7988,0.0,0.0,1.5521,1.527,1.5589,1.4894,1.4662,1.6126,1.6652,1.6974,1.7282,1.8701,1.993,2.0428,2.1467,2.2184,2.2184,2.2315,2.2403,2.2403,2.255,2.271,2.2857,2.3018,2.2856,2.2355,2.2355,2.2188,2.1578,2.1578,2.1727,2.1764,2.1911,2.2138,2.2418,2.2565,2.2712,2.2859,2.302,2.326,2.3567,2.3861,2.4155,2.4436,2.4569,2.473,2.4903,2.5344,2.5692,2.5999,2.6279,2.6386,2.6453,2.6894,2.7134,2.7335,2.7776,2.8016,2.8136,2.8136,2.8136,2.8136,2.8136,2.8136,2.8136,2.8136,2.8136,2.8177,2.8337,2.8497,2.8684,2.8978,2.9152,2.9299,2.9446,2.9296,2.9034,2.8963,2.8835,2.8462,2.7558,2.7157,2.7084,2.6991,2.6798,2.6725,2.7003,2.6798,2.6689,2.6822,2.6713,2.6701,2.6822,2.6954,2.7027,2.7027,2.7027,2.7027,2.7027,2.7027,2.7027,2.7027,2.7027,2.7027,2.7027,2.5913,2.5548,2.0332,2.0098,2.0098,1.9863,1.8809,1.7668,0.0,0.0,0.0,1.5407,1.4682,1.4184,1.5145,1.5248,1.5452,1.6345,1.7472,1.8189,1.8072,1.9842,2.1247,2.1496,2.1686,2.1832,2.1891,2.1906,2.2081,2.2506,2.2544,2.2457,2.2131,2.2076,2.174,2.1235,2.1109,2.1229,2.147,2.1523,2.1817,2.2338,2.2392,2.2579,2.2859,2.2859,2.3033,2.334,2.3647,2.3941,2.4222,2.4516,2.4636,2.469,2.5277,2.5665,2.5919,2.6266,2.6386,2.6426,2.672,2.7014,2.7308,2.7602,2.7896,2.8136,2.8136,2.8136,2.8136,2.8136,2.8136,2.8136,2.8136,2.8136,2.8203,2.8457,2.8524,2.8604,2.8898,2.8951,2.8965,2.9032,2.8683,2.8328,2.8488,2.8398,2.8051,2.7208,2.7027,2.7027,2.7027,2.7027,2.7027,2.7027,2.6846,2.6798,2.7015,2.6834,2.681,2.7015,2.7027,2.7027,2.7027,2.7027,2.7027,2.7027,2.7027,2.7027,2.7027,2.7027,2.7027,2.7027,2.7027,2.7027,2.2852,2.2988,2.2656,2.0019,2.0625,2.0781,1.6573,0.0,1.6233,1.4558,0.0,1.3492,1.3329,0.0,0.0,1.3565,1.5043,1.6038,1.5467,1.6579,1.7882,1.9038,1.993,2.0574,2.0867,2.0896,2.1262,2.2169,2.1495,2.1317,2.2025,2.1839,2.1614,2.1614,2.1235,2.1122,2.1162,2.1416,2.171,2.2031,2.2298,2.2579,2.2859,2.2859,2.3033,2.334,2.3647,2.3941,2.4222,2.4516,2.4636,2.469,2.5277,2.5531,2.5625,2.6186,2.6386,2.6426,2.672,2.7014,2.7308,2.7602,2.7896,2.8136,2.8136,2.8136,2.8136,2.8136,2.8136,2.8136,2.8136,2.8136,2.815,2.819,2.819,2.8283,2.8591,2.8657,2.8738,2.8991,2.8683,2.8263,2.8055,2.7737,2.7287,2.6991,2.7027,2.7027,2.7027,2.7027,2.7027,2.7027,2.7003,2.7003,2.7027,2.7003,2.7003,2.7027,2.7027,2.7027,2.7027,2.7027,2.7027,2.7027,2.7027,2.7027,2.7027,2.7027,2.7027,2.7027,2.7027,2.7027,2.334,2.3457,2.3242,2.0977,2.0703,2.0215,1.7227,1.6211,1.5613,1.4726,0.0,0.0,0.0,0.0,0.0,0.0,1.4136,1.4692,1.4428,1.5174,1.6287,1.7765,1.813,1.8628,1.952,1.9769,2.0281,2.1262,2.0798,2.0802,2.1562,2.1547,2.1548,2.1362,2.1109,2.1109,2.1109,2.1229,2.1443,2.1737,2.2031,2.2325,2.2605,2.2779,2.2939,2.3086,2.3567,2.3834,2.3981,2.4449,2.4636,2.4676,2.5104,2.5371,2.5558,2.5985,2.6239,2.6413,2.6533,2.6881,2.7348,2.7802,2.8043,2.8136,2.8136,2.8136,2.8136,2.8136,2.8136,2.8136,2.8136,2.8136,2.8136,2.8136,2.8136,2.8177,2.831,2.8337,2.8377,2.8168,2.7839,2.7413,2.7172,2.7309,2.7201,2.6785,2.693,2.7027,2.7027,2.7027,2.7027,2.7027,2.7027,2.7027,2.7027,2.7027,2.7027,2.7027,2.7027,2.7027,2.7027,2.7027,2.7027,2.7027,2.7027,2.7027,2.7027,2.7027,2.7027,2.7027,2.7027,2.7027,2.4238,2.4277,2.3945,2.1621,2.0566,1.9551,1.748,1.6478,1.5799,1.5495,1.4883,0.0,0.0,0.0,1.2745,1.3272,0.0,1.3653,1.3477,1.3857,1.4735,1.636,1.6652,1.7121,1.816,1.8321,1.8862,2.0106,1.9599,1.9814,2.0977,2.1185,2.1177,2.1101,2.1069,2.1109,2.1109,2.1109,2.1256,2.155,2.1844,2.2138,2.2432,2.2726,2.2859,2.2899,2.35,2.3768,2.3808,2.4396,2.4636,2.4663,2.4877,2.5184,2.5545,2.5852,2.6146,2.6386,2.6386,2.6774,2.7348,2.7856,2.8083,2.8136,2.8136,2.8136,2.8136,2.8136,2.8136,2.8136,2.8136,2.8136,2.8136,2.8136,2.8136,2.8136,2.8136,2.815,2.7981,2.7643,2.6965,2.6519,2.6376,2.6684,2.69,2.6629,2.6858,2.7027,2.7027,2.7027,2.7027,2.7027,2.7027,2.7027,2.7027,2.7027,2.7003,2.693,2.6918,2.6918,2.6918,2.6918,2.6954,2.7027,2.7027,2.7027,2.7027,2.7027,2.7027,2.7027,2.7027,2.7027,2.6406,2.6289,2.5391,2.1543,2.0566,1.9766,1.6841,1.7051,1.7677,1.6991,1.7093,1.6978,1.5819,1.4729,1.3726,1.3126,1.3038,0.0,0.0,1.2051,1.2731,1.437,1.5643,1.6521,1.6978,1.6374,1.6813,1.8701,1.7669,1.8058,2.063,2.0397,2.051,2.1177,2.1088,2.1109,2.1109,2.1109,2.1256,2.155,2.1844,2.2138,2.2432,2.2726,2.2859,2.2899,2.35,2.3768,2.3808,2.4396,2.4636,2.4636,2.4649,2.501,2.5545,2.5852,2.6146,2.6386,2.6386,2.6774,2.7321,2.7615,2.7909,2.8136,2.8136,2.8136,2.8136,2.8136,2.8136,2.8136,2.8136,2.8136,2.8136,2.8136,2.8136,2.8136,2.8136,2.7812,2.7487,2.7487,2.6783,2.6103,2.6116,2.6227,2.6327,2.6592,2.6858,2.7027,2.7027,2.7027,2.7027,2.7027,2.7027,2.7027,2.7027,2.7027,2.6918,2.6665,2.6653,2.6653,2.6653,2.6653,2.6773,2.7027,2.7027,2.7027,2.7027,2.7027,2.7027,2.7027,2.7027,2.7027,0.0,0.0,2.6914,2.3867,2.248,2.1133,1.8398,1.8555,1.8807,1.7246,1.8115,1.8708,1.6869,1.5605,1.4719,1.4252,1.3314,1.2453,0.0,1.1531,1.1765,1.2745,1.4194,1.5072,1.497,1.5145,1.5979,1.7691,1.7051,1.757,1.9949,2.0007,2.0199,2.0902,2.0899,2.0909,2.1109,2.1109,2.1162,2.1269,2.175,2.2031,2.2151,2.2645,2.2859,2.2886,2.33,2.3594,2.3794,2.4195,2.4462,2.4636,2.4636,2.4997,2.5518,2.5625,2.5972,2.6413,2.6613,2.6934,2.7308,2.7602,2.7896,2.8136,2.8136,2.8136,2.8136,2.8136,2.8136,2.8136,2.8136,2.8136,2.8136,2.8136,2.8136,2.8136,2.8136,2.7812,2.7487,2.7135,2.6443,2.5933,2.5775,2.5723,2.6049,2.6327,2.6749,2.7027,2.7027,2.7027,2.6966,2.6785,2.693,2.6882,2.652,2.6496,2.646,2.6363,2.6363,2.6447,2.6629,2.6641,2.6761,2.7027,2.7027,2.7027,2.7027,2.7027,2.7027,2.7027,2.7027,2.7027,2.8144,2.832,0.0,2.5488,2.4277,2.2949,2.0176,2.0332,2.0585,1.8995,1.9279,1.9495,1.8568,1.6648,1.5109,1.5062,1.3681,1.2394,0.0,1.1269,1.1224,1.1648,1.2819,1.3653,1.3799,1.3872,1.4765,1.6828,1.6235,1.6809,1.9178,1.9371,1.9794,2.0347,2.0561,2.0815,2.1109,2.1109,2.1109,2.1122,2.171,2.1991,2.2004,2.2592,2.2859,2.2886,2.3193,2.35,2.3794,2.4088,2.4369,2.4636,2.4636,2.493,2.5371,2.5478,2.5879,2.6413,2.66,2.6934,2.7295,2.7482,2.7816,2.8136,2.8136,2.8136,2.8136,2.8136,2.8136,2.8136,2.8136,2.8136,2.8136,2.8136,2.8136,2.8136,2.7981,2.7643,2.7135,2.6613,2.6103,2.5775,2.5433,2.5651,2.5892,2.6061,2.6544,2.6894,2.6894,2.6966,2.6966,2.6798,2.6846,2.6713,2.6254,2.6218,2.6182,2.6085,2.6073,2.6158,2.6339,2.6447,2.6616,2.6882,2.6979,2.7027,2.7027,2.7027,2.7027,2.7027,2.7027,2.7027]},{"header":{"parameterUnit":"m.s-1","parameterCategory":1,"la1":30.6,"la2":29.2853,"lo1":-89.7004,"lo2":-87.6739,"dy":0.0162,"dx":0.0183,"nx":112,"ny":82,"refTime":"2025-12-17T12:00:00:Z","depth":0,"parameterNumber":3,"parameterNumberName":"V-component_of_WINDS"},"data":[0.0,0.0,0.0,0.0,0.0,0.0,0.0,0.0,0.0,0.0,0.0,0.0,0.0,0.0,0.0,0.0,0.0,0.0,0.0,0.0,0.0,0.0,0.0,0.0,0.0,0.0,0.0,0.0,0.0,0.0,0.0,0.0,0.0,0.0,0.0,0.0,0.0,0.0,0.0,0.0,0.0,0.0,0.0,0.0,0.0,0.0,0.0,0.0,0.0,0.0,0.0,0.0,0.0,0.0,0.0,0.0,0.0,0.0,0.0,0.0,0.0,0.0,0.0,0.0,0.0,0.0,0.0,0.0,0.0,0.0,0.0,0.0,0.0,0.0,0.0,0.0,0.0,0.0,0.0,0.0,0.0,0.0,0.0,0.0,0.0,0.0,0.0,0.0,0.0,0.0,-4.5324,-5.0592,-5.6342,-5.9596,-5.9158,-5.8116,-5.4409,-4.715,0.0,0.0,0.0,0.0,0.0,0.0,0.0,0.0,0.0,0.0,0.0,0.0,0.0,0.0,0.0,0.0,0.0,0.0,0.0,0.0,0.0,0.0,0.0,0.0,0.0,0.0,0.0,0.0,0.0,0.0,0.0,0.0,0.0,0.0,0.0,0.0,0.0,0.0,0.0,0.0,0.0,0.0,0.0,0.0,0.0,0.0,0.0,0.0,0.0,0.0,0.0,0.0,0.0,0.0,0.0,0.0,0.0,0.0,0.0,0.0,0.0,0.0,0.0,0.0,0.0,0.0,0.0,0.0,0.0,0.0,0.0,0.0,0.0,0.0,0.0,0.0,0.0,0.0,0.0,0.0,0.0,0.0,0.0,0.0,0.0,0.0,0.0,0.0,0.0,0.0,0.0,0.0,0.0,0.0,0.0,0.0,0.0,0.0,0.0,0.0,0.0,0.0,0.0,0.0,-4.5904,-5.4828,-5.8212,-5.9596,-5.9158,-5.7046,-5.3454,-4.7952,0.0,0.0,0.0,0.0,0.0,0.0,0.0,0.0,0.0,0.0,0.0,0.0,0.0,0.0,0.0,0.0,0.0,0.0,0.0,0.0,0.0,0.0,0.0,0.0,0.0,0.0,0.0,0.0,0.0,0.0,0.0,0.0,0.0,0.0,0.0,0.0,0.0,0.0,0.0,0.0,0.0,0.0,0.0,0.0,0.0,0.0,0.0,0.0,0.0,0.0,0.0,0.0,0.0,0.0,0.0,0.0,0.0,0.0,0.0,0.0,0.0,0.0,0.0,0.0,0.0,0.0,0.0,0.0,0.0,0.0,0.0,0.0,0.0,0.0,0.0,0.0,0.0,0.0,0.0,0.0,0.0,0.0,0.0,0.0,0.0,0.0,0.0,0.0,0.0,0.0,0.0,0.0,0.0,0.0,0.0,0.0,0.0,0.0,0.0,0.0,0.0,0.0,0.0,-4.5127,-4.9664,-5.7008,-5.9185,-5.9845,-5.9158,-5.6855,-5.3034,-4.7455,-4.31,0.0,0.0,0.0,0.0,0.0,0.0,0.0,0.0,0.0,0.0,0.0,0.0,0.0,0.0,0.0,0.0,0.0,0.0,0.0,0.0,0.0,0.0,0.0,0.0,0.0,0.0,0.0,0.0,0.0,0.0,0.0,0.0,0.0,0.0,0.0,0.0,0.0,0.0,0.0,0.0,0.0,0.0,0.0,0.0,0.0,0.0,0.0,0.0,0.0,0.0,0.0,0.0,0.0,0.0,0.0,0.0,0.0,0.0,0.0,0.0,0.0,0.0,0.0,0.0,0.0,0.0,0.0,0.0,0.0,0.0,0.0,0.0,0.0,0.0,0.0,0.0,0.0,0.0,0.0,0.0,0.0,0.0,0.0,0.0,0.0,0.0,0.0,0.0,0.0,0.0,0.0,0.0,0.0,0.0,0.0,0.0,0.0,0.0,0.0,0.0,0.0,0.0,-5.0783,-5.3654,-5.8369,-5.9625,-5.9759,-5.888,-5.5785,-5.1697,-4.6538,-4.0731,0.0,0.0,0.0,0.0,0.0,0.0,0.0,0.0,0.0,0.0,0.0,0.0,0.0,0.0,0.0,0.0,0.0,0.0,0.0,0.0,0.0,0.0,0.0,0.0,0.0,0.0,0.0,0.0,0.0,0.0,0.0,0.0,0.0,0.0,0.0,0.0,0.0,0.0,0.0,0.0,0.0,0.0,0.0,0.0,0.0,0.0,0.0,0.0,0.0,0.0,0.0,0.0,0.0,0.0,0.0,0.0,0.0,0.0,0.0,0.0,0.0,0.0,0.0,0.0,0.0,0.0,0.0,0.0,0.0,0.0,0.0,0.0,0.0,0.0,0.0,0.0,0.0,0.0,0.0,0.0,0.0,0.0,0.0,0.0,0.0,0.0,0.0,0.0,0.0,0.0,0.0,0.0,0.0,0.0,0.0,0.0,0.0,0.0,0.0,0.0,0.0,0.0,-5.172,-5.6417,-5.9398,-5.9405,-5.888,-5.8039,-5.2805,-4.8334,-4.5545,-3.7674,0.0,0.0,0.0,0.0,0.0,0.0,0.0,0.0,0.0,0.0,0.0,0.0,0.0,0.0,0.0,0.0,0.0,0.0,0.0,0.0,0.0,0.0,0.0,0.0,0.0,0.0,0.0,0.0,0.0,0.0,0.0,0.0,0.0,0.0,0.0,0.0,0.0,0.0,0.0,0.0,0.0,0.0,0.0,0.0,0.0,0.0,0.0,0.0,0.0,0.0,0.0,0.0,0.0,0.0,0.0,0.0,0.0,0.0,0.0,0.0,0.0,0.0,0.0,0.0,0.0,0.0,0.0,0.0,0.0,0.0,0.0,0.0,0.0,0.0,0.0,0.0,0.0,0.0,0.0,0.0,0.0,0.0,0.0,0.0,0.0,0.0,0.0,0.0,0.0,0.0,0.0,0.0,0.0,0.0,0.0,0.0,0.0,0.0,0.0,0.0,0.0,0.0,-5.0303,-5.485,-5.8919,-5.9216,-5.8765,-5.7963,-5.4409,-5.0015,-4.4819,0.0,0.0,0.0,0.0,0.0,0.0,0.0,0.0,0.0,0.0,0.0,0.0,0.0,0.0,0.0,0.0,0.0,0.0,0.0,0.0,0.0,0.0,0.0,0.0,0.0,0.0,0.0,0.0,0.0,0.0,0.0,0.0,0.0,0.0,0.0,0.0,0.0,0.0,0.0,0.0,0.0,0.0,0.0,0.0,0.0,0.0,0.0,0.0,0.0,0.0,0.0,0.0,0.0,0.0,0.0,0.0,0.0,0.0,0.0,0.0,0.0,0.0,0.0,0.0,0.0,0.0,0.0,0.0,0.0,0.0,0.0,0.0,0.0,0.0,0.0,0.0,0.0,0.0,0.0,0.0,0.0,0.0,0.0,0.0,0.0,0.0,0.0,0.0,0.0,0.0,0.0,0.0,0.0,0.0,0.0,0.0,0.0,0.0,0.0,0.0,0.0,0.0,-4.4971,-5.032,-5.4919,-5.871,-5.9109,-5.8765,-5.7963,-5.46,-5.0092,-4.436,0.0,0.0,0.0,0.0,0.0,0.0,0.0,0.0,0.0,0.0,0.0,0.0,0.0,0.0,0.0,0.0,0.0,0.0,0.0,0.0,0.0,0.0,0.0,0.0,0.0,0.0,0.0,0.0,0.0,0.0,0.0,0.0,0.0,0.0,0.0,0.0,0.0,0.0,0.0,0.0,0.0,0.0,0.0,0.0,0.0,0.0,0.0,0.0,0.0,0.0,0.0,0.0,0.0,0.0,0.0,0.0,0.0,0.0,0.0,0.0,0.0,0.0,0.0,0.0,0.0,0.0,0.0,0.0,0.0,0.0,0.0,0.0,0.0,0.0,0.0,0.0,0.0,0.0,0.0,0.0,0.0,0.0,0.0,0.0,0.0,0.0,0.0,0.0,0.0,0.0,0.0,0.0,0.0,0.0,0.0,0.0,0.0,0.0,0.0,0.0,0.0,0.0,-4.5273,-5.2284,-5.7385,-5.8939,-5.9109,-5.8765,-5.7963,-5.2499,-4.7685,0.0,0.0,0.0,0.0,0.0,0.0,0.0,0.0,0.0,0.0,0.0,0.0,0.0,0.0,0.0,0.0,0.0,0.0,0.0,0.0,0.0,0.0,0.0,0.0,0.0,0.0,0.0,0.0,0.0,0.0,0.0,0.0,0.0,0.0,0.0,0.0,0.0,0.0,0.0,0.0,0.0,0.0,0.0,0.0,0.0,0.0,0.0,0.0,0.0,0.0,0.0,0.0,0.0,0.0,0.0,0.0,0.0,0.0,0.0,0.0,0.0,0.0,0.0,0.0,0.0,0.0,0.0,0.0,0.0,0.0,0.0,0.0,0.0,0.0,0.0,0.0,0.0,0.0,0.0,0.0,0.0,0.0,0.0,0.0,0.0,0.0,0.0,0.0,0.0,0.0,0.0,0.0,0.0,0.0,0.0,0.0,0.0,0.0,0.0,0.0,0.0,0.0,0.0,-4.5348,-5.2774,-5.8027,-5.9015,-5.9109,-5.8765,-5.7963,-5.4104,-4.9251,-4.352,0.0,0.0,0.0,0.0,0.0,0.0,0.0,0.0,0.0,0.0,0.0,0.0,0.0,0.0,0.0,0.0,0.0,0.0,0.0,0.0,0.0,0.0,0.0,0.0,0.0,0.0,0.0,0.0,0.0,0.0,0.0,0.0,0.0,0.0,0.0,0.0,0.0,0.0,0.0,0.0,0.0,0.0,0.0,0.0,0.0,0.0,0.0,0.0,0.0,0.0,0.0,0.0,0.0,0.0,0.0,0.0,0.0,0.0,0.0,0.0,0.0,0.0,0.0,0.0,0.0,0.0,0.0,0.0,0.0,0.0,0.0,0.0,0.0,0.0,0.0,0.0,0.0,0.0,0.0,0.0,0.0,0.0,0.0,0.0,0.0,0.0,0.0,0.0,0.0,0.0,0.0,0.0,0.0,0.0,0.0,0.0,0.0,0.0,0.0,0.0,0.0,0.0,-4.5386,-5.2967,-5.8291,-5.9015,-5.9415,-5.9147,-5.8001,-5.5403,-5.0971,-4.4208,0.0,0.0,0.0,0.0,0.0,0.0,0.0,0.0,0.0,0.0,0.0,0.0,0.0,0.0,0.0,0.0,0.0,0.0,0.0,0.0,0.0,0.0,0.0,0.0,0.0,0.0,0.0,0.0,0.0,0.0,0.0,0.0,0.0,0.0,0.0,0.0,0.0,0.0,0.0,0.0,0.0,0.0,0.0,0.0,0.0,0.0,0.0,0.0,0.0,0.0,0.0,0.0,0.0,0.0,0.0,0.0,0.0,0.0,0.0,0.0,0.0,0.0,0.0,0.0,0.0,0.0,0.0,0.0,0.0,0.0,0.0,0.0,0.0,0.0,0.0,0.0,0.0,0.0,0.0,0.0,0.0,0.0,0.0,0.0,0.0,0.0,0.0,0.0,0.0,0.0,0.0,0.0,0.0,0.0,0.0,0.0,0.0,0.0,0.0,0.0,0.0,0.0,-4.5612,-5.3118,-5.8404,-5.9168,-5.9911,-5.9759,-5.8154,-5.6396,-5.2614,-4.608,0.0,0.0,0.0,0.0,0.0,0.0,0.0,0.0,0.0,0.0,0.0,0.0,0.0,0.0,0.0,0.0,0.0,0.0,0.0,0.0,0.0,0.0,0.0,0.0,0.0,0.0,0.0,0.0,0.0,0.0,0.0,0.0,0.0,0.0,0.0,0.0,0.0,0.0,0.0,0.0,0.0,0.0,0.0,0.0,0.0,0.0,0.0,0.0,0.0,0.0,0.0,0.0,0.0,0.0,0.0,0.0,0.0,0.0,0.0,0.0,-3.9681,-3.6806,0.0,0.0,0.0,0.0,0.0,0.0,0.0,0.0,0.0,0.0,0.0,0.0,0.0,0.0,0.0,0.0,0.0,0.0,0.0,0.0,0.0,0.0,0.0,0.0,0.0,0.0,0.0,0.0,0.0,0.0,0.0,0.0,0.0,0.0,0.0,0.0,0.0,0.0,0.0,0.0,-4.7194,-5.4322,-5.9238,-6.0046,-6.0293,-5.9988,-5.8918,-5.674,-5.3378,-4.8602,-4.2908,0.0,0.0,0.0,0.0,0.0,0.0,0.0,0.0,0.0,0.0,0.0,0.0,0.0,0.0,0.0,0.0,0.0,0.0,0.0,0.0,0.0,0.0,0.0,0.0,0.0,0.0,0.0,0.0,0.0,0.0,0.0,0.0,0.0,0.0,0.0,0.0,0.0,0.0,0.0,0.0,0.0,0.0,0.0,0.0,0.0,0.0,0.0,0.0,0.0,0.0,0.0,0.0,0.0,0.0,0.0,0.0,0.0,0.0,0.0,-4.4857,-4.2083,0.0,0.0,0.0,0.0,0.0,0.0,0.0,0.0,0.0,0.0,0.0,0.0,0.0,0.0,0.0,0.0,0.0,0.0,0.0,0.0,0.0,0.0,0.0,0.0,0.0,0.0,0.0,0.0,0.0,0.0,0.0,0.0,0.0,0.0,0.0,0.0,0.0,0.0,0.0,0.0,-4.7758,-5.4861,-5.9706,-6.0342,-6.0408,-6.0064,-5.9185,-5.7581,-5.4944,-5.1123,-4.6118,0.0,0.0,0.0,0.0,0.0,0.0,0.0,0.0,0.0,0.0,0.0,0.0,0.0,0.0,0.0,0.0,0.0,0.0,0.0,0.0,0.0,0.0,0.0,0.0,0.0,0.0,0.0,0.0,0.0,0.0,0.0,0.0,0.0,0.0,0.0,0.0,0.0,0.0,0.0,0.0,0.0,0.0,0.0,0.0,0.0,0.0,0.0,0.0,0.0,0.0,0.0,0.0,0.0,-5.0787,-5.1894,-5.2266,-5.3687,-5.4296,-5.4093,-5.1014,-4.8883,-4.7327,-4.4079,0.0,0.0,0.0,0.0,0.0,0.0,0.0,0.0,0.0,0.0,0.0,0.0,0.0,0.0,0.0,0.0,0.0,0.0,0.0,0.0,0.0,0.0,-4.6396,-4.8265,-5.0321,-4.9738,-4.2103,0.0,0.0,0.0,0.0,0.0,0.0,0.0,0.0,0.0,0.0,0.0,-4.8485,-5.5352,-5.9937,-6.0342,-6.0408,-6.0102,-5.9376,-5.8574,-5.6855,-5.3874,-4.9748,-4.608,0.0,0.0,0.0,0.0,0.0,0.0,0.0,0.0,0.0,0.0,0.0,0.0,0.0,0.0,0.0,0.0,0.0,0.0,0.0,0.0,0.0,0.0,0.0,0.0,0.0,0.0,0.0,0.0,0.0,0.0,0.0,0.0,-3.5338,-3.6257,0.0,0.0,0.0,0.0,0.0,0.0,0.0,0.0,0.0,0.0,0.0,0.0,0.0,-4.6832,-4.9127,-5.3784,-5.5883,-5.5612,-6.0317,-6.1907,-6.0791,-6.1637,-6.2042,-6.2009,-6.1535,0.0,-5.0541,-4.939,0.0,0.0,0.0,0.0,0.0,0.0,0.0,0.0,0.0,0.0,0.0,0.0,0.0,0.0,0.0,0.0,0.0,0.0,0.0,0.0,0.0,0.0,-5.5978,-5.5611,-5.5757,-5.5317,-5.2747,-4.6104,-3.9827,-3.7074,-3.4871,-3.2852,0.0,0.0,0.0,0.0,0.0,0.0,-5.1168,-5.6505,-5.9937,-6.0342,-6.0408,-6.0332,-6.0217,-5.9453,-5.8459,-5.7313,-5.3263,-5.0397,-4.9175,-4.3023,0.0,0.0,0.0,0.0,0.0,0.0,0.0,0.0,0.0,0.0,0.0,0.0,0.0,0.0,0.0,0.0,0.0,0.0,0.0,0.0,0.0,0.0,0.0,0.0,0.0,0.0,0.0,0.0,0.0,-3.479,-3.7872,-3.6444,-3.7269,-3.635,0.0,0.0,0.0,0.0,0.0,0.0,0.0,0.0,0.0,-5.1151,-5.1858,-5.3774,-5.715,-5.9768,-6.1095,-6.1231,-6.3937,-6.4884,-6.4275,-6.5019,-6.5366,-6.5402,-6.5402,-6.3377,-5.9701,-5.5144,-5.0236,-4.5422,0.0,0.0,0.0,0.0,-4.4752,-4.5559,-4.9746,-5.052,-4.9631,-4.9104,0.0,0.0,0.0,0.0,0.0,0.0,0.0,-4.6577,-5.0167,-5.4209,-5.7703,-5.9134,-5.9501,-5.9171,-5.8033,-5.3995,-4.893,-4.3314,-4.1332,-3.9056,-3.4247,-3.4284,0.0,0.0,0.0,-4.8926,-5.3908,-5.7786,-6.0379,-6.1019,-6.0676,-6.0408,-6.0408,-6.0064,-5.9453,-5.8651,-5.6396,-5.4562,-5.3225,-4.8487,-4.4437,0.0,0.0,0.0,0.0,0.0,0.0,0.0,0.0,0.0,0.0,0.0,0.0,0.0,0.0,0.0,0.0,0.0,0.0,0.0,0.0,0.0,0.0,0.0,0.0,0.0,0.0,0.0,0.0,-3.7698,-3.9986,-3.74,-3.9653,-3.9385,0.0,0.0,0.0,0.0,0.0,0.0,-4.7605,-4.8928,-5.2154,-5.7691,-5.8136,-5.99,-6.3497,-6.4072,-6.4647,-6.5155,-6.5943,-6.6262,-6.6296,-6.7087,-6.7467,-6.7461,-6.7461,-6.7387,-6.6813,-6.0323,-5.5549,-5.2042,-5.0263,-4.9288,-4.9081,-5.1387,-5.2585,-5.3677,-5.8161,-5.8988,-5.7913,-5.6573,-5.3675,-4.9952,-4.5566,0.0,0.0,0.0,0.0,-5.0021,-5.4899,-5.74,-5.9318,-6.1924,-6.2401,-6.1998,-6.119,-5.9758,-5.6602,-4.9701,-4.7865,-4.559,-3.9717,-3.99,0.0,-4.2053,-4.7108,-5.2243,-5.6387,-5.9331,-6.1249,-6.186,-6.1211,-6.0714,-6.0714,-6.0523,-6.0102,-5.9491,-5.8651,-5.7657,-5.6396,-5.3301,-4.9824,-4.6042,0.0,0.0,0.0,0.0,0.0,0.0,0.0,0.0,0.0,0.0,0.0,0.0,0.0,0.0,0.0,0.0,0.0,0.0,0.0,0.0,0.0,0.0,0.0,0.0,0.0,0.0,0.0,0.0,0.0,-4.1463,-4.4841,0.0,0.0,0.0,0.0,-4.4781,-4.863,-5.1994,-5.4334,-5.6948,-5.9836,-6.2978,-6.3755,-6.4986,-6.6576,-6.6643,-6.6677,-6.6711,-6.7501,-6.7866,-6.7866,-6.8717,-6.9091,-6.9056,-6.9056,-6.8708,-6.7797,-6.4529,-6.224,-6.0544,-5.8315,-5.7458,-5.7541,-5.8167,-5.8872,-5.9773,-6.1279,-6.1299,-6.0846,-6.2259,-5.9647,-5.5716,-5.4709,-5.2287,0.0,0.0,-5.5477,-5.7941,-6.0566,-6.2475,-6.398,-6.4897,-6.453,-6.3723,-6.2879,-6.141,-5.9245,-5.5757,-5.3261,-5.1059,-4.9114,0.0,-4.746,-4.9684,-5.2397,-5.5328,-5.853,-6.1211,-6.2777,-6.2853,-6.2051,-6.1554,-6.1554,-6.0828,-6.037,-6.0332,-5.9529,-5.8994,-5.8918,-5.6511,-5.3913,-5.1276,-4.6271,0.0,0.0,0.0,0.0,0.0,0.0,0.0,0.0,0.0,0.0,0.0,0.0,0.0,0.0,0.0,0.0,0.0,0.0,0.0,0.0,0.0,0.0,0.0,0.0,0.0,0.0,0.0,0.0,-4.6724,-5.0209,0.0,-4.5828,-4.7934,-4.9957,-5.0722,-5.4682,-5.7992,-6.0358,-6.1829,-6.3768,-6.6271,-6.6136,-6.6508,-6.7489,-6.7564,-6.7569,-6.7569,-6.837,-6.8752,-6.8828,-6.9017,-6.9492,-6.999,-6.999,-7.0056,-7.0207,-6.9125,-6.6952,-6.4136,-6.3322,-6.3013,-6.3208,-6.4291,-6.4924,-6.5285,-6.6293,-6.5772,-6.4432,-6.3021,-6.1079,-5.9219,-5.8518,-5.7558,-5.7188,-5.9139,-6.0359,-6.1508,-6.3466,-6.442,-6.4824,-6.4567,-6.431,-6.387,-6.2989,-6.2365,-6.163,-6.0456,-5.7886,-5.5023,-5.2344,-5.2711,-5.3359,-5.3422,-5.5765,-5.8562,-6.1538,-6.2475,-6.3121,-6.3694,-6.2968,-6.2204,-6.1669,-6.1325,-6.0943,-6.0408,-6.0102,-5.995,-5.995,-5.8039,-5.6078,-5.4077,-5.016,-4.4709,0.0,0.0,0.0,0.0,0.0,0.0,0.0,0.0,0.0,0.0,0.0,0.0,0.0,0.0,0.0,0.0,0.0,0.0,0.0,0.0,0.0,0.0,0.0,0.0,0.0,-4.7281,-5.1587,-5.0497,-5.4338,-5.5444,-5.1366,-5.3795,-5.599,-5.6962,-6.0165,-6.2753,-6.4546,-6.5087,-6.6034,-6.7489,-6.7301,-6.7433,-6.791,-6.8256,-6.837,-6.837,-6.92,-6.9636,-6.9636,-6.9849,-7.0267,-7.0811,-7.0811,-7.1009,-7.1494,-7.1494,-6.9973,-6.771,-6.7454,-6.7474,-6.7788,-6.8548,-6.8959,-6.9213,-6.9502,-6.8706,-6.7207,-6.4637,-6.3512,-6.291,-6.2047,-6.1871,-6.2178,-6.3584,-6.4002,-6.4383,-6.5742,-6.6109,-6.5962,-6.5448,-6.5118,-6.4677,-6.3833,-6.3429,-6.3172,-6.2879,-6.086,-5.8547,-5.6418,-5.7152,-5.7744,-5.6925,-5.8915,-6.1128,-6.3057,-6.3543,-6.3962,-6.4535,-6.3847,-6.3006,-6.2128,-6.1249,-6.0523,-5.9988,-5.9185,-5.8842,-5.9109,-5.7504,-5.5963,-5.456,-5.068,-4.5994,-4.0411,0.0,0.0,0.0,0.0,0.0,0.0,0.0,0.0,0.0,0.0,0.0,0.0,0.0,0.0,0.0,0.0,0.0,0.0,0.0,0.0,0.0,0.0,0.0,-4.5308,-5.0177,-5.3498,-5.3029,-5.7206,-5.9013,-5.6463,-5.9371,-6.2042,-6.3463,-6.4918,-6.6034,-6.6779,-6.6812,-6.6812,-6.6812,-6.7569,-6.8014,-6.8014,-6.8828,-6.9273,-6.9273,-7.006,-7.044,-7.044,-7.1139,-7.1494,-7.1494,-7.1494,-7.1494,-7.1494,-7.1494,-7.1494,-7.1422,-7.0698,-7.0879,-7.1422,-7.0698,-7.0879,-7.1386,-7.0661,-6.9865,-6.902,-6.7542,-6.717,-6.7011,-6.5586,-6.5307,-6.5558,-6.6329,-6.6549,-6.6733,-6.7504,-6.7687,-6.7687,-6.765,-6.7063,-6.6292,-6.5485,-6.4677,-6.387,-6.3025,-6.2218,-6.1667,-6.163,-6.097,-6.049,-6.0525,-6.1881,0.0,-6.2955,-6.4382,-6.5375,-6.5375,-6.4649,-6.3847,-6.293,-6.0561,-5.9109,-5.9071,-5.6778,-5.5785,-5.6549,-5.5021,-5.3722,-5.2867,-4.8022,-4.4729,-4.3133,0.0,0.0,0.0,0.0,0.0,0.0,0.0,0.0,0.0,0.0,0.0,0.0,0.0,0.0,0.0,0.0,0.0,0.0,0.0,0.0,0.0,-4.8044,-5.1665,-5.0757,-5.5035,-5.884,-6.0315,-6.2656,-6.3781,-6.3054,-6.389,-6.4647,-6.5053,-6.5967,-6.6609,-6.6812,-6.6812,-6.7029,-6.765,-6.7856,-6.8327,-6.8903,-6.9636,-7.0095,-7.0095,-7.0878,-7.124,-7.1204,-7.1431,-7.1494,-7.1494,-7.1494,-7.1494,-7.1494,-7.1494,-7.1494,-7.1494,-7.1277,-7.1313,-7.1494,-7.1277,-7.1313,-7.1386,-7.0661,-7.0289,-7.0048,-6.9172,-6.8617,-6.8219,-6.7945,-6.745,-6.71,-6.7283,-6.7357,-6.7393,-6.7614,-6.7687,-6.754,-6.6953,-6.6659,-6.6292,-6.5485,-6.5154,-6.4751,-6.3906,-6.3539,-6.3209,-6.2585,-6.2593,-6.2658,-6.2619,-6.3575,-6.4287,-6.4267,-6.4915,-6.5184,-6.4573,-6.4305,-6.3579,-6.2089,-6.079,-5.9529,-5.8307,-5.7008,-5.6358,-5.6587,-5.5607,-5.4724,-5.3974,-5.0238,-4.7472,0.0,0.0,0.0,0.0,0.0,0.0,0.0,0.0,0.0,0.0,0.0,0.0,0.0,0.0,0.0,0.0,0.0,0.0,0.0,0.0,0.0,0.0,-5.3483,-5.7099,-5.7614,-6.0198,-6.2584,-6.4241,-6.5459,-6.617,-6.617,-6.617,-6.617,-6.617,-6.6576,-6.698,-6.7243,-6.7325,-6.7616,-6.8447,-6.8828,-6.92,-6.9707,-7.044,-7.0878,-7.0878,-7.1304,-7.1494,-7.1494,-7.1494,-7.1494,-7.1494,-7.1494,-7.1494,-7.1494,-7.1494,-7.1494,0.0,0.0,0.0,0.0,0.0,-7.1494,-7.1458,-7.1024,-7.0967,-7.0981,-7.0324,-6.9916,-6.9665,-6.9467,-6.9082,-6.8715,-6.8715,-6.8715,-6.8715,-6.8715,-6.8715,-6.8495,-6.7687,-6.7504,-6.721,-6.6072,-6.5815,-6.5558,-6.4751,-6.4604,0.0,-6.3943,-6.3944,-6.4063,-6.424,-6.482,-6.5224,-6.5057,-6.5252,-6.5222,-6.4764,-6.4688,-6.4153,-6.2777,-6.1287,0.0,0.0,0.0,-5.5275,-5.4574,-5.4407,0.0,0.0,0.0,0.0,0.0,0.0,0.0,0.0,-4.8086,-4.7471,0.0,0.0,0.0,0.0,0.0,0.0,0.0,0.0,0.0,0.0,0.0,0.0,0.0,0.0,0.0,0.0,-5.8152,-6.1603,-6.4606,-6.4932,-6.5087,-6.573,-6.6406,-6.6812,-6.6812,-6.6812,-6.6812,-6.698,-6.698,-6.7277,-6.8093,-6.8172,0.0,0.0,0.0,-7.044,-7.0507,-7.1139,-7.1494,-7.1494,-7.1494,-7.1494,-7.1494,-7.1494,-7.1494,-7.1494,-7.1494,-7.1494,-7.1494,-7.1494,-7.1494,-7.1494,-7.1494,-7.1494,-7.1494,-7.1494,-7.1494,-7.1494,-7.1494,0.0,0.0,-7.1126,-7.1012,-7.0982,-7.0384,-7.0183,-7.011,-7.011,-7.011,-7.011,-7.011,-7.011,-6.9926,-6.9229,-6.9045,-6.8641,-6.71,-6.6769,-6.6512,-6.5632,-6.5448,-6.5448,-6.5448,-6.509,-6.4972,-6.5282,-6.5804,-6.6015,-6.5664,-6.565,-6.5643,-6.5566,0.0,0.0,-6.4267,-6.1936,-6.0485,-6.0408,-5.6778,-5.4039,-5.2617,-5.3345,-5.3836,-5.3985,-5.5561,-5.7159,-5.8742,-5.9627,-6.0935,-6.232,-5.3703,-5.2164,0.0,0.0,0.0,0.0,0.0,0.0,0.0,0.0,0.0,0.0,0.0,0.0,0.0,0.0,0.0,-5.6664,-6.0892,-6.4585,-6.7044,-6.6753,-6.644,-6.6576,-6.6711,-6.6812,-6.6812,-6.6812,-6.7029,-6.7731,-6.7776,-6.8093,-6.8868,-6.8978,-6.9347,-7.0165,-7.0303,-7.0678,-7.1304,-7.1431,-7.1494,-7.1494,-7.1494,0.0,-7.1494,-7.1494,-7.1494,-7.1494,-7.1494,-7.1494,-7.1494,-7.1494,-7.1494,-7.1494,-7.1494,-7.1494,-7.1494,-7.1494,-7.1494,-7.1494,-7.1494,-7.1656,-7.178,-7.1745,-7.1487,-7.1092,-7.1081,-7.0624,0.0,-7.011,-7.011,-7.011,-7.011,-7.011,-7.0073,-6.9889,-6.9853,-6.9596,-6.8641,-6.8458,-6.8017,-6.6549,-6.6256,-6.6256,-6.6256,-6.594,-6.5682,-6.5775,-6.6473,-6.6935,-6.6855,-6.7169,-6.7171,-6.6522,-6.5834,-6.507,-6.4267,-6.2471,-6.1096,-6.0446,-5.901,-5.8094,-5.7838,-5.8717,-5.9226,-5.9296,-6.0319,-6.105,-6.1358,-6.2897,-6.4166,-6.5051,-6.1204,-6.0281,0.0,0.0,0.0,0.0,0.0,0.0,0.0,0.0,0.0,0.0,0.0,-4.6684,-5.0101,0.0,-5.7484,-6.1257,-6.4025,-6.6426,-6.835,-6.8215,-6.7856,-6.7407,-6.7029,-6.698,-6.7325,-6.7407,-6.7696,-6.8524,-6.86,-6.8978,-6.9778,-6.9778,-7.0129,-7.0943,-7.0943,-7.1139,-7.1494,-7.1494,-7.1494,-7.1494,-7.1494,-7.1494,-7.1494,-7.1494,-7.1494,-7.1494,-7.1494,-7.1494,-7.1531,-7.1929,-7.211,-7.2146,-7.2545,-7.2219,-7.1494,-7.1494,-7.1494,-7.1494,-7.1494,-7.1718,-7.1903,-7.1964,-7.1948,-7.1793,-7.1851,-7.1615,-7.1284,-7.1284,-7.1284,-7.1284,-7.1284,-7.1284,-7.1211,-7.0807,-7.0697,-7.0477,-6.9669,-6.9486,-6.9265,-6.8458,-6.7981,-6.7687,-6.7687,-6.72,-6.6914,-6.712,-6.7348,-6.7579,-6.7846,-6.7648,-6.7512,-6.7293,-6.6904,-6.6483,-6.6101,-6.4879,-6.3618,-6.2357,-6.1945,-6.1605,-6.1237,-6.2119,-6.2656,-6.2704,-6.3935,-6.4589,-6.4589,-6.5897,-6.7167,-6.8359,-6.709,-6.6513,0.0,0.0,0.0,0.0,0.0,0.0,0.0,-4.2247,-4.3538,-4.7293,-4.983,-5.2603,-5.6503,-5.8914,-6.1661,-6.5786,-6.7011,-6.7863,-6.9452,-6.9417,-6.9052,-6.8524,-6.7776,-6.7488,-6.8172,-6.8215,-6.86,-6.9419,-6.9384,-6.9778,-7.0575,-7.0575,-7.0878,-7.1494,-7.1494,-7.1494,-7.1494,-7.1494,-7.1494,-7.1494,-7.1494,-7.1494,-7.1494,-7.1494,-7.1494,-7.1494,-7.1494,-7.1603,-7.1784,-7.2436,-7.2798,-7.3016,-7.3667,-7.3124,-7.1965,-7.1965,-7.1965,-7.1929,-7.1784,-7.1936,-7.2182,-7.2061,-7.2204,-7.2438,-7.2496,-7.2496,-7.2496,-7.2496,-7.2496,-7.2496,-7.2496,-7.2496,-7.2349,-7.1688,-7.1541,-7.1321,-7.0513,-7.033,-7.0293,-7.011,-6.9596,-6.9119,-6.9119,-6.8605,-6.8178,-6.8272,-6.8082,-6.8077,-6.8407,-6.8035,-6.784,-6.8226,-6.8209,-6.8088,-6.7897,-6.7324,-6.6369,-6.4993,-6.5035,-6.4785,-6.4112,-6.4845,-6.5423,-6.582,-6.7167,-6.8013,-6.8359,-6.9052,-7.009,-7.1398,-7.1398,-7.1052,-3.884,-3.9145,-4.0729,-4.1954,-4.2454,-4.4643,0.0,-5.2334,-5.1995,-5.575,-5.8355,-6.0476,-6.2419,-6.3974,-6.5855,-6.8527,-6.8951,-6.9487,-7.109,-7.006,-6.9419,-7.0095,-6.9419,-6.8978,-6.9052,-6.9052,-6.9419,-7.0234,-7.0234,-7.0575,-7.1368,-7.1368,-7.1431,-7.1494,-7.1494,-7.1494,-7.1494,-7.1494,-7.1494,-7.1494,-7.1494,-7.1494,-7.1494,-7.1494,-7.1494,-7.1494,-7.1494,-7.1929,-7.2581,-7.2653,-7.3124,-7.3776,-7.3885,-7.3812,-7.3631,-7.3631,-7.3631,-7.3559,-7.2834,-7.2708,-7.2824,-7.2182,-7.2144,-7.2358,-7.2438,-7.2496,-7.2496,-7.2496,-7.2496,-7.2496,-7.2496,-7.2496,-7.2496,-7.2386,-7.2386,-7.2165,-7.1358,-7.1174,-7.0954,-7.022,-7.0036,-6.9963,-6.9963,-6.9889,-6.9339,-6.8015,-6.8074,-6.8342,-6.8389,-6.9035,-6.9512,-6.9587,-6.9264,-6.8738,-6.7973,-6.7821,-6.7668,-6.7477,-6.7667,-6.7717,-6.764,-6.7856,-6.8667,-7.0167,-7.0398,-7.1245,-7.2783,-7.2899,-7.3053,-7.3206,-7.3206,-7.3168,-4.5534,-4.5653,-4.6435,-4.8219,-4.9852,-5.2034,-5.598,-5.6525,-5.7036,-5.9911,-6.2293,-6.4221,-6.5324,-6.678,-6.8383,-7.0309,-7.0239,-7.0414,-7.2022,-7.0919,-6.9818,-6.9713,-6.9777,-6.9872,-6.9884,-6.992,-7.0234,-7.1009,-7.1009,-7.1139,-7.1494,-7.1494,-7.1494,-7.1494,-7.1494,-7.1494,-7.1494,-7.1494,-7.1494,-7.1494,-7.1494,-7.1494,-7.1494,-7.1494,-7.1748,-7.2219,-7.269,-7.3088,-7.345,-7.3921,-7.4319,-7.4645,-7.5116,-7.5297,-7.5189,-7.4247,-7.3986,-7.4014,-7.3652,-7.3733,-7.3946,-7.3642,-7.3653,-7.3832,-7.3891,-7.356,-7.3193,-7.3193,-7.3193,-7.3083,-7.2606,-7.2863,-7.3083,-7.2606,-7.2496,-7.2422,-7.2092,-7.2018,-7.1908,-7.1578,-7.1138,-7.0807,-7.0807,-7.0403,-6.9853,-6.9192,-6.9262,-6.9488,-6.9756,-7.0107,-7.0417,-7.0496,-6.9927,-6.9497,-6.9355,-6.9349,-6.9419,-6.9451,-7.0072,-7.0431,-7.0489,-7.1035,-7.1706,-7.2399,-7.2399,-7.2783,-7.3514,-7.3514,-7.3745,-7.4207,-7.4207,-7.4476,-4.8694,-4.9593,-5.0995,-5.2934,-5.5554,-5.7958,-5.9085,-5.9971,-6.1138,-6.3203,-6.5113,-6.6685,-6.7661,-6.8814,-6.9955,-7.1372,-7.1112,-7.1098,-7.2257,-7.1223,-7.0082,-6.9285,-6.9502,-6.9751,-6.9741,-7.0284,-7.0943,-7.1431,-7.1494,-7.1494,-7.1494,-7.1494,-7.1494,-7.1494,-7.1494,-7.1494,-7.1494,-7.1494,-7.1494,-7.1494,-7.1494,-7.1494,-7.1531,-7.1748,-7.2146,-7.2762,-7.3559,-7.403,-7.4283,-7.4863,-7.5261,-7.5515,-7.6058,-7.6275,-7.6167,-7.5008,-7.4638,-7.4769,-7.4615,-7.4696,-7.4909,-7.4751,-7.4799,-7.4918,-7.4918,-7.4478,-7.4037,-7.4037,-7.4037,-7.3891,-7.3303,-7.3597,-7.3891,-7.3303,-7.3156,-7.312,-7.2899,-7.2826,-7.2789,-7.2532,-7.2055,-7.1651,-7.1651,-7.1138,-7.077,-7.077,-7.077,-7.0754,-7.0613,-7.0745,-7.0976,-7.1289,-7.0839,-7.0649,-7.1073,-7.1107,-7.1178,-7.1274,-7.1942,-7.2349,-7.2438,-7.3111,-7.3591,-7.3822,-7.3822,-7.3937,-7.4207,-7.4207,-7.4476,-7.5053,-7.5053,-7.5515,-4.5491,-4.8727,-5.3171,-5.4749,-5.7943,-6.1267,-6.291,-6.3903,-6.4856,-6.6445,-6.7394,-6.8412,-6.9954,-7.0371,-7.0621,-7.1442,-7.1549,-7.1492,-7.1616,-7.093,-7.0082,-6.9285,-6.8525,-6.809,-6.803,-7.0092,-7.1494,-7.1494,-7.1494,-7.1494,-7.1494,-7.1494,-7.1494,-7.1494,-7.1494,-7.1494,-7.1494,-7.1494,-7.1494,-7.1494,-7.1494,-7.1494,-7.1531,-7.2327,-7.269,-7.2762,-7.3559,-7.4356,-7.508,-7.5116,-7.5551,-7.6275,-7.6275,-7.6275,-7.6275,-7.6239,-7.6203,-7.6161,-7.5567,-7.5471,-7.5452,-7.4872,-7.4799,-7.4918,-7.4918,-7.4882,-7.4882,-7.4882,-7.4882,-7.4882,-7.4845,-7.4845,-7.4882,-7.4845,-7.4845,-7.4625,-7.3817,-7.367,-7.3413,-7.2642,-7.2496,-7.2459,-7.2459,-7.2459,-7.2422,-7.2422,-7.2422,-7.1872,-7.0293,-7.0523,-7.1162,-7.2046,-7.2126,-7.2358,-7.2868,-7.2902,-7.2936,-7.2997,-7.3131,-7.3193,-7.3283,-7.3418,-7.386,-7.4668,-7.4668,-7.5091,-7.5938,-7.5938,-7.5938,-7.5976,-7.5976,-7.6438,-5.022,-5.3528,-5.7439,-6.0315,-6.2569,-6.4633,-6.6745,-6.6643,-6.6354,-6.7399,-6.6622,-6.6,-6.6558,-6.6602,-6.7019,-6.8328,-6.934,-7.0422,-7.144,-7.0865,-6.9684,-6.7836,-6.8307,-6.8162,-6.6569,-6.809,-6.9611,-7.0698,-7.077,-7.0987,-7.1458,-7.1494,-7.1494,-7.1494,-7.1494,-7.1494,-7.1494,-7.1494,-7.1494,-7.1531,-7.2038,-7.2038,-7.1567,-7.345,-7.403,-7.3595,-7.4899,-7.5659,-7.5913,-7.5913,-7.6058,-7.6275,-7.6275,-7.6275,-7.6275,-7.6275,-7.6378,-7.6475,-7.6381,-7.6437,-7.6591,-7.6484,-7.6472,-7.6497,-7.6497,-7.613,-7.5689,-7.5689,-7.5689,-7.5579,-7.5065,-7.5322,-7.5579,-7.5028,-7.4918,-7.4845,-7.4551,-7.4515,-7.4258,-7.345,-7.3303,-7.312,-7.2606,-7.2496,-7.2496,-7.2496,-7.2496,-7.2312,-7.1762,-7.1379,-7.1353,-7.2032,-7.1593,-7.1576,-7.2434,-7.2472,-7.2619,-7.3041,-7.3705,-7.4075,-7.4166,-7.4793,-7.5284,-7.5553,-7.5553,-7.5707,-7.6015,-7.6015,-7.6284,-7.6861,-7.6861,-7.7323,-5.4195,-5.7453,-6.0759,-6.417,-6.5545,-6.6541,-6.8162,-6.7438,-6.6474,-6.7059,-6.5225,-6.3612,-6.3865,-6.3061,-6.3119,-6.5408,-6.6908,-6.8373,-7.0416,-7.0303,-6.9285,-6.7438,-6.7873,-6.7728,-6.617,-6.6967,-6.8343,-7.0263,-7.0372,-7.0698,-7.1458,-7.1494,-7.1494,-7.1494,-7.1494,-7.1494,-7.1494,-7.1494,-7.1494,-7.1531,-7.2038,-7.2001,-7.1567,-7.3414,-7.4138,-7.3993,-7.5297,-7.6022,-7.6275,-7.6275,-7.6275,-7.6275,-7.6275,-7.6275,-7.6275,-7.6275,-7.6378,-7.6512,-7.6737,-7.6929,-7.7155,-7.7279,-7.7304,-7.7304,-7.7304,-7.6937,-7.6533,-7.6533,-7.6533,-7.6423,-7.5909,-7.6166,-7.6423,-7.5909,-7.5763,-7.5689,-7.5395,-7.5322,-7.5102,-7.4294,-7.4147,-7.3964,-7.345,-7.3377,-7.3377,-7.3377,-7.3377,-7.3156,-7.2569,-7.2188,-7.2203,-7.2646,-7.2406,-7.2485,-7.3307,-7.3383,-7.357,-7.4024,-7.4587,-7.4988,-7.508,-7.5678,-7.6015,-7.6015,-7.6322,-7.6476,-7.6476,-7.6746,-7.7169,-7.7707,-7.7707,-7.8015,-5.721,-6.0191,-6.3226,-6.6224,-6.6945,-6.709,-6.7598,-6.644,-6.5392,-6.5645,-6.3117,-6.112,-6.1932,-5.9769,-5.9124,-6.2781,-6.4203,-6.5953,-6.8856,-6.9287,-6.8995,-6.8162,-6.7438,-6.6967,-6.6858,-6.6895,-6.7873,-7.0191,-7.0335,-7.0661,-7.1458,-7.1494,-7.1494,-7.1494,-7.1494,-7.1494,-7.1494,-7.1494,-7.1494,-7.1494,-7.1531,-7.1531,-7.1531,-7.24,-7.3197,-7.3957,-7.4754,-7.5551,-7.6275,-7.6275,-7.6275,-7.6275,-7.6275,-7.6275,-7.6275,-7.6275,-7.6275,-7.6342,-7.6672,-7.6929,-7.7092,-7.7243,-7.7304,-7.7304,-7.7304,-7.7304,-7.7304,-7.7304,-7.7304,-7.7304,-7.7304,-7.7304,-7.7304,-7.7304,-7.7304,-7.7121,-7.635,-7.6166,-7.5909,-7.5139,-7.4955,-7.4918,-7.4918,-7.4918,-7.4918,-7.4918,-7.4918,-7.4331,-7.2753,-7.3,-7.3452,-7.3916,-7.4331,-7.4863,-7.5392,-7.5501,-7.5608,-7.5769,-7.5808,-7.5941,-7.613,-7.613,-7.613,-7.613,-7.6938,-7.7361,-7.7361,-7.813,-7.8515,-7.8554,-7.8554,-7.8592,-6.0423,-6.3776,-6.6822,-6.8211,-6.7982,-6.7712,-6.8997,-6.6457,-6.4005,-6.4041,-5.9463,-5.5553,-5.5756,-5.5617,-5.6539,-5.9702,-6.3762,-6.7267,-6.9775,-7.0584,-7.0408,-6.9032,-6.9213,-6.8995,-6.78,-6.8235,-6.9068,-7.0299,-6.9828,-7.0082,-7.1422,-7.1494,-7.1494,-7.1494,-7.1494,-7.1494,-7.1494,-7.1494,-7.1494,-7.1531,-7.211,-7.2074,-7.1567,-7.2979,-7.374,-7.3957,-7.4754,-7.5551,-7.6275,-7.6275,-7.6275,-7.6275,-7.6275,-7.6275,-7.6275,-7.6275,-7.6475,-7.6672,-7.6737,-7.6801,-7.6929,-7.7181,-7.7304,-7.7304,-7.7304,-7.7304,-7.7304,-7.7304,-7.7304,-7.7304,-7.7304,-7.7304,-7.7304,-7.7304,-7.7304,-7.7268,-7.7047,-7.7011,-7.679,-7.5946,-7.5322,-7.4918,-7.4918,-7.4918,-7.4918,-7.4918,-7.4918,-7.4551,-7.3523,-7.3492,-7.3573,-7.349,-7.3616,-7.4009,-7.4825,-7.5513,-7.6122,-7.659,-7.7297,-7.7738,-7.777,-7.7831,-7.7861,-7.7861,-7.8092,-7.8169,-7.8169,-7.84,-7.8823,-7.9477,-7.9477,-7.9823,-6.3868,-6.6642,-6.8858,-6.9257,-6.8536,-6.7523,-6.647,-6.3713,-6.0671,-5.8152,-5.3856,-5.0473,-5.0135,-5.0947,-5.3037,-5.7423,-6.2016,-6.6246,-6.9911,-7.0721,-7.0698,-6.9828,-7.0118,-7.0046,-6.914,-6.9466,-7.0046,-7.0806,-7.0154,-7.0227,-7.1458,-7.1494,-7.1494,-7.1494,-7.1494,-7.1494,-7.1494,-7.1494,-7.1494,-7.1531,-7.1965,-7.1929,-7.1531,-7.2436,-7.3233,-7.3957,-7.4392,-7.5225,-7.6275,-7.6275,-7.6275,-7.6275,-7.6275,-7.6275,-7.6275,-7.6275,-7.6475,-7.6708,-7.6737,-7.6866,-7.6929,-7.7181,-7.7304,-7.7304,-7.7304,-7.7304,-7.7304,-7.7304,-7.7304,-7.7304,-7.7304,-7.7304,-7.7304,-7.7304,-7.7304,-7.7304,-7.7304,-7.7304,-7.7194,-7.6717,-7.6276,-7.5983,-7.5983,-7.5983,-7.5983,-7.5983,-7.5983,-7.5652,-7.4845,-7.4638,-7.4515,-7.436,-7.4711,-7.52,-7.5763,-7.6501,-7.7111,-7.7471,-7.8064,-7.8359,-7.8454,-7.8485,-7.8477,-7.8477,-7.8861,-7.9054,-7.9054,-7.9438,-7.99,-8.0362,-8.0362,-8.0439,-6.7214,-6.8904,-6.9931,-6.9926,-6.8759,-6.6668,-6.2464,-5.9722,-5.6482,-5.0916,-4.78,-4.5906,-4.55,-4.6684,-4.9767,-5.6027,-6.0223,-6.4473,-6.9797,-7.0534,-7.0553,-7.0553,-7.0553,-7.0553,-7.0553,-7.0553,-7.0806,-7.1458,-7.0915,-7.0806,-7.1458,-7.1494,-7.1494,-7.1494,-7.1494,-7.1494,-7.1494,-7.1494,-7.1494,-7.1494,-7.1494,-7.1567,-7.1675,-7.1675,-7.2545,-7.4066,-7.4066,-7.4899,-7.6275,-7.6275,-7.6275,-7.6275,-7.6275,-7.6275,-7.6275,-7.6275,-7.6445,-7.6614,-7.6737,-7.6929,-7.7155,-7.7279,-7.7304,-7.7304,-7.7304,-7.7304,-7.7304,-7.7304,-7.7304,-7.7304,-7.7304,-7.7304,-7.7304,-7.7304,-7.7304,-7.7304,-7.7304,-7.7304,-7.7304,-7.7304,-7.7304,-7.7304,-7.7304,-7.7304,-7.7304,-7.7304,-7.7304,-7.7047,-7.635,-7.5974,-7.5753,-7.5696,-7.6545,-7.7122,-7.7207,-7.7799,-7.8282,-7.8453,-7.8568,-7.8705,-7.8823,-7.8861,-7.8861,-7.8861,-7.9592,-7.9977,-7.9977,-8.0746,-8.1093,-8.1093,-8.1208,-8.0862,-6.9103,-7.0063,-7.0656,-7.0248,-6.8269,-6.5526,-6.187,-5.7594,-5.3213,-4.9154,-4.5026,-4.2489,-4.3606,-4.5568,-4.9393,-5.6631,-6.0966,-6.5273,-7.0562,-7.1323,-7.1313,-7.1313,-7.1313,-7.1313,-7.1313,-7.1313,-7.135,-7.1494,-7.1386,-7.1386,-7.1494,-7.1494,-7.1494,-7.1494,-7.1494,-7.1494,-7.1494,-7.1494,-7.1494,-7.1494,-7.1494,-7.1857,-7.2509,-7.2509,-7.3378,-7.4899,-7.4899,-7.5442,-7.6275,-7.6275,-7.6275,-7.6275,-7.6275,-7.6275,-7.6275,-7.6275,-7.6445,-7.6614,-7.6737,-7.6929,-7.7155,-7.7279,-7.7304,-7.7304,-7.7304,-7.7304,-7.7304,-7.7304,-7.7304,-7.7304,-7.7304,-7.7304,-7.7304,-7.7304,-7.7304,-7.7304,-7.7304,-7.7304,-7.7304,-7.7304,-7.7304,-7.7304,-7.7304,-7.7304,-7.7304,-7.7304,-7.7304,-7.7268,-7.7121,-7.6447,-7.5969,-7.5679,-7.6244,-7.6768,-7.7164,-7.8409,-7.9194,-7.9297,-8.0016,-8.0536,-8.0631,-8.0631,-8.0631,-8.0631,-8.0785,-8.0862,-8.0862,-8.1016,-8.1093,-8.1131,-8.1785,-8.2016,-7.0626,-7.0924,-7.0722,-6.9783,-6.7591,-6.3886,-5.7641,-5.3584,-4.9458,-4.3369,-4.073,-3.958,-3.9918,-4.3064,-4.725,-5.2018,-5.648,-6.1353,-6.7168,-6.8295,-6.9176,-7.1277,-7.1494,-7.1494,-7.1494,-7.1494,-7.1494,-7.1494,-7.1494,-7.1494,-7.1494,-7.1494,-7.1494,-7.1494,-7.1494,-7.1494,-7.1494,-7.1494,-7.1494,-7.1494,-7.1494,-7.1929,-7.2726,-7.2726,-7.3595,-7.5116,-7.5116,-7.5551,-7.6275,-7.6275,-7.6275,-7.6275,-7.6275,-7.6275,-7.6275,-7.6275,-7.6512,-7.6708,-7.6737,-7.6993,-7.7217,-7.7243,-7.7304,-7.7304,-7.7304,-7.7304,-7.7304,-7.7304,-7.7304,-7.7304,-7.7304,-7.7671,-7.8002,-7.8002,-7.8295,-7.8479,-7.8075,-7.8332,-7.8589,-7.8589,-7.8589,-7.8589,-7.8589,-7.8589,-7.8479,-7.8038,-7.8002,-7.7818,-7.7378,-7.6974,-7.6691,-7.6581,-7.7259,-7.7823,-7.8058,-7.9283,-8.0075,-8.0179,-8.0663,-8.0959,-8.1093,-8.1093,-8.1093,-8.1093,-8.1516,-8.1708,-8.1747,-8.217,-8.2401,-8.2401,-8.2785,-8.2978,-7.1786,-7.1587,-7.0623,-6.9443,-6.6556,-6.191,-5.3682,-4.9809,-4.5814,-3.8125,-3.7009,-3.728,-3.6874,-4.0392,-4.4477,-4.7731,-5.1885,-5.7081,-6.3847,-6.5406,-6.7257,-7.106,-7.1494,-7.1494,-7.1494,-7.1494,-7.1567,-7.1748,-7.1748,-7.1675,-7.1531,-7.1494,-7.1494,-7.1494,-7.1494,-7.1494,-7.1494,-7.1494,-7.1494,-7.1494,-7.1494,-7.2001,-7.2979,-7.2979,-7.3849,-7.537,-7.537,-7.5732,-7.6275,-7.6275,-7.6275,-7.6275,-7.6275,-7.6275,-7.6311,-7.6378,-7.6578,-7.6773,-7.6801,-7.6993,-7.7243,-7.7243,-7.7304,-7.7304,-7.7304,-7.7304,-7.7304,-7.7304,-7.7304,-7.7304,-7.7304,-7.7818,-7.8332,-7.8332,-7.8809,-7.9103,-7.8479,-7.8809,-7.925,-7.925,-7.9396,-7.9543,-7.9543,-7.969,-7.958,-7.8956,-7.8846,-7.8626,-7.7928,-7.7855,-7.788,-7.8002,-7.8549,-7.8891,-7.8891,-7.9923,-8.065,-8.0792,-8.1047,-8.1228,-8.1362,-8.1554,-8.1631,-8.1631,-8.2247,-8.2593,-8.2593,-8.3247,-8.3593,-8.3593,-8.3785,-8.3862,-7.2415,-7.2147,-7.0876,-6.972,-6.5191,-5.9309,-5.2775,-4.7882,-4.3036,-3.6962,-3.5791,-3.6028,-3.6671,-3.8261,-4.1614,-4.7974,-5.0959,-5.5355,-6.3632,-6.5875,-6.7909,-7.1132,-7.1494,-7.1494,-7.1494,-7.1494,-7.182,-7.2545,-7.2581,-7.2291,-7.1531,-7.1494,-7.1494,-7.1494,-7.1494,-7.1494,-7.1494,-7.1494,-7.1494,-7.1494,-7.1494,-7.2327,-7.3812,-7.3812,-7.4682,-7.6167,-7.6167,-7.6239,-7.6275,-7.6275,-7.6275,-7.6275,-7.6275,-7.6275,-7.6311,-7.6548,-7.6614,-7.668,-7.6966,-7.7092,-7.7155,-7.7279,-7.7304,-7.7304,-7.7304,-7.7304,-7.7304,-7.7304,-7.7304,-7.7304,-7.7304,-7.7378,-7.7451,-7.7451,-7.7488,-7.7524,-7.7451,-7.7488,-7.7561,-7.7561,-7.8185,-7.8699,-7.8699,-7.9323,-7.9764,-7.969,-7.969,-7.9653,-7.958,-7.9543,-7.9756,-8.0242,-7.9471,-7.8891,-7.8891,-7.9923,-8.065,-8.0792,-8.1623,-8.2112,-8.2208,-8.2939,-8.3362,-8.3362,-8.3439,-8.3478,-8.3478,-8.3555,-8.3593,-8.3593,-8.4401,-8.4786,-7.215,-7.2116,-7.0619,-6.8969,-6.4152,-5.806,-5.126,-4.6634,-4.2044,-3.6163,-3.5318,-3.5588,-3.5419,-3.6637,-3.888,-4.2415,-4.4634,-4.8332,-5.5502,-5.8718,-6.2186,-6.7329,-6.9213,-7.0661,-7.211,-7.2219,-7.2364,-7.269,-7.2726,-7.2364,-7.1531,-7.1494,-7.1494,-7.1494,-7.1494,-7.1494,-7.1494,-7.1494,-7.1494,-7.1494,-7.1494,-7.2364,-7.3921,-7.3921,-7.479,-7.6275,-7.6275,-7.6275,-7.6275,-7.6275,-7.6275,-7.6275,-7.6275,-7.6275,-7.6275,-7.6548,-7.6643,-7.6773,-7.7029,-7.7155,-7.7217,-7.7243,-7.7304,-7.7304,-7.7304,-7.7304,-7.7304,-7.7304,-7.7304,-7.7304,-7.7304,-7.7708,-7.8075,-7.8075,-7.8442,-7.8662,-7.8185,-7.8479,-7.8956,-7.9433,-7.98,-8.0204,-8.0681,-8.1012,-8.1085,-8.0608,-8.0534,-8.0351,-7.9837,-7.98,-7.9889,-8.01,-8.0281,-8.0542,-8.0877,-8.1647,-8.2181,-8.2288,-8.2664,-8.2957,-8.3093,-8.3401,-8.3593,-8.3593,-8.4132,-8.4362,-8.4362,-8.4863,-8.5093,-8.5093,-8.5478,-8.5632,-7.0891,-7.132,-6.986,-6.8053,-6.2966,-5.6754,-5.0154,-4.5597,-4.1084,-3.5351,-3.4776,-3.5047,-3.4303,-3.5216,-3.6738,-3.8667,-4.0678,-4.4166,-5.0453,-5.4036,-5.813,-6.3852,-6.646,-6.8706,-7.1096,-7.2581,-7.3233,-7.2762,-7.2943,-7.2617,-7.1567,-7.1494,-7.1494,-7.1494,-7.1494,-7.1494,-7.1494,-7.1494,-7.1494,-7.1494,-7.1494,-7.2364,-7.3921,-7.3921,-7.479,-7.6275,-7.6275,-7.6275,-7.6275,-7.6275,-7.6275,-7.6275,-7.6275,-7.6378,-7.6445,-7.6578,-7.6773,-7.6929,-7.7092,-7.7217,-7.7304,-7.7304,-7.7488,-7.7708,-7.7708,-7.7524,-7.7304,-7.7304,-7.7304,-7.7304,-7.7304,-7.7965,-7.8589,-7.8589,-7.9213,-7.9617,-7.9066,-7.9396,-7.9947,-8.0534,-8.0828,-8.1195,-8.1746,-8.2039,-8.2003,-8.1452,-8.1342,-8.1158,-8.0571,-8.0498,-8.0651,-8.0984,-8.1679,-8.2084,-8.1981,-8.2716,-8.3252,-8.3323,-8.3619,-8.3874,-8.3978,-8.4209,-8.4324,-8.4324,-8.4939,-8.5247,-8.5247,-8.5824,-8.6094,-8.6094,-8.6094,-8.6094,-6.8533,-6.949,-6.8777,-6.7278,-6.1547,-5.4879,-4.9883,-4.4707,-3.9581,-3.4462,-3.3998,-3.4269,-3.3558,-3.4032,-3.5487,-3.8497,-4.1175,-4.507,-5.1282,-5.4394,-5.7514,-6.1571,-6.3454,-6.541,-6.78,-7.2327,-7.4428,-7.2834,-7.345,-7.3197,-7.1603,-7.1494,-7.1494,-7.1494,-7.1494,-7.1494,-7.1494,-7.1494,-7.1494,-7.1494,-7.1494,-7.2364,-7.3921,-7.3921,-7.479,-7.6275,-7.6275,-7.6275,-7.6275,-7.6275,-7.6275,-7.6275,-7.6275,-7.6445,-7.6614,-7.6773,-7.6929,-7.7092,-7.7279,-7.7304,-7.7304,-7.7304,-7.7892,-7.8589,-7.8589,-7.8002,-7.7304,-7.7304,-7.7304,-7.7304,-7.7304,-7.7965,-7.8589,-7.8589,-7.9213,-7.98,-7.9764,-7.9764,-7.98,-7.98,-8.0461,-8.1012,-8.1012,-8.1672,-8.2186,-8.2186,-8.2186,-8.2186,-8.2186,-8.2186,-8.2585,-8.3742,-8.3847,-8.3171,-8.1519,-8.2596,-8.3285,-8.3285,-8.4302,-8.4901,-8.4901,-8.567,-8.6055,-8.6055,-8.6094,-8.6094,-8.6094,-8.6094,-8.6094,-8.6094,-8.6094,-8.6094,-5.9942,-6.0853,-6.0303,-5.8386,-5.4434,-5.002,-4.579,-4.2564,-3.9057,-3.437,-3.3998,-3.4269,-3.3558,-3.3998,-3.596,-4.0493,-4.2632,-4.527,-4.9697,-5.4594,-5.8311,-6.0158,-6.6134,-7.0589,-7.1929,-7.4392,-7.5261,-7.3667,-7.3776,-7.3197,-7.1603,-7.1494,-7.1494,-7.1494,-7.1494,-7.1494,-7.1494,-7.1494,-7.1494,-7.1494,-7.1494,-7.2074,-7.3124,-7.3667,-7.45,-7.5515,-7.6058,-7.6275,-7.6275,-7.6275,-7.6275,-7.6275,-7.6275,-7.6445,-7.6614,-7.6773,-7.6966,-7.7092,-7.7243,-7.7304,-7.7304,-7.7304,-7.7892,-7.8589,-7.8589,-7.8405,-7.8185,-7.8185,-7.8185,-7.8332,-7.8883,-7.9213,-7.9396,-7.9396,-7.958,-7.98,-7.98,-7.98,-7.9947,-8.0498,-8.0828,-8.1158,-8.1746,-8.2039,-8.2186,-8.2186,-8.2186,-8.2186,-8.2186,-8.2186,-8.2434,-8.3227,-8.3672,-8.4016,-8.4344,-8.471,-8.5012,-8.5155,-8.5458,-8.5681,-8.5709,-8.5978,-8.6094,-8.6094,-8.6094,-8.6094,-8.6094,-8.6094,-8.6094,-8.6094,-8.6094,-8.6094,-5.3811,-5.548,-5.5314,-5.3723,-5.056,-4.6965,-4.3809,-4.0879,-3.7821,-3.4167,-3.3525,-3.3525,-3.3051,-3.3592,-3.5318,-3.914,-4.1938,-4.4741,-4.7869,-5.3376,-5.8058,-6.0665,-6.6858,-7.1494,-7.2871,-7.4718,-7.5297,-7.403,-7.3631,-7.2871,-7.1567,-7.1494,-7.1494,-7.1494,-7.1494,-7.1494,-7.1494,-7.1494,-7.1494,-7.1494,-7.1494,-7.1929,-7.2726,-7.3559,-7.4356,-7.5152,-7.5949,-7.6275,0.0,-7.6275,-7.6275,-7.6275,-7.6378,-7.6512,-7.6708,-7.6838,-7.6993,-7.7217,-7.7279,-7.7304,-7.7304,-7.7304,-7.8112,-7.9103,-7.9396,-7.9286,-7.9029,-7.9029,-7.9029,-7.9176,-7.9653,-8.0021,-8.0241,-8.0241,-8.0461,-8.0681,-8.0681,-8.0681,-8.0828,-8.1342,-8.1452,-8.1599,-8.2113,-8.2186,-8.2186,-8.2186,-8.2186,-8.2186,-8.2186,-8.2407,-8.2647,-8.2935,-8.3688,-8.4533,-8.5314,-8.559,-8.5779,-8.5996,-8.6031,-8.6065,-8.6094,-8.6094,-8.6094,-8.6094,-8.6094,-8.6094,-8.6094,-8.6094,-8.6094,-8.6094,-8.6094,-8.6094,0.0,-5.2127,-5.2524,-5.1896,-4.8718,-4.5219,-4.316,-3.9564,0.0,-3.3863,-3.2814,-3.2381,-3.2517,-3.3017,-3.4032,-3.596,-4.0145,-4.4011,-4.6376,-5.1669,-5.7406,-6.3019,-6.6388,-6.914,-7.1458,-7.3704,-7.4718,-7.3957,-7.316,-7.2364,-7.1531,-7.1494,-7.1494,-7.1494,-7.1494,-7.1494,-7.1494,-7.1494,-7.1494,-7.1494,-7.1494,-7.1893,-7.2653,-7.345,-7.4283,-7.508,-7.5877,-7.6239,-7.6275,-7.6275,-7.6275,-7.6311,-7.6512,-7.6708,-7.6801,-7.7029,-7.7217,-7.7304,-7.7304,-7.7304,-7.7341,-7.7451,-7.8516,-7.9947,-8.0828,-8.0534,-7.9874,-7.9874,-7.9874,-7.9874,-7.9947,-8.0534,-8.1085,-8.1085,-8.1672,-8.2186,-8.2186,-8.2186,-8.2186,-8.2186,-8.2186,-8.2186,-8.2186,-8.2186,-8.2186,-8.2186,-8.2186,-8.2186,-8.2186,-8.2647,-8.2935,-8.3053,-8.4003,-8.4719,-8.4861,-8.5436,-8.5852,-8.5996,-8.606,-8.6094,-8.6094,-8.6094,-8.6094,-8.6094,-8.6094,-8.6094,-8.6094,-8.6094,-8.6094,-8.6094,-8.6094,-8.6094,-3.8774,0.0,-4.2702,-4.156,-4.0557,-3.9581,0.0,-3.703,-3.5419,-3.3761,-3.2814,-3.2814,-3.4506,-3.4066,-3.5385,-4.1474,-4.4193,-4.6504,-4.9327,-5.531,-6.1716,-6.7945,-6.9865,-7.1386,-7.316,-7.3849,-7.4102,-7.3921,-7.316,-7.2364,-7.1531,-7.1494,-7.1494,-7.1494,-7.1494,-7.1494,-7.1494,-7.1494,-7.1494,-7.1494,-7.1494,-7.1603,-7.182,-7.2617,-7.345,-7.4247,-7.5044,-7.5732,-7.6275,-7.6275,-7.6275,-7.6311,-7.6512,-7.6708,-7.6801,-7.7029,-7.7217,-7.7304,-7.7304,-7.7304,-7.7524,-7.8809,-7.947,-8.0057,-8.1489,-8.1342,-8.0718,-8.0718,-8.0718,-8.0865,-8.1489,-8.1782,-8.1929,-8.1929,-8.2039,-8.2186,-8.2186,-8.2186,-8.2186,-8.2186,-8.2186,-8.2186,-8.2186,-8.2186,-8.2186,-8.2186,-8.2186,-8.2186,-8.2186,-8.2279,-8.2708,-8.3618,-8.3937,-8.4486,-8.5474,-8.5704,-8.5852,-8.5996,-8.606,-8.6094,-8.6094,-8.6094,-8.6094,-8.6094,-8.6094,-8.6094,-8.6094,-8.6094,-8.6094,-8.6094,-8.6094,-8.6094,-3.4374,-3.6855,-3.9059,-3.8452,-3.8111,-3.7787,-3.7381,-3.5622,-3.3863,-3.3051,-3.2577,-3.2747,-3.4303,-3.4959,-3.6737,-4.1169,-4.462,-4.8745,-5.4527,-5.915,-6.4033,-6.972,-7.106,-7.2001,-7.3233,-7.3378,-7.3378,-7.3378,-7.2617,-7.1965,-7.1531,-7.1494,-7.1494,-7.1494,-7.1494,-7.1494,-7.1494,-7.1494,-7.1494,-7.1494,-7.1494,-7.1494,-7.1531,-7.2327,-7.2943,-7.3414,-7.4609,-7.537,-7.5768,-7.613,-7.6378,-7.6445,-7.6643,-7.6773,-7.6966,-7.7155,-7.7279,-7.7304,-7.7304,-7.7304,-7.7598,-7.925,-7.98,-8.0094,-8.1709,-8.1893,-8.1562,-8.1562,-8.1562,-8.1636,-8.2076,-8.2186,-8.2186,-8.2186,-8.2186,-8.2186,-8.2186,-8.2186,-8.2186,-8.2186,-8.2186,-8.2186,-8.2186,-8.2186,-8.2186,-8.2186,-8.2186,-8.2186,-8.2186,-8.2407,-8.2708,-8.309,-8.3563,-8.4105,-8.4589,-8.5114,-8.559,-8.5992,-8.606,-8.6094,-8.6094,-8.6094,-8.6094,-8.6094,-8.6094,-8.6094,-8.6094,-8.6094,-8.6324,-8.6709,-8.6709,-8.6901,-3.3541,-3.6114,-3.8572,-3.8381,-3.8091,-3.7855,-3.7618,-3.5013,-3.2611,-3.2611,-3.2611,-3.2949,-3.4066,-3.6156,-3.8294,-4.0008,-4.4905,-5.1587,-6.0322,-6.2693,-6.5301,-7.0009,-7.1132,-7.182,-7.2617,-7.2581,-7.2581,-7.269,-7.1965,-7.1494,-7.1494,-7.1494,-7.1494,-7.1494,-7.1494,-7.1494,-7.1494,-7.1494,-7.1494,-7.1494,-7.1494,-7.1494,-7.1531,-7.2219,-7.2581,-7.2798,-7.4138,0.0,-7.5008,-7.5804,-7.6264,-7.6432,-7.67,-7.6929,-7.7092,-7.7279,-7.7304,-7.7304,-7.7304,-7.7304,-7.7598,-7.925,-7.98,-8.0094,-8.1709,-8.2186,-8.2186,-8.2186,-8.2186,-8.2186,-8.2186,-8.2186,-8.2186,-8.2186,-8.2186,-8.2186,-8.2186,-8.2186,-8.2186,-8.2186,-8.2186,-8.2186,-8.2186,-8.2186,-8.2186,-8.2186,-8.2186,-8.2186,-8.2186,-8.2622,-8.2769,-8.2343,-8.3206,-8.3709,-8.3471,-8.4448,-8.5319,-8.5954,-8.606,-8.6094,-8.6094,-8.6094,-8.6094,-8.6094,-8.6094,-8.6094,-8.6094,-8.6094,-8.6555,-8.7401,-8.7401,-8.7863,-3.452,-3.6983,-3.8167,-3.578,-3.6569,-3.7584,-3.6265,-3.5013,-3.4134,-3.4134,-3.4134,-3.4979,-3.7652,-3.8492,-4.0641,-4.648,-5.1706,-5.737,-6.3941,-6.5084,-6.675,-7.0842,-7.1422,-7.182,-7.2617,-7.2074,-7.1965,-7.2653,-7.1965,-7.1494,-7.1494,-7.1494,-7.1494,-7.1494,-7.1494,-7.1494,-7.1494,-7.1494,-7.1494,-7.1494,-7.1494,-7.1494,-7.1494,-7.1639,-7.2074,-7.2726,0.0,-7.345,-7.4175,-7.4971,-7.5363,-7.5669,-7.6482,-7.6929,-7.7092,-7.7279,-7.7304,-7.7304,-7.7304,-7.7304,-7.7598,-7.925,-7.98,-8.0094,-8.1709,-8.2186,-8.2186,-8.2186,-8.2186,-8.2186,-8.2186,-8.2186,-8.2186,-8.2186,-8.2186,-8.2186,-8.2186,-8.2186,-8.2186,-8.2186,-8.2186,-8.2186,-8.2186,-8.2186,-8.2186,-8.2186,-8.2186,-8.2186,-8.2186,-8.2251,-8.2434,-8.2853,-8.3148,-8.36,-8.4092,-8.481,-8.5238,-8.5475,-8.5884,-8.6094,-8.6094,-8.6094,-8.6094,-8.6094,-8.6094,-8.6094,-8.6094,-8.6094,-8.6555,-8.7401,-8.7401,-8.7863,-3.2807,-3.5408,-3.7503,-3.6569,-3.8328,-3.9986,-3.8903,-3.7449,-3.6332,-3.6332,-3.6637,-3.7483,-3.9276,-4.2121,-4.6425,-5.2981,-5.6761,-6.0413,-6.4975,-6.6351,-6.8054,-7.1132,-7.1494,-7.1639,-7.2038,-7.1712,-7.1639,-7.2038,-7.1712,-7.1494,-7.1494,-7.1494,-7.1494,-7.1494,-7.1494,-7.1494,-7.1494,-7.1494,-7.1494,-7.1494,-7.1494,-7.1494,-7.1494,-7.1494,-7.1712,-7.2074,0.0,-7.2907,-7.3378,-7.4675,-7.5378,-7.558,-7.6574,-7.7092,-7.7217,-7.7279,-7.7304,-7.7304,-7.7304,-7.7304,-7.7598,-7.925,-7.98,-8.0094,-8.1709,-8.2186,-8.2186,-8.2186,-8.2186,-8.2186,-8.2186,-8.2186,-8.2186,-8.2186,-8.2186,-8.2186,-8.2186,-8.2186,-8.2186,-8.2186,-8.2186,-8.2186,-8.2186,-8.2186,-8.2186,-8.2186,-8.2186,-8.2186,-8.2186,-8.2186,-8.2279,-8.256,-8.2745,-8.295,-8.3415,-8.4041,-8.4772,-8.5702,-8.5954,-8.6094,-8.6094,-8.6094,-8.6094,-8.6094,-8.6094,-8.6094,-8.6094,-8.6555,-8.7248,-8.8094,-8.8556,-8.921,-3.2266,-3.4742,-3.7313,-3.8396,-4.0358,-4.2083,-4.2219,-4.0663,-3.9309,-3.9648,-4.0189,-4.073,-4.1339,-4.6465,-5.236,-5.7694,-6.0756,-6.349,-6.6315,-6.78,-6.9285,-7.1277,-7.1494,-7.1494,-7.1494,-7.1494,-7.1494,-7.1494,-7.1494,-7.1494,-7.1494,-7.1494,-7.1494,-7.1494,-7.1494,-7.1494,-7.1494,-7.1494,-7.1494,-7.1494,-7.1494,-7.1494,-7.1494,-7.1494,-7.1494,-7.1531,-7.2146,-7.2436,-7.2545,-7.4188,-7.507,-7.5379,-7.6408,-7.7034,-7.7304,-7.7304,-7.7304,-7.7304,-7.7304,-7.7304,-7.7598,-7.925,-7.98,-8.0094,-8.1709,-8.2186,-8.2186,-8.2186,-8.2186,-8.2186,-8.2186,-8.2186,-8.2186,-8.2186,-8.2186,-8.2186,-8.2186,-8.2186,-8.2186,-8.2186,-8.2186,-8.2186,-8.2186,-8.2186,-8.2186,-8.2186,-8.2186,-8.2186,-8.2186,-8.2186,-8.2186,-8.2251,-8.238,-8.2597,-8.2964,-8.3471,-8.4352,-8.5849,-8.606,-8.6094,-8.6094,-8.6094,-8.6094,-8.6094,-8.6094,-8.6094,-8.6094,-8.6978,-8.7863,-8.8709,-8.9517,-9.0364,-3.5622,-3.7077,-3.8328,-4.046,-4.1136,-4.2016,-4.4756,-4.4147,-4.3436,-4.4857,-4.5196,-4.5229,-4.5297,-5.1292,-5.6823,-5.8719,-6.3753,-6.809,-6.9792,-7.0118,-7.0517,-7.1386,-7.1494,-7.1494,-7.1494,-7.1494,-7.1494,-7.1494,-7.1494,-7.1494,-7.1494,-7.1494,-7.1494,-7.1494,-7.1494,-7.1494,-7.1494,-7.1494,-7.1494,-7.1494,-7.1494,-7.1494,-7.1494,-7.1494,-7.1494,-7.1494,-7.1567,-7.1603,-7.1675,-7.2735,-7.3723,-7.4603,-7.5603,-7.6496,-7.7304,-7.7304,-7.7304,-7.7304,-7.7304,-7.7304,-7.7598,-7.925,-7.98,-8.0094,-8.1709,-8.2186,-8.2186,-8.2186,-8.2186,-8.2186,-8.2186,-8.2186,-8.2186,-8.2186,-8.2186,-8.2186,-8.2186,-8.2186,-8.2186,-8.2186,-8.2186,-8.2186,-8.2186,-8.2186,-8.2186,-8.2186,-8.2186,-8.2186,-8.2186,-8.2186,-8.2251,-8.2343,-8.2571,-8.3024,-8.3763,-8.387,-8.4303,-8.5397,-8.5884,-8.6094,-8.6094,-8.6094,-8.6094,-8.6094,-8.6094,-8.6094,-8.6094,-8.6978,-8.7863,-8.8709,-8.9517,-9.0364,-3.3558,-3.5554,-3.7855,-4.0527,-4.2963,-4.5094,-4.6718,-4.7327,-4.8139,-5.0135,-5.0168,-5.0119,-5.1055,-5.4276,-5.793,-6.1305,-6.5694,-6.9104,-7.0227,-7.077,-7.1205,-7.1458,-7.1096,-7.0806,-7.0806,-7.0335,-7.0046,-7.0046,-7.0046,-7.0046,-7.0046,-7.0046,-7.0046,-7.0046,-7.0046,-7.0046,-7.0046,-7.0046,-7.0299,-7.0806,-7.1277,-7.1494,-7.1494,-7.1494,-7.1494,-7.1494,-7.1494,-7.1593,-7.1791,-7.2715,-7.3702,-7.4726,-7.6166,-7.6986,-7.7304,-7.7304,-7.7304,-7.7304,-7.7304,-7.7304,-7.7524,-7.8662,-7.9396,-7.9984,-8.1122,-8.1782,-8.2186,-8.2186,-8.2186,-8.2186,-8.2186,-8.2186,-8.2186,-8.2186,-8.2186,-8.2186,-8.2186,-8.2186,-8.2186,-8.2186,-8.2186,-8.2186,-8.2186,-8.2186,-8.2186,-8.2186,-8.2186,-8.2186,-8.2186,-8.2186,-8.2251,-8.2407,-8.2659,-8.3024,-8.3395,-8.3747,-8.4041,-8.4448,-8.5238,-8.5813,-8.6094,-8.6094,-8.6094,-8.6094,-8.6094,-8.6094,-8.6094,-8.7517,-8.8094,-8.794,-8.9825,-9.0594,-3.2645,-3.4844,-3.7686,-3.9952,-4.3673,-4.7225,-4.8917,-5.0642,-5.2435,-5.4465,-5.389,-5.3513,-5.4977,-5.6493,-5.8839,-6.2831,-6.674,-6.9466,-7.0263,-7.1024,-7.1422,-7.1168,-7.0698,-7.0299,-7.0046,-6.9502,-6.9176,-6.9176,-6.9176,-6.9176,-6.9176,-6.9176,-6.9176,-6.9176,-6.9176,-6.9176,-6.9176,-6.9176,-6.9466,-7.0009,-7.0517,-7.1024,-7.1494,-7.1494,-7.1494,-7.1494,-7.1593,-7.1656,-7.1853,-7.2608,-7.3666,-7.4885,-7.6362,-7.7084,-7.7304,-7.7304,-7.7304,-7.7304,-7.7304,-7.7304,-7.7451,-7.8332,-7.914,-7.9947,-8.0755,-8.1562,-8.2186,-8.2186,-8.2186,-8.2186,-8.2186,-8.2186,-8.2186,-8.2186,-8.2186,-8.2186,-8.2186,-8.2186,-8.2186,-8.2186,-8.2186,-8.2186,-8.2186,-8.2186,-8.2186,-8.2186,-8.2186,-8.2186,-8.2186,-8.2251,-8.238,-8.2534,-8.2843,-8.3024,-8.318,-8.3508,-8.3709,-8.3922,-8.4542,-8.5197,-8.5849,-8.6026,-8.6094,-8.6094,-8.6094,-8.6094,-8.6094,-8.7555,-8.7979,-8.744,-8.9479,-9.0248,-3.3795,-3.5622,-3.8091,-3.8836,-4.2963,-4.78,-5.1488,-5.4126,-5.6156,-5.7645,-5.6156,-5.5111,-5.6564,-5.8002,-6.0017,-6.301,-6.6704,-6.9466,-7.0263,-7.1024,-7.1205,-7.048,-7.0372,-7.0046,-6.9249,-6.9176,-6.9176,-6.9176,-6.9176,-6.9176,-6.9176,-6.9176,-6.9176,-6.9176,-6.9176,-6.9176,-6.9176,-6.9176,-6.9176,-6.9176,-6.9176,-6.9973,-7.1494,-7.1494,-7.1494,-7.1494,-7.1718,-7.1816,-7.1816,-7.2181,-7.3369,-7.4992,-7.5799,-7.6607,-7.7304,-7.7304,-7.7304,-7.7304,-7.7304,-7.7304,-7.7451,-7.8295,-7.914,-7.9947,-8.0755,-8.1562,-8.2186,-8.2186,-8.2186,-8.2186,-8.2186,-8.2186,-8.2186,-8.2186,-8.2186,-8.2186,-8.2186,-8.2186,-8.2186,-8.2186,-8.2186,-8.2186,-8.2186,-8.2186,-8.2186,-8.2186,-8.2186,-8.2186,-8.2186,-8.2279,-8.2534,-8.2904,-8.3121,-8.318,-8.318,-8.318,-8.3433,-8.387,-8.3922,-8.439,-8.5357,-8.5849,-8.6094,-8.6094,-8.6094,-8.6094,-8.6094,-8.6978,-8.7401,-8.7401,-8.8286,-8.9133,-3.3017,-3.5216,-3.8599,-4.1407,-4.6413,-5.1386,-5.4093,-5.6427,-5.8626,-6.0622,-5.9268,-5.7793,-5.8255,-5.9509,-6.1227,-6.3188,-6.6211,-6.8633,-6.943,-6.972,-6.9792,-6.9575,-6.9068,-6.8633,-6.838,-6.7836,-6.751,-6.751,-6.751,-6.751,-6.751,-6.751,-6.751,-6.751,-6.751,-6.751,-6.751,-6.751,-6.78,-6.8343,-6.8343,-6.9176,-7.0734,-7.0734,-7.1024,-7.1494,-7.1718,-7.1842,-7.2,-7.2907,-7.3905,-7.4992,-7.5799,-7.6607,-7.7304,-7.7304,-7.7304,-7.7304,-7.7304,-7.7304,-7.7378,-7.7598,-7.8626,-7.9837,-8.0057,-8.1085,-8.2186,-8.2186,-8.2186,-8.2186,-8.2186,-8.2186,-8.2186,-8.2186,-8.2186,-8.2186,-8.2186,-8.2186,-8.2186,-8.2186,-8.2186,-8.2186,-8.2186,-8.2186,-8.2186,-8.2186,-8.2186,-8.2251,-8.2343,-8.2508,-8.2696,-8.2904,-8.3121,-8.318,-8.318,-8.318,-8.3297,-8.3433,-8.3747,-8.439,-8.5357,-8.5514,-8.5739,-8.6094,-8.6094,-8.6094,-8.6094,-8.6978,-8.7094,-8.6517,-8.8017,-8.8825,-3.5047,-3.7686,-4.1305,-4.4418,-4.8781,-5.3213,-5.6664,-5.849,-6.0156,-6.2779,-6.1415,-6.021,-6.1425,-6.1847,-6.2702,-6.4495,-6.6644,-6.8162,-6.8669,-6.8995,-6.9068,-6.8742,-6.8307,-6.7873,-6.7547,-6.7076,-6.6786,-6.6786,-6.6786,-6.6786,-6.6786,-6.6786,-6.6786,-6.6786,-6.6786,-6.6786,-6.6786,-6.6786,-6.704,-6.751,-6.751,-6.8199,-6.9466,-7.0082,-7.0687,-7.1184,-7.1794,-7.2084,-7.2263,-7.2951,-7.3707,-7.4515,-7.5322,-7.613,-7.6864,-7.7194,-7.7304,-7.7304,-7.7304,-7.7304,-7.7304,-7.7304,-7.8222,-7.9323,-7.9323,-8.0461,-8.1709,-8.1709,-8.1929,-8.2186,-8.2186,-8.2186,-8.2186,-8.2186,-8.2186,-8.2186,-8.2186,-8.2186,-8.2186,-8.2186,-8.2186,-8.2186,-8.2186,-8.2186,-8.2186,-8.2186,-8.2186,-8.2251,-8.2508,-8.2633,-8.2758,-8.2964,-8.3121,-8.318,-8.318,-8.318,-8.318,-8.318,-8.3452,-8.3975,-8.4772,-8.5197,-8.5628,-8.6094,-8.6094,-8.6094,-8.6094,-8.6632,-8.6594,-8.6132,-8.7171,-8.7863,-3.843,-4.161,-4.5196,-4.7699,-5.0642,-5.416,-5.9072,-6.0122,-6.0891,-6.383,-6.281,-6.2231,-6.5006,-6.4474,-6.4327,-6.6342,-6.7366,-6.7873,-6.78,-6.8416,-6.8561,-6.7764,-6.7692,-6.7402,-6.6641,-6.6641,-6.6677,-6.6677,-6.675,-6.6786,-6.6786,-6.6786,-6.6786,-6.6786,-6.6786,-6.6786,-6.6786,-6.6786,-6.6786,-6.6786,-6.6786,-6.7184,-6.7945,-6.9466,-7.035,-7.0714,-7.1815,-7.2416,-7.2496,-7.2496,-7.2973,-7.378,-7.4515,-7.5322,-7.6203,-7.6937,-7.7268,-7.7304,-7.7304,-7.7304,-7.7304,-7.7304,-7.7892,-7.8589,-7.8589,-7.9727,-8.1012,-8.1012,-8.1562,-8.2186,-8.2186,-8.2186,-8.2186,-8.2186,-8.2186,-8.2186,-8.2186,-8.2186,-8.2186,-8.2186,-8.2186,-8.2186,-8.2186,-8.2186,-8.2186,-8.2186,-8.2186,-8.2316,-8.2633,-8.2696,-8.2819,-8.318,-8.318,-8.318,-8.318,-8.318,-8.318,-8.318,-8.318,-8.3433,-8.387,-8.4772,-8.5514,-8.6026,-8.606,-8.606,-8.6094,-8.6094,-8.6094,-8.6094,-8.6094,-8.6555,-3.7131,-4.0832,-4.5669,-5.0236,-5.4499,-5.8162,-6.0412,-6.0487,-6.0627,-6.2423,-6.2856,-6.3091,-6.3689,-6.459,-6.534,-6.5764,-6.6533,-6.6858,-6.6207,-6.6279,-6.6062,-6.5265,-6.5156,-6.512,-6.4939,-6.5482,-6.5844,-6.5844,-6.646,-6.6786,-6.6786,-6.6786,-6.6786,-6.6786,-6.6786,-6.6786,-6.6786,-6.6786,-6.6786,-6.6786,-6.6903,-6.7034,-6.7252,-6.8232,-6.9536,-7.1012,-7.1933,-7.2416,-7.2496,-7.2496,-7.2973,-7.3707,-7.3891,-7.4845,-7.613,-7.6276,-7.6754,-7.7304,-7.7304,-7.7304,-7.7304,-7.7304,-7.7892,-7.8589,-7.8589,-7.9727,-8.1012,-8.1012,-8.1562,-8.2186,-8.2186,-8.2186,-8.2186,-8.2186,-8.2186,-8.2186,-8.2186,-8.2186,-8.2186,-8.2186,-8.2186,-8.2186,-8.2186,-8.2186,-8.2186,-8.2186,-8.2186,-8.2316,-8.2633,-8.2696,-8.2819,-8.318,-8.318,-8.318,-8.318,-8.318,-8.318,-8.318,-8.318,-8.3433,-8.387,-8.4092,-8.4635,-8.5514,-8.5552,-8.5739,-8.6094,-8.6094,-8.6094,-8.6094,-8.6094,-8.6555,-3.8077,-4.2455,-4.7496,-5.3078,-5.6471,-5.8732,-5.9874,-6.0317,-6.0744,-6.1551,-6.2551,-6.3428,-6.3753,-6.4543,-6.5094,-6.5026,-6.5374,-6.5482,-6.5084,-6.5011,-6.4867,-6.4432,-6.4396,-6.4396,-6.4396,-6.4758,-6.5011,-6.5011,-6.541,-6.5663,-6.5663,-6.5663,-6.5663,-6.5663,-6.6025,-6.6243,-6.6243,-6.6605,-6.6786,-6.6786,-6.6961,-6.7076,-6.7283,-6.8487,-6.9748,-7.1165,-7.1992,-7.2438,-7.2496,-7.2496,-7.2753,-7.3156,-7.356,-7.4441,-7.5579,-7.5946,-7.6607,-7.7304,-7.7304,-7.7304,-7.7304,-7.7304,-7.7635,-7.8002,-7.8002,-7.8846,-7.9837,-7.9837,-8.0424,-8.1122,-8.1525,-8.1636,-8.1709,-8.2113,-8.2186,-8.2186,-8.2186,-8.2186,-8.2186,-8.2186,-8.2186,-8.2186,-8.2186,-8.2186,-8.2186,-8.2186,-8.2251,-8.238,-8.2633,-8.2758,-8.2941,-8.318,-8.318,-8.318,-8.318,-8.318,-8.318,-8.318,-8.318,-8.3318,-8.3564,-8.3527,-8.4027,-8.5029,-8.5317,-8.5514,-8.5739,-8.5992,-8.6094,-8.6094,-8.6094,-8.6324,-3.8381,-4.3876,-4.9458,-5.504,-5.7123,-5.7943,-5.8665,-5.9847,-6.0867,-6.1127,-6.2308,-6.343,-6.3884,-6.4215,-6.4359,-6.4215,-6.4287,-6.4359,-6.4215,-6.4178,-6.4142,-6.3997,-6.3997,-6.3997,-6.3997,-6.4106,-6.4178,-6.4178,-6.4323,-6.4396,-6.4396,-6.4396,-6.4396,-6.4396,-6.5048,-6.5374,-6.5374,-6.6207,-6.6605,-6.6664,-6.6946,-6.7247,-6.7598,-6.9062,-7.0088,-7.0783,-7.1851,-7.2312,-7.2312,-7.2459,-7.2496,-7.2569,-7.323,-7.3964,-7.4808,-7.5616,-7.6423,-7.7121,-7.7268,-7.7304,-7.7304,-7.7304,-7.7304,-7.7304,-7.7304,-7.7928,-7.8589,-7.8589,-7.9176,-7.9947,-8.0608,-8.0901,-8.1158,-8.1819,-8.2113,-8.2186,-8.2186,-8.2186,-8.2186,-8.2186,-8.2186,-8.2186,-8.2186,-8.2186,-8.2186,-8.2186,-8.2279,-8.2471,-8.2696,-8.2782,-8.2964,-8.318,-8.318,-8.318,-8.318,-8.318,-8.318,-8.318,-8.318,-8.318,-8.318,-8.318,-8.3564,-8.439,-8.4986,-8.5317,-8.5397,-8.5884,-8.6094,-8.6094,-8.6094,-8.6094,-3.3694,-4.1508,-4.983,-5.389,-5.6338,-5.7939,-5.866,-5.938,-6.0317,-6.1604,-6.2582,-6.3016,-6.244,-6.3454,-6.4178,-6.3454,-6.3925,-6.4142,-6.3454,-6.3345,-6.3092,-6.2404,-6.2331,-6.2331,-6.2331,-6.2947,-6.3345,-6.3345,-6.3997,-6.4396,-6.4396,-6.4396,-6.4396,-6.4396,-6.4504,-6.4541,-6.4541,-6.5374,-6.5794,-6.5965,-6.6974,-6.7524,-6.7724,-6.8641,-6.9064,-6.9247,-7.0807,-7.1468,-7.1541,-7.2202,-7.2496,-7.2496,-7.2606,-7.3156,-7.3964,-7.4771,-7.5579,-7.635,-7.7084,-7.7304,-7.7304,-7.7304,-7.7304,-7.7304,-7.7304,-7.7928,-7.8589,-7.8589,-7.9176,-7.98,-7.991,-8.0461,-8.1048,-8.1122,-8.1672,-8.2186,-8.2186,-8.2186,-8.2186,-8.2186,-8.2186,-8.2186,-8.2186,-8.2186,-8.2186,-8.2186,-8.2279,-8.2471,-8.2696,-8.2782,-8.2964,-8.318,-8.318,-8.318,-8.318,-8.318,-8.318,-8.318,-8.318,-8.318,-8.318,-8.318,-8.3297,-8.3376,-8.433,-8.4986,-8.5397,-8.5884,-8.6094,-8.6094,-8.6094,-8.6094,-3.5419,-4.1745,-4.7733,-5.2739,-5.4922,-5.6195,-5.7798,-5.8957,-5.9871,-6.0539,-6.0955,-6.1353,-6.1897,-6.2585,-6.2947,-6.2585,-6.2838,-6.2947,-6.2585,-6.2549,-6.2404,-6.2041,-6.2005,-6.2005,-6.2005,-6.2331,-6.2549,-6.2549,-6.2875,-6.3056,-6.3056,-6.3056,-6.3056,-6.3056,-6.349,-6.3708,-6.3708,-6.4729,-6.5569,-6.6279,-6.6591,-6.7085,-6.7687,-6.8054,-6.8458,-6.8972,-7.011,-7.0881,-7.1358,-7.1688,-7.2092,-7.2496,-7.2496,-7.2973,-7.378,-7.4625,-7.5432,-7.624,-7.7047,-7.7304,-7.7304,-7.7304,-7.7304,-7.7304,-7.7304,-7.7598,-7.7892,-7.7892,-7.8148,-7.8516,-7.8993,-7.9727,-8.0424,-8.0901,-8.1599,-8.2186,-8.2186,-8.2186,-8.2186,-8.2186,-8.2186,-8.2186,-8.2186,-8.2186,-8.2186,-8.2186,-8.2444,-8.2633,-8.2696,-8.2941,-8.3121,-8.318,-8.318,-8.318,-8.318,-8.318,-8.318,-8.318,-8.318,-8.318,-8.318,-8.318,-8.318,-8.318,-8.387,-8.4486,-8.4986,-8.5475,-8.5849,-8.6094,-8.6094,-8.6094,-3.552,-3.9884,-4.347,-4.9458,-5.2037,-5.3795,-5.6269,-5.7938,-5.9108,-5.9506,-5.9615,-5.9977,-6.1172,-6.139,-6.139,-6.139,-6.139,-6.1462,-6.1679,-6.1716,-6.1788,-6.2005,-6.2005,-6.2005,-6.2005,-6.2005,-6.2005,-6.2005,-6.2005,-6.2005,-6.2005,-6.2005,-6.2005,-6.2005,-6.2585,-6.2911,-6.2911,-6.4057,-6.5181,-6.6161,-6.6223,-6.6663,-6.7393,-6.7614,-6.8017,-6.8641,-6.9449,-7.0257,-7.1027,-7.1248,-7.1798,-7.2496,-7.2496,-7.2863,-7.3487,-7.4294,-7.5102,-7.5909,-7.6717,-7.7157,-7.7304,-7.7304,-7.7304,-7.7304,-7.7304,-7.7304,-7.7304,-7.7304,-7.7304,-7.7451,-7.8112,-7.9029,-7.9947,-8.0534,-8.1452,-8.2186,-8.2186,-8.2186,-8.2186,-8.2186,-8.2186,-8.2186,-8.2186,-8.2186,-8.2186,-8.2186,-8.2508,-8.2696,-8.2696,-8.3001,-8.3106,-8.292,-8.3069,-8.3106,-8.2883,-8.3069,-8.318,-8.318,-8.318,-8.318,-8.318,-8.318,-8.318,-8.318,-8.3564,-8.3975,-8.4486,-8.5114,-8.5552,-8.5919,-8.606,-8.6094,-3.0176,-3.3322,-3.6468,-4.2455,-4.6946,-5.0735,-5.3795,-5.5955,-5.7768,-5.9289,-5.9615,-5.9651,-5.9724,-5.9724,-5.9724,-5.9724,-5.9724,-6.0013,-6.0774,-6.0883,-6.1172,-6.1933,-6.2005,-6.2005,-6.2005,-6.2005,-6.2005,-6.2005,-6.2005,-6.2005,-6.2005,-6.2005,-6.2005,-6.2005,-6.2041,-6.2078,-6.2078,-6.3111,-6.4181,-6.5055,-6.6056,-6.6512,-6.6586,-6.7357,-6.7724,-6.7797,-6.8605,-6.9412,-7.022,-7.0991,-7.1798,-7.2496,-7.2496,-7.2532,-7.2679,-7.345,-7.4258,-7.5102,-7.5873,-7.668,-7.7304,-7.7304,-7.7304,-7.7304,-7.7304,-7.7304,-7.7304,-7.7304,-7.7304,-7.7341,-7.7378,-7.8589,-7.98,-7.9837,-8.1048,-8.2186,-8.2186,-8.2186,-8.2186,-8.2186,-8.2186,-8.2186,-8.2186,-8.2186,-8.2186,-8.2186,-8.2508,-8.2696,-8.2696,-8.3001,-8.2883,-8.214,-8.2734,-8.2883,-8.2103,-8.2734,-8.318,-8.318,-8.318,-8.318,-8.318,-8.318,-8.318,-8.318,-8.3239,-8.3452,-8.3975,-8.4904,-8.5436,-8.5436,-8.5884,-8.6094,-2.8383,-3.136,-3.4776,-3.887,-4.3366,-4.7491,-5.0083,-5.3274,-5.6029,-5.708,-5.7297,-5.7442,-5.7949,-5.8891,-5.9615,-5.9615,-5.9615,-5.9724,-6.0013,-6.005,-6.0158,-6.0448,-6.0484,-6.0484,-6.0484,-6.0484,-6.0665,-6.1208,-6.1245,-6.1462,-6.2005,-6.2005,-6.2005,-6.2005,-6.2005,-6.2168,-6.25,-6.2741,-6.3445,-6.4659,-6.4839,-6.5485,-6.6512,-6.6806,-6.721,-6.7724,-6.7981,-6.8605,-6.9412,-7.022,-7.0991,-7.1798,-7.2312,-7.2496,-7.2606,-7.3377,-7.4221,-7.5028,-7.5836,-7.6644,-7.7304,-7.7304,-7.7304,-7.7304,-7.7304,-7.7304,-7.7304,-7.7304,-7.7304,-7.7304,-7.7304,-7.8552,-8.0057,-8.1085,-8.1782,-8.2186,-8.2186,-8.2186,-8.2186,-8.2186,-8.2186,-8.2186,-8.2186,-8.2186,-8.1921,-8.0919,-8.1907,-8.2326,-8.1414,-8.1986,-8.2511,-8.2734,-8.2549,-8.2511,-8.2734,-8.3032,-8.318,-8.318,-8.318,-8.318,-8.318,-8.318,-8.318,-8.318,-8.318,-8.3395,-8.3922,-8.4292,-8.4772,-8.5397,-8.5552,-8.5775,-2.6184,-2.8687,-3.2036,-3.5825,-3.933,-4.3054,-4.7533,-5.0673,-5.3171,-5.4907,-5.545,-5.5848,-5.6645,-5.7659,-5.8492,-5.8746,-5.8782,-5.8891,-5.918,-5.9216,-5.9289,-5.9579,-5.9615,-5.9615,-5.9615,-5.9615,-5.9832,-6.0375,-6.0412,-6.0774,-6.1571,-6.1607,-6.1752,-6.2005,-6.2005,-6.2222,-6.2654,-6.2449,-6.2859,-6.3861,-6.4044,-6.4787,-6.6109,-6.6366,-6.6953,-6.7687,-6.7687,-6.8164,-6.8935,-6.9486,-7.033,-7.1358,-7.1908,-7.2275,-7.2569,-7.3083,-7.3817,-7.4625,-7.5432,-7.624,-7.6937,-7.7231,-7.7304,-7.7304,-7.7304,-7.7304,-7.7304,-7.7304,-7.7304,-7.7304,-7.7304,-7.8552,-8.0131,-8.1489,-8.2003,-8.2186,-8.2186,-8.2186,-8.2186,-8.2186,-8.2186,-8.2186,-8.2186,-8.2186,-8.1884,-8.0908,-8.187,-8.2388,-8.1459,-8.1911,-8.2474,-8.2771,-8.2549,-8.2511,-8.2771,-8.3032,-8.318,-8.318,-8.318,-8.318,-8.318,-8.318,-8.318,-8.318,-8.318,-8.3376,-8.3692,-8.3817,-8.4242,-8.4904,-8.5238,-8.5665,0.0,0.0,0.0,-3.2949,-3.4768,-3.7561,-4.6133,-4.808,-4.9108,-5.2832,-5.4146,-5.4943,-5.5812,-5.5957,-5.621,-5.7007,-5.7152,-5.7478,-5.8239,-5.8347,-5.8637,-5.9434,-5.9542,-5.9542,-5.9542,-5.9542,-5.9542,-5.9579,-5.9579,-5.9941,-6.0738,-6.0774,-6.1136,-6.1969,-6.1969,-6.2078,-6.2397,-6.2433,-6.25,-6.2805,-6.3649,-6.4494,-6.5301,-6.6109,-6.688,-6.765,-6.7687,-6.8128,-6.8862,-6.8898,-6.9853,-7.1284,-7.1321,-7.1798,-7.2496,-7.2496,-7.301,-7.3817,-7.4625,-7.5432,-7.624,-7.7047,-7.7304,-7.7304,-7.7304,-7.7304,-7.7304,-7.7304,-7.7304,-7.7341,-7.7341,-7.8552,-7.9947,-8.0791,-8.1562,-8.215,-8.215,-8.2186,-8.2186,-8.2186,-8.2186,-8.2186,-8.2186,-8.2186,-8.2215,-8.2334,-8.2497,-8.2684,-8.283,-8.301,-8.2809,-8.2103,-8.2697,-8.2809,-8.2066,-8.2697,-8.3143,-8.3143,-8.318,-8.318,-8.318,-8.318,-8.318,-8.318,-8.318,-8.318,-8.318,-8.3638,-8.387,-8.3885,-8.4942,-8.5665,-2.368,0.0,0.0,0.0,0.0,0.0,-3.7756,-4.0526,-4.3827,-4.9133,-4.9945,-5.0814,-5.4508,-5.5196,-5.5269,-5.5486,-5.6464,-5.7261,-5.7514,-5.7514,-5.7623,-5.784,-5.7876,-5.7876,-5.7876,-5.7876,-5.8094,-5.8709,-5.8746,-5.9072,-5.9905,-5.9941,-6.0356,-6.126,-6.1296,-6.1656,-6.2552,-6.2552,-6.2603,-6.2805,-6.3062,-6.3613,-6.4457,-6.5264,-6.6072,-6.6843,-6.743,-6.7834,-6.8091,-6.8678,-6.9522,-7.0477,-7.1101,-7.1798,-7.2496,-7.2496,-7.301,-7.3817,-7.4625,-7.5432,-7.624,-7.7047,-7.7304,-7.7304,-7.7304,-7.7304,-7.7304,-7.7304,-7.7304,-7.7451,-7.8075,-7.8589,-7.914,-7.9947,-8.0755,-8.1342,-8.1342,-8.1782,-8.2186,-8.2186,-8.2186,-8.2186,-8.2186,-8.2186,-8.1912,-8.0948,-8.0862,-8.0947,-8.1244,-8.0877,-8.1137,-8.2697,-8.1954,-8.1545,-8.1954,-8.2177,-8.2326,-8.2326,-8.2883,-8.318,-8.318,-8.318,-8.318,-8.318,-8.318,-8.318,-8.318,-8.3318,-8.3564,-8.3885,-8.4942,-8.5475,-2.5169,-2.5947,-2.7368,-2.818,0.0,0.0,-3.5603,-3.7816,-4.0513,-4.6241,-4.7554,-4.8749,-5.2263,-5.3168,-5.3639,-5.4291,-5.545,-5.6355,-5.6645,-5.6971,-5.7188,-5.7188,-5.7188,-5.7188,-5.7188,-5.7188,-5.7369,-5.7876,-5.7913,-5.8239,-5.9124,-5.9486,-5.9989,-6.0529,-6.0617,-6.1084,-6.2091,-6.2091,-6.2325,-6.2805,-6.2805,-6.3282,-6.4127,-6.4604,-6.5411,-6.6512,-6.699,-6.7393,-6.7724,-6.8201,-6.9082,-7.0146,-7.0624,-7.1505,-7.2496,-7.2496,-7.2789,-7.3377,-7.4515,-7.5212,-7.5799,-7.6937,-7.7304,-7.7304,-7.7304,-7.7304,-7.7304,-7.7304,-7.7304,-7.7451,-7.7928,-7.8332,-7.8809,-7.958,-8.0424,-8.1085,-8.1415,-8.1856,-8.2186,-8.2186,-8.2186,-8.2186,-8.2251,-8.2316,-8.2049,-8.1427,-8.134,-8.1437,-8.1731,-8.1323,-8.1583,-8.3032,-8.2028,-8.1583,-8.24,-8.2177,-8.214,-8.2474,-8.292,-8.318,-8.318,-8.318,-8.318,-8.318,-8.318,-8.318,-8.318,-8.318,-8.3452,-8.3922,-8.4495,-8.4899,-2.7469,-2.7638,-2.8755,-3.119,-2.96,0.0,-3.6361,-3.7263,-3.8069,-4.3162,-4.5341,-4.6975,-4.8822,-4.9945,-5.1031,-5.2299,-5.3639,-5.4834,-5.574,-5.65,-5.6935,-5.6935,-5.7007,-5.708,-5.708,-5.7152,-5.7188,-5.7188,-5.7188,-5.7565,-5.8442,-5.9169,-5.9656,-5.988,-5.988,-6.0332,-6.1286,-6.1359,-6.1812,-6.2695,-6.2768,-6.3209,-6.3943,-6.4053,-6.4934,-6.6366,-6.6476,-6.6953,-6.7687,-6.7687,-6.8605,-6.9963,-7.0073,-7.1027,-7.2386,-7.2459,-7.2496,-7.2753,-7.4368,-7.4918,-7.5175,-7.679,-7.7304,-7.7304,-7.7304,-7.7304,-7.7304,-7.7304,-7.7304,-7.7304,-7.7304,-7.7892,-7.8626,-7.9323,-8.0131,-8.0938,-8.1746,-8.2003,-8.2076,-8.2186,-8.2186,-8.2251,-8.2343,-8.2407,-8.2534,-8.2843,-8.2756,-8.2779,-8.3143,-8.3032,-8.2994,-8.318,-8.2474,-8.2288,-8.2994,-8.24,-8.2288,-8.2994,-8.3143,-8.318,-8.318,-8.318,-8.318,-8.318,-8.318,-8.318,-8.318,-8.318,-8.3395,-8.3817,-8.387,-8.4142,-2.9668,-2.9973,-3.0243,-2.8991,-3.0412,0.0,-3.0041,-3.1429,-3.3882,-3.6683,-3.7715,-3.9188,-4.2701,-4.5055,-4.6142,-4.5164,-4.8931,-5.2733,-5.4834,-5.5269,-5.5341,-5.5341,-5.5884,-5.621,-5.621,-5.6826,-5.7188,-5.7188,-5.7188,-5.7311,-5.7642,-5.7788,-5.8287,-5.9189,-5.9189,-5.964,-6.0591,-6.1215,-6.1667,-6.1851,-6.2511,-6.2915,-6.3099,-6.3759,-6.4604,-6.5595,-6.6219,-6.6953,-6.7687,-6.7687,-6.8274,-6.9192,-6.9853,-7.0697,-7.1615,-7.2275,-7.2496,-7.2753,-7.4368,-7.4918,-7.5175,-7.679,-7.7304,-7.7304,-7.7304,-7.7304,-7.7304,-7.7304,-7.7304,-7.7304,-7.7304,-7.7451,-7.7598,-7.7781,-7.8442,-7.9286,-8.0094,-8.0791,-8.1415,-8.2076,-8.2186,-8.2251,-8.2343,-8.2407,-8.2534,-8.2843,-8.1793,-8.1519,-8.3032,-8.2028,-8.1694,-8.3032,-8.2474,-8.2066,-8.2214,-8.2066,-8.2066,-8.2214,-8.2846,-8.318,-8.318,-8.318,-8.318,-8.318,-8.318,-8.318,-8.318,-8.318,-8.3239,-8.3318,-8.3747,-8.3975,-3.2171,-3.2036,-3.2104,-3.1326,-3.1157,0.0,0.0,-3.0627,-3.2013,-3.522,-3.5519,-3.629,-3.9912,-4.1216,-4.2013,-4.2774,-4.6287,-4.9329,-5.056,-5.3132,-5.4907,-5.4907,-5.5233,-5.545,-5.545,-5.5812,-5.621,-5.6573,-5.6971,-5.7289,-5.7486,-5.7486,-5.7802,-5.849,-5.849,-5.8893,-5.9795,-6.0199,-6.0823,-6.1594,-6.1998,-6.2401,-6.2805,-6.3246,-6.3906,-6.4751,-6.5558,-6.6366,-6.7136,-6.7504,-6.7944,-6.8421,-6.9633,-7.0587,-7.1431,-7.2202,-7.2496,-7.2679,-7.3891,-7.4551,-7.5102,-7.6313,-7.6974,-7.7304,-7.7304,-7.7304,-7.7304,-7.7304,-7.7304,-7.7304,-7.7304,-7.7304,-7.7414,-7.7855,-7.8295,-7.8809,-7.9617,-8.0094,-8.0498,-8.0901,-8.1039,-8.1424,-8.236,-8.2571,-8.2659,-8.2964,-8.2357,-8.2134,-8.3069,-8.2474,-8.2251,-8.3106,-8.2474,-8.214,-8.2549,-8.2214,-8.2177,-8.2549,-8.2957,-8.318,-8.318,-8.318,-8.318,-8.318,-8.318,-8.318,-8.318,-8.318,-8.318,-8.318,-8.3452,-8.3564,-3.5216,-3.481,-3.481,-3.4404,-3.2577,-3.107,0.0,0.0,0.0,-3.4403,-3.4379,-3.4672,-3.7486,-3.7739,-3.8246,-4.0456,-4.3244,-4.5019,-4.4729,-4.9112,-5.2589,-5.3204,-5.3675,-5.4037,-5.4182,-5.4218,-5.4653,-5.5703,-5.6151,-5.6648,-5.7279,-5.751,-5.7763,-5.795,-5.7997,-5.8327,-5.8988,-5.9134,-5.9942,-6.1374,-6.152,-6.2034,-6.2805,-6.2805,-6.3282,-6.4127,-6.4971,-6.5778,-6.6549,-6.7357,-6.7687,-6.7834,-6.9449,-7.0513,-7.1211,-7.2165,-7.2496,-7.2606,-7.3413,-7.4221,-7.5028,-7.5836,-7.6644,-7.7304,-7.7304,-7.7304,-7.7304,-7.7304,-7.7304,-7.7304,-7.7304,-7.7304,-7.7488,-7.8185,-7.8369,-7.8589,-7.9396,-7.9543,-7.958,-7.9764,-7.9889,-8.0555,-8.2154,-8.2474,-8.2634,-8.3121,-8.318,-8.318,-8.318,-8.318,-8.318,-8.318,-8.2623,-8.2474,-8.3143,-8.2586,-8.2511,-8.3143,-8.318,-8.318,-8.318,-8.318,-8.318,-8.318,-8.318,-8.318,-8.318,-8.318,-8.318,-8.318,-8.318,-8.318,-3.958,-3.9817,-3.9242,-3.4675,-3.5723,-3.5994,-2.8996,0.0,-3.1184,-3.0015,0.0,-3.1404,-3.2785,0.0,0.0,-3.3574,-3.7232,-3.9695,-3.8282,-4.1035,-4.4258,-4.712,-4.9329,-5.0923,-5.1647,-5.1719,-5.2625,-5.487,-5.3878,-5.4117,-5.6273,-5.7266,-5.781,-5.781,-5.795,-5.8033,-5.8143,-5.8841,-5.9648,-6.0529,-6.1263,-6.2034,-6.2805,-6.2805,-6.3282,-6.4127,-6.4971,-6.5778,-6.6549,-6.7357,-6.7687,-6.7834,-6.9449,-7.0146,-7.0403,-7.1945,-7.2496,-7.2606,-7.3413,-7.4221,-7.5028,-7.5836,-7.6644,-7.7304,-7.7304,-7.7304,-7.7304,-7.7304,-7.7304,-7.7304,-7.7304,-7.7304,-7.7341,-7.7451,-7.7451,-7.7708,-7.8552,-7.8736,-7.8956,-7.9653,-7.9889,-8.037,-8.1477,-8.171,-8.2149,-8.3069,-8.318,-8.318,-8.318,-8.318,-8.318,-8.318,-8.3106,-8.3106,-8.318,-8.3106,-8.3106,-8.318,-8.318,-8.318,-8.318,-8.318,-8.318,-8.318,-8.318,-8.318,-8.318,-8.318,-8.318,-8.318,-8.318,-8.318,-4.0426,-4.0629,-4.0257,-3.6332,-3.5859,-3.5013,-2.9837,-2.9245,-2.9833,-3.0194,0.0,0.0,0.0,0.0,0.0,0.0,-3.4987,-3.6363,-3.5711,-3.7558,-4.0311,-4.3969,-4.4874,-4.6106,-4.8315,-4.8931,-5.0198,-5.2625,-5.1801,-5.2472,-5.5447,-5.6499,-5.7251,-5.7904,-5.7997,-5.7997,-5.7997,-5.8327,-5.8914,-5.9722,-6.0529,-6.1337,-6.2108,-6.2585,-6.3025,-6.3429,-6.4751,-6.5485,-6.5888,-6.7173,-6.7687,-6.7797,-6.8972,-6.9706,-7.022,-7.1394,-7.2092,-7.2569,-7.2899,-7.3854,-7.5139,-7.6387,-7.7047,-7.7304,-7.7304,-7.7304,-7.7304,-7.7304,-7.7304,-7.7304,-7.7304,-7.7304,-7.7304,-7.7304,-7.7304,-7.7414,-7.7781,-7.7855,-7.7965,-7.8456,-7.8615,-7.9054,-8.0045,-8.103,-8.1889,-8.2437,-8.2883,-8.318,-8.318,-8.318,-8.318,-8.318,-8.318,-8.318,-8.318,-8.318,-8.318,-8.318,-8.318,-8.318,-8.318,-8.318,-8.318,-8.318,-8.318,-8.318,-8.318,-8.318,-8.318,-8.318,-8.318,-8.318,-4.1982,-4.2049,-4.1474,-3.7449,-3.5622,-3.3863,-3.0277,-2.9274,-2.9558,-3.1078,-3.1203,0.0,0.0,0.0,-3.1546,-3.285,0.0,-3.3791,-3.3357,-3.4298,-3.6472,-4.0492,-4.1216,-4.2375,-4.4947,-4.5345,-4.6685,-4.9764,-4.9125,-5.0301,-5.4292,-5.555,-5.6639,-5.7584,-5.7886,-5.7997,-5.7997,-5.7997,-5.84,-5.9208,-6.0015,-6.0823,-6.163,-6.2438,-6.2805,-6.2915,-6.4567,-6.5301,-6.5411,-6.7026,-6.7687,-6.776,-6.8348,-6.9192,-7.0183,-7.1027,-7.1835,-7.2496,-7.2496,-7.356,-7.5139,-7.6533,-7.7157,-7.7304,-7.7304,-7.7304,-7.7304,-7.7304,-7.7304,-7.7304,-7.7304,-7.7304,-7.7304,-7.7304,-7.7304,-7.7304,-7.7304,-7.7341,-7.7402,-7.7524,-7.7762,-7.8122,-7.8829,-8.0332,-8.1577,-8.1954,-8.266,-8.318,-8.318,-8.318,-8.318,-8.318,-8.318,-8.318,-8.318,-8.318,-8.3106,-8.2883,-8.2846,-8.2846,-8.2846,-8.2846,-8.2957,-8.318,-8.318,-8.318,-8.318,-8.318,-8.318,-8.318,-8.318,-8.318,-4.5737,-4.5534,-4.3978,-3.7313,-3.5622,-3.4235,-2.9022,-2.9533,-3.1244,-3.1623,-3.3728,-3.5396,-3.5117,-3.4699,-3.3973,-3.2488,-3.227,0.0,0.0,-3.0015,-3.151,-3.5566,-3.8717,-4.089,-4.1759,-4.0528,-4.1615,-4.6287,-4.5435,-4.7044,-5.2372,-5.4554,-5.597,-5.6639,-5.7547,-5.7997,-5.7997,-5.7997,-5.84,-5.9208,-6.0015,-6.0823,-6.163,-6.2438,-6.2805,-6.2915,-6.4567,-6.5301,-6.5411,-6.7026,-6.7687,-6.7687,-6.7724,-6.8715,-7.0183,-7.1027,-7.1835,-7.2496,-7.2496,-7.356,-7.5065,-7.5873,-7.668,-7.7304,-7.7304,-7.7304,-7.7304,-7.7304,-7.7304,-7.7304,-7.7304,-7.7304,-7.7304,-7.7304,-7.7304,-7.7304,-7.7304,-7.7463,-7.762,-7.762,-7.7783,-7.8014,-7.8051,-7.9537,-8.1025,-8.1843,-8.266,-8.318,-8.318,-8.318,-8.318,-8.318,-8.318,-8.318,-8.318,-8.318,-8.2846,-8.2066,-8.2028,-8.2028,-8.2028,-8.2028,-8.24,-8.318,-8.318,-8.318,-8.318,-8.318,-8.318,-8.318,-8.318,-8.318,0.0,0.0,-4.6616,-4.1339,-3.8937,-3.6603,-3.1867,-3.2138,-3.3073,-3.1929,-3.4431,-3.6325,-3.4972,-3.4442,-3.3852,-3.2778,-3.1946,-3.0822,0.0,-2.854,-2.9119,-3.1546,-3.5131,-3.7305,-3.7051,-3.7486,-3.955,-4.3788,-4.3286,-4.5474,-5.1632,-5.3156,-5.4752,-5.6658,-5.7033,-5.7446,-5.7997,-5.7997,-5.8143,-5.8437,-5.9758,-6.0529,-6.086,-6.2218,-6.2805,-6.2879,-6.4016,-6.4824,-6.5375,-6.6476,-6.721,-6.7687,-6.7687,-6.8678,-7.011,-7.0403,-7.1358,-7.2569,-7.312,-7.4001,-7.5028,-7.5836,-7.6644,-7.7304,-7.7304,-7.7304,-7.7304,-7.7304,-7.7304,-7.7304,-7.7304,-7.7304,-7.7304,-7.7304,-7.7304,-7.7304,-7.7304,-7.7463,-7.762,-7.7703,-7.79,-7.8071,-7.8165,-7.9168,-8.0171,-8.1025,-8.2326,-8.318,-8.318,-8.318,-8.2994,-8.2437,-8.2883,-8.2734,-8.162,-8.1545,-8.1434,-8.1137,-8.1137,-8.1397,-8.1954,-8.1991,-8.2363,-8.318,-8.318,-8.318,-8.318,-8.318,-8.318,-8.318,-8.318,-8.318,-4.8748,-4.9052,0.0,-4.4147,-4.2049,-3.9749,-3.4945,-3.5216,-3.6017,-3.4267,-3.6069,-3.7853,-3.7446,-3.6113,-3.4748,-3.383,-3.2427,-3.0677,0.0,-2.7718,-2.7779,-2.883,-3.1727,-3.3791,-3.4154,-3.4335,-3.6544,-4.1651,-4.1214,-4.3506,-4.9961,-5.181,-5.3653,-5.5904,-5.6492,-5.7189,-5.7997,-5.7997,-5.7997,-5.8033,-5.9648,-6.0419,-6.0456,-6.2071,-6.2805,-6.2879,-6.3723,-6.4567,-6.5375,-6.6182,-6.6953,-6.7687,-6.7687,-6.8495,-6.9706,-7.0,-7.1101,-7.2569,-7.3083,-7.4001,-7.4992,-7.5506,-7.6423,-7.7304,-7.7304,-7.7304,-7.7304,-7.7304,-7.7304,-7.7304,-7.7304,-7.7304,-7.7304,-7.7304,-7.7304,-7.7304,-7.7402,-7.7524,-7.7703,-7.7842,-7.8014,-7.8165,-7.8276,-7.8945,-7.9688,-8.0208,-8.1694,-8.2771,-8.2771,-8.2994,-8.2994,-8.2474,-8.2623,-8.2214,-8.0802,-8.0691,-8.058,-8.0282,-8.0245,-8.0505,-8.1063,-8.1397,-8.1917,-8.2734,-8.3032,-8.318,-8.318,-8.318,-8.318,-8.318,-8.318,-8.318]}]]